GFSFLT1_sfc_wetblb_000.txt.gz
Wetbulb
60.53 59.68 60.33 61.74 63.73 65.96 66.25 63.31 62.12 63.26 64.64 63.70 61.95 61.16 61.44 60.64 59.86 59.07 59.14 59.10 59.60 59.91 59.77 60.52 61.07 60.08 59.39 58.94 58.89 58.69 57.33 56.15
57.30 57.60 58.70 60.93 63.65 64.18 63.98 62.46 59.70 60.69 60.43 57.99 58.18 57.37 58.09 58.64 58.64 58.63 58.72 58.49 58.36 58.37 58.15 58.54 59.12 58.62 58.82 59.16 58.74 57.82 57.07 57.11
55.88 57.29 58.45 59.30 60.93 61.21 59.17 57.64 57.67 57.66 58.48 57.91 57.73 57.15 57.69 57.70 57.91 57.89 57.64 56.44 56.24 56.07 56.64 56.58 56.95 56.55 57.13 57.60 57.59 56.48 56.99 57.41
54.67 55.97 56.99 58.06 57.49 57.64 57.36 57.30 57.15 56.84 56.96 57.05 57.62 57.97 57.06 55.76 55.25 55.00 54.77 54.94 54.72 55.06 55.32 55.37 55.65 55.42 54.41 55.27 55.73 55.28 53.67 55.95
54.03 54.48 55.41 56.15 57.13 57.68 56.93 56.42 56.14 55.53 55.76 55.24 54.67 53.57 52.40 53.49 53.74 54.03 53.81 54.08 53.82 53.73 53.85 54.34 54.31 54.14 53.57 53.54 53.43 53.76 53.52 51.96
53.53 54.06 54.77 55.39 56.29 56.14 56.58 56.27 55.62 55.07 54.50 54.69 54.13 53.34 53.39 53.66 53.35 52.32 52.17 52.61 52.97 52.79 52.67 52.79 53.01 52.80 52.61 52.69 52.54 52.48 52.55 51.87
53.32 54.31 54.82 54.93 56.24 56.26 55.88 54.96 54.20 54.84 54.53 53.74 53.01 52.74 52.56 51.77 51.07 50.20 50.46 50.82 51.10 51.66 51.27 51.69 51.60 50.99 50.71 50.51 50.73 49.89 49.71 49.01
52.66 53.01 53.73 54.41 54.62 54.59 53.45 53.60 53.01 53.90 53.62 51.65 51.97 52.04 51.97 50.98 50.37 49.49 48.71 48.75 49.15 50.12 50.19 50.17 49.98 49.80 49.34 50.10 49.86 48.38 45.17 43.75
52.45 52.75 53.44 53.77 53.44 53.96 53.82 52.25 51.89 52.18 51.34 51.22 51.87 52.49 52.01 50.70 49.94 48.82 47.97 47.92 48.85 49.68 49.14 49.26 49.10 49.16 48.94 48.72 45.74 43.73 44.50 44.11
51.62 52.42 53.10 53.32 53.28 51.85 53.26 52.56 52.57 52.82 52.48 52.82 52.21 52.10 50.60 49.18 48.51 48.15 47.92 48.59 48.11 48.23 48.38 47.42 45.97 45.98 45.79 45.17 43.57 42.10 42.25 41.68
52.25 52.81 51.88 52.44 53.50 53.76 54.23 53.96 53.06 52.68 52.39 51.68 50.76 49.86 49.15 47.74 47.06 46.53 47.07 47.52 47.91 46.65 45.50 44.88 44.52 44.67 44.61 43.85 42.78 41.41 40.92 40.85
52.15 52.70 53.07 53.29 53.79 53.48 52.95 53.00 52.11 51.31 50.71 49.84 49.00 48.21 46.89 46.55 46.46 46.18 46.20 46.46 45.54 44.95 44.32 43.96 43.15 41.70 41.32 40.68 40.74 40.97 40.24 39.85
52.09 52.42 52.37 52.55 52.14 51.99 51.93 51.17 49.88 49.11 47.75 47.37 47.21 46.61 46.41 45.76 45.64 45.22 45.11 44.50 44.53 44.15 42.92 41.54 41.31 40.97 40.47 39.57 39.56 39.79 39.02 38.31
51.12 51.71 51.31 50.89 50.41 49.46 47.29 46.67 47.08 46.89 46.59 46.22 45.81 45.77 45.49 44.63 44.01 43.50 43.11 42.35 41.84 41.64 41.43 40.85 40.25 40.07 40.29 39.52 38.80 38.65 38.58 38.56
49.93 49.35 49.24 48.00 45.87 45.87 46.31 46.77 46.41 45.90 45.56 44.93 44.63 44.60 44.07 42.93 42.05 41.83 41.79 41.62 41.09 40.83 40.39 39.88 39.54 38.68 38.19 38.11 37.82 37.53 37.11 36.63
47.72 47.49 46.73 46.90 46.42 46.89 47.17 46.20 45.20 45.27 44.36 43.49 42.09 42.28 42.01 41.77 41.44 40.84 40.60 39.89 38.88 38.57 37.87 37.73 37.79 37.18 36.61 36.04 35.93 36.26 35.99 35.56
45.45 43.03 43.18 44.64 45.18 46.26 45.68 44.35 44.49 44.37 43.16 41.14 40.85 41.26 40.86 39.87 39.61 39.24 38.51 37.70 37.41 37.40 36.87 36.67 36.14 35.96 32.64 32.18 32.79 34.39 34.36 34.21
41.54 42.26 44.32 44.91 45.84 46.76 44.73 44.27 44.24 43.29 41.42 40.30 40.42 40.69 38.86 38.53 38.04 37.35 36.84 36.60 36.95 36.20 35.88 35.70 35.01 35.30 30.14 29.98 29.63 31.91 32.37 32.65
42.48 43.69 43.67 45.30 47.24 46.17 44.96 44.31 43.27 42.07 40.86 40.20 40.37 39.01 37.59 37.45 36.83 36.17 36.27 36.36 35.59 35.25 34.93 34.49 33.89 33.58 29.96 28.66 27.93 30.32 31.70 31.87

GFSFLT1_sfc_wetblb_003.txt.gz
Wetbulb
61.80 63.44 63.40 63.76 63.81 64.19 65.68 65.91 62.46 62.73 63.90 63.58 61.75 61.53 61.14 61.24 60.59 60.40 60.68 60.75 60.97 60.90 60.50 62.16 62.23 61.16 61.37 61.67 62.26 61.08 60.75 59.80
62.42 61.22 61.77 62.70 63.55 64.10 64.19 63.42 63.04 62.26 61.28 59.48 58.58 58.08 58.94 59.55 59.93 60.20 60.42 59.95 59.10 59.08 58.50 59.48 60.22 59.11 60.54 60.94 60.31 59.64 59.22 60.25
58.52 59.52 60.51 61.24 63.18 63.88 63.04 61.53 59.65 59.61 59.69 58.93 58.85 58.52 58.60 58.94 59.31 58.71 58.54 58.21 57.68 56.95 57.23 56.71 57.81 56.59 58.70 59.10 59.21 57.64 57.82 58.98
56.78 58.02 59.83 60.85 60.74 60.55 59.77 59.21 58.48 58.26 58.51 58.04 57.74 57.99 57.70 56.62 56.59 56.70 57.35 57.59 56.03 55.83 55.64 56.11 57.02 56.90 55.80 57.49 56.91 56.20 53.82 56.12
55.84 56.78 57.59 58.79 58.63 59.09 58.59 57.84 57.21 56.80 57.18 56.60 55.91 54.58 53.53 54.93 55.62 55.91 55.17 55.70 54.59 54.06 54.24 54.49 55.07 55.32 55.36 55.15 53.62 54.91 53.75 51.45
55.51 56.03 56.71 57.52 58.13 58.16 58.24 57.65 56.77 56.73 56.08 55.73 54.97 54.86 55.32 55.87 55.45 54.67 54.41 54.61 53.76 53.13 53.26 53.24 53.47 52.94 53.65 53.64 53.37 51.40 50.82 50.53
55.23 56.09 56.61 56.83 57.81 57.88 57.60 56.53 55.36 55.72 55.31 55.88 55.76 53.45 52.95 51.98 52.32 51.32 51.49 51.72 51.55 52.22 51.44 51.96 52.66 52.47 51.05 50.86 50.90 50.16 48.17 47.84
54.39 54.62 55.35 55.66 55.59 55.90 55.91 55.49 55.40 56.43 56.16 54.93 53.76 53.14 53.26 52.51 51.79 50.88 49.72 49.06 49.36 50.41 50.92 50.81 49.85 50.22 50.31 50.29 48.88 46.12 43.70 41.99
54.03 54.45 55.11 55.04 55.41 56.09 56.48 55.83 54.50 55.43 54.99 54.53 54.70 53.84 52.94 51.95 51.25 49.58 48.38 48.45 49.28 49.78 49.63 49.56 49.36 49.04 48.54 48.02 46.68 46.34 44.75 44.31
53.08 54.16 54.37 55.11 55.45 55.95 55.73 55.22 55.18 55.21 54.85 54.46 53.44 52.68 51.24 50.06 49.35 48.93 48.44 49.00 48.17 48.80 48.72 47.89 47.62 47.14 45.82 45.49 44.55 43.23 43.89 43.40
53.67 54.49 54.79 55.25 55.46 55.75 55.77 55.27 54.63 54.60 54.21 52.87 51.28 50.63 50.19 49.06 48.44 47.79 47.72 47.87 47.77 47.42 47.04 45.68 44.73 44.48 43.99 42.45 42.68 42.98 42.02 42.29
53.67 53.95 53.91 54.79 55.17 55.26 54.69 54.51 53.28 52.20 51.67 50.15 49.38 49.10 48.83 48.18 47.45 47.28 46.84 46.34 45.84 44.92 44.48 43.59 42.80 41.79 41.74 41.56 41.31 41.15 40.45 40.67
53.02 53.01 52.79 52.72 52.64 53.18 53.37 52.55 50.20 50.09 48.88 48.64 47.91 47.86 47.86 47.01 46.50 45.37 44.98 44.86 44.63 43.96 42.75 41.94 41.48 41.48 40.97 40.37 39.99 39.34 38.94 38.44
51.49 51.91 52.49 52.19 51.86 51.79 50.83 50.23 48.74 48.29 48.12 47.21 46.72 46.28 45.90 45.47 44.35 43.98 43.58 43.26 42.94 42.67 42.24 41.16 40.42 40.14 39.60 39.24 38.98 38.80 38.42 38.07
49.80 49.43 49.54 49.51 48.64 47.77 48.72 49.15 49.19 48.36 47.06 46.01 45.28 44.54 44.08 43.63 42.92 42.43 42.26 41.84 40.71 39.82 39.58 39.13 38.86 38.50 38.33 38.16 37.80 36.99 36.42 36.90
48.03 48.08 48.03 47.03 47.18 47.87 47.89 48.35 48.02 47.83 46.24 45.63 44.10 43.45 43.20 42.72 41.68 41.17 41.06 40.23 39.43 39.19 38.69 38.57 38.45 37.92 36.93 36.15 35.73 34.81 34.36 34.80
46.38 46.65 46.19 46.12 46.07 46.24 47.21 47.64 47.38 47.04 45.68 44.36 43.60 42.76 42.19 41.24 40.51 40.00 39.32 38.77 38.51 38.40 37.80 37.53 37.05 36.68 31.92 31.13 31.11 32.33 31.89 32.06
45.83 45.58 45.48 45.55 45.61 45.96 46.15 46.93 47.00 44.94 44.78 43.91 42.78 41.84 41.01 40.03 39.44 38.67 37.90 37.66 37.93 37.07 36.93 36.74 35.82 35.74 30.55 30.00 29.35 30.82 30.19 30.67
44.98 45.28 44.95 44.74 45.09 45.75 46.87 46.61 45.62 44.72 43.48 42.70 42.16 41.17 40.47 39.77 38.57 37.84 37.61 37.58 36.94 36.22 35.93 35.88 34.88 34.36 31.71 29.35 28.26 29.40 29.52 30.01

GFSFLT1_sfc_wetblb_006.txt.gz
Wetbulb
60.28 60.61 61.94 63.83 63.82 63.84 65.28 62.12 59.87 61.76 62.43 61.82 60.46 59.72 59.69 59.94 59.46 58.64 59.45 58.84 58.77 58.08 57.20 57.64 59.00 57.03 56.01 56.21 56.30 55.22 55.04 54.82
60.86 61.97 62.13 62.67 63.45 62.88 61.51 62.31 61.76 61.18 60.45 58.26 57.04 56.21 57.29 57.93 58.08 58.54 57.67 57.95 56.73 55.59 54.95 55.41 54.92 53.83 53.94 53.94 53.16 52.19 52.51 53.40
58.73 59.92 61.33 62.36 61.69 61.65 60.79 60.63 59.45 58.09 57.53 57.57 57.25 57.01 56.82 56.96 57.54 56.65 57.20 56.19 55.52 54.28 54.10 53.52 53.17 52.18 51.75 52.23 52.29 50.62 50.39 50.96
56.75 58.11 58.80 59.55 58.86 58.65 57.62 57.05 56.40 56.46 57.47 56.14 55.65 55.57 54.69 54.02 54.29 54.55 54.95 54.95 54.58 54.07 53.10 53.36 52.73 50.94 49.52 49.63 49.73 48.60 47.44 48.16
55.85 56.79 56.80 56.89 57.06 57.69 57.02 56.97 56.21 56.26 56.38 55.18 53.98 52.65 52.29 54.19 54.81 54.06 54.21 53.85 53.22 52.13 51.56 51.55 51.08 50.11 48.89 49.10 49.68 48.37 47.16 44.93
54.70 55.37 55.96 56.43 57.21 57.56 57.47 56.83 56.13 56.15 55.40 54.61 53.56 53.92 53.53 53.52 53.00 52.45 51.78 51.72 50.92 50.91 50.01 48.84 49.22 48.34 48.25 48.51 47.12 46.80 46.30 44.38
54.68 55.70 56.33 56.04 57.11 56.98 56.68 55.82 55.36 55.85 55.42 55.62 53.48 51.97 51.43 50.65 50.57 49.50 48.32 48.18 48.23 48.82 49.27 48.42 48.56 47.93 47.09 47.08 45.95 44.73 42.78 42.91
54.53 54.60 54.64 55.37 55.90 56.31 56.16 55.70 54.99 55.44 54.92 53.52 53.36 52.59 51.85 50.27 48.98 47.49 46.45 45.89 46.18 46.18 47.50 46.85 46.85 46.82 47.10 46.92 46.24 44.79 43.38 40.94
53.81 54.23 54.70 54.85 55.42 55.78 56.10 54.95 54.03 54.39 54.38 53.53 53.40 51.96 49.72 48.94 48.21 46.60 45.88 45.60 45.58 46.40 46.64 46.64 45.93 45.09 44.00 44.05 42.69 43.41 41.84 41.81
53.26 54.28 54.47 55.11 55.01 55.13 55.03 54.61 53.98 54.10 54.19 52.74 50.39 49.43 49.08 48.19 46.98 46.98 46.04 46.29 46.01 45.16 44.84 44.36 44.49 43.67 43.08 41.94 40.90 40.33 40.47 40.30
53.78 53.22 54.20 54.27 54.27 54.36 55.02 54.22 52.69 51.83 49.95 48.48 48.28 47.86 48.74 48.10 47.31 45.84 45.20 44.61 44.36 44.00 43.61 43.14 42.87 42.62 42.15 41.35 40.15 40.66 40.22 39.74
52.47 52.76 52.94 53.47 53.32 53.24 52.63 50.88 50.10 49.63 49.43 48.25 47.94 47.55 47.18 46.69 45.72 44.31 43.60 43.32 42.87 41.99 42.30 42.07 41.51 40.91 40.91 40.63 39.50 39.50 38.31 37.21
51.44 51.63 51.25 51.16 50.93 50.91 50.52 50.09 49.54 49.09 48.46 47.84 46.54 46.55 45.47 44.40 44.06 42.73 42.36 41.48 42.17 41.27 40.95 40.21 40.08 39.58 39.55 38.82 38.49 38.53 37.71 36.64
50.59 50.26 50.23 49.77 49.38 49.25 48.29 48.86 49.04 48.75 48.21 46.87 46.00 44.62 43.33 42.46 42.27 42.10 41.81 40.87 40.65 39.90 38.54 37.38 36.96 36.76 36.20 35.70 35.40 35.69 34.24 33.18
49.21 48.92 48.54 48.13 47.31 47.00 47.48 47.30 48.42 47.95 47.22 46.13 44.64 43.44 42.12 41.24 41.34 40.40 39.94 39.73 38.31 37.46 37.36 37.21 37.01 36.51 36.35 35.19 34.70 33.16 32.35 32.21
47.32 46.79 47.02 46.70 46.01 46.47 46.40 46.51 47.60 47.25 45.84 44.98 44.37 43.63 42.38 41.85 40.66 39.82 39.44 38.61 37.86 37.16 36.57 36.18 36.20 35.97 33.55 31.83 31.40 30.36 29.81 29.68
45.57 46.10 45.29 45.33 45.19 44.77 44.46 44.90 46.00 47.46 45.23 44.15 44.82 43.78 42.26 41.00 40.25 39.57 38.27 37.38 36.75 36.04 35.40 35.17 34.32 35.66 31.90 31.07 29.68 27.53 28.83 28.12
44.16 44.46 44.70 44.13 43.07 43.22 42.73 43.60 44.73 45.14 44.22 44.31 43.97 41.56 40.44 40.71 40.00 39.05 37.23 35.53 35.40 34.91 34.53 34.54 33.37 32.88 32.37 31.24 29.62 27.49 26.67 26.09
43.95 43.84 43.38 43.56 43.57 43.02 42.76 42.56 42.40 42.30 42.57 43.20 42.40 41.63 40.60 40.27 39.14 38.14 36.93 35.57 34.44 33.79 33.75 33.37 32.05 32.46 32.83 32.40 29.89 26.18 25.46 25.31

GFSFLT1_sfc_wetblb_009.txt.gz
Wetbulb
56.66 57.20 59.18 59.50 59.95 61.17 58.47 60.35 58.73 57.98 58.51 57.00 55.04 54.10 54.39 54.24 53.39 53.40 54.35 53.70 53.56 51.96 51.54 51.98 52.11 51.60 50.80 50.77 49.78 50.47 49.76 49.97
57.40 57.94 57.78 58.27 59.43 58.91 58.13 57.38 56.90 56.22 53.77 52.70 52.08 51.71 52.02 52.08 52.36 53.90 53.00 52.34 52.64 51.40 50.38 51.13 50.14 49.48 48.47 48.55 48.59 47.89 48.22 48.59
55.20 54.40 53.79 54.44 55.56 55.21 53.98 53.55 53.27 52.76 52.01 51.98 52.31 52.12 51.89 51.15 51.47 52.26 52.86 52.54 51.69 51.67 49.50 49.27 48.94 47.92 46.93 46.17 46.19 46.05 45.63 46.18
53.17 53.00 51.96 52.24 51.66 51.20 51.76 51.45 51.65 52.07 52.28 51.36 50.44 49.89 49.79 50.05 51.00 51.31 52.10 52.07 50.09 48.62 48.00 47.52 47.48 47.02 45.41 44.95 45.72 44.77 43.58 44.34
52.70 51.84 50.51 50.77 50.50 50.66 51.06 51.67 51.66 52.50 51.75 50.09 48.76 47.99 48.24 50.16 49.90 49.35 49.73 48.49 47.94 48.38 47.35 46.29 46.29 45.67 44.80 45.10 47.37 44.20 43.62 41.84
50.28 50.41 51.20 51.07 50.84 49.91 50.40 50.95 51.50 52.24 50.60 49.90 49.56 48.35 48.42 48.70 48.73 45.86 45.35 45.96 46.48 46.92 46.56 45.35 45.15 45.46 44.45 44.11 43.33 42.21 42.11 41.08
50.14 51.18 51.69 50.46 50.28 50.30 50.56 50.54 50.78 51.26 50.62 50.63 48.88 46.97 46.87 45.77 44.54 43.61 43.74 44.00 44.83 44.88 45.78 44.75 44.72 44.10 43.72 43.08 43.02 41.24 40.56 42.11
48.47 50.54 50.47 49.79 49.23 49.33 50.18 50.62 50.75 50.95 49.92 48.91 47.61 45.96 45.11 44.15 43.23 42.55 43.49 44.50 42.66 42.88 42.97 42.46 42.44 42.26 42.49 41.85 41.11 41.10 40.51 39.04
48.00 48.81 48.78 50.10 51.20 49.87 50.13 50.43 50.59 50.36 49.21 47.23 46.27 45.79 45.26 46.27 45.42 44.91 43.55 41.90 41.67 41.93 42.19 42.18 42.15 41.90 41.25 40.04 39.45 39.42 40.90 40.18
48.19 51.31 51.53 50.88 50.54 49.49 49.32 49.24 48.77 47.36 46.01 45.42 45.45 46.83 47.02 45.85 44.77 42.15 41.35 41.25 42.88 41.14 41.06 40.57 40.68 40.95 42.15 41.64 40.19 39.96 38.87 38.07
48.33 48.68 48.48 48.03 47.84 48.17 47.26 47.05 46.77 46.70 45.21 46.09 46.84 46.03 46.04 44.36 41.46 40.31 40.18 40.01 40.35 39.57 39.11 38.95 39.19 39.58 39.62 38.98 37.72 37.44 37.18 36.83
46.48 46.64 47.04 47.07 47.06 46.88 46.14 46.12 46.25 45.12 45.08 46.71 45.37 44.61 42.22 41.46 40.77 39.94 39.52 39.02 38.74 39.13 39.44 38.82 38.33 37.84 37.66 37.68 37.24 37.06 36.98 36.26
45.67 46.27 46.12 45.48 44.62 44.73 44.50 44.49 44.71 45.20 45.14 44.33 43.19 42.55 40.90 39.89 39.40 39.01 38.55 38.28 38.75 38.30 37.64 35.64 35.28 34.42 33.89 33.56 33.73 33.66 32.07 30.82
44.98 44.80 44.89 44.48 43.69 43.82 43.37 43.52 44.32 45.10 45.19 43.35 42.31 42.86 39.52 38.26 37.81 38.38 37.77 36.82 36.04 35.45 34.85 34.25 34.24 34.41 33.70 32.82 32.20 31.55 30.85 30.23
43.69 43.39 43.36 42.87 42.79 42.37 42.22 42.05 43.22 44.37 44.14 43.16 42.81 42.70 40.43 38.50 38.94 38.31 37.41 36.77 34.93 34.13 34.40 34.42 34.57 34.09 32.75 31.87 31.07 29.15 28.46 28.87
42.67 41.75 41.25 41.05 41.05 40.40 39.99 40.09 41.15 41.78 42.78 42.45 41.71 41.36 41.24 39.83 39.39 38.59 38.33 36.78 34.88 34.30 34.00 33.59 33.30 32.91 31.80 29.25 28.55 26.92 26.43 26.44
41.67 42.04 41.44 40.66 39.61 39.10 39.52 39.12 38.84 39.83 39.28 39.84 42.15 40.90 40.43 40.91 40.64 39.51 36.85 35.09 33.42 32.81 32.78 32.57 31.41 32.29 31.47 30.72 28.89 25.62 26.25 25.61
41.01 41.11 40.30 39.38 38.24 38.98 36.93 37.40 38.43 38.13 38.69 40.25 40.67 40.34 39.65 39.53 40.15 38.07 36.10 34.33 32.10 31.61 31.17 31.12 30.15 28.94 33.02 32.69 30.33 26.66 24.93 24.01
40.78 39.99 38.24 38.05 37.30 36.73 36.93 37.07 37.12 37.01 37.77 38.55 39.03 38.71 38.16 39.45 39.06 36.41 34.31 33.69 30.86 29.76 29.35 29.63 29.15 30.93 32.78 33.04 31.25 26.22 24.35 24.54

GFSFLT1_sfc_wetblb_015.txt.gz
Wetbulb
57.14 57.63 57.44 58.07 58.35 58.90 59.34 59.12 59.21 56.94 56.43 54.13 53.18 50.98 50.53 50.03 49.80 50.22 50.69 50.97 51.31 49.25 49.25 48.12 47.65 45.95 45.05 44.36 43.66 44.22 44.17 44.36
53.66 54.57 55.95 55.47 55.34 56.84 57.75 56.77 56.48 54.17 52.13 51.28 51.46 50.83 50.89 50.69 51.31 52.14 49.91 50.30 48.56 46.33 46.15 46.39 45.72 44.02 43.08 43.44 43.34 43.24 43.16 43.59
51.28 52.38 52.61 53.61 54.30 53.26 51.76 52.33 51.52 51.27 51.99 52.17 52.62 50.94 49.93 52.10 51.32 48.13 47.18 46.68 46.42 45.84 44.40 44.10 43.89 43.62 43.11 42.27 42.53 42.16 42.31 43.01
50.45 51.30 50.02 50.16 48.99 48.82 49.33 49.19 49.61 50.93 51.86 50.47 50.04 50.75 49.83 48.63 46.75 45.23 45.12 45.72 45.14 44.54 43.90 43.44 43.18 43.39 41.97 41.91 41.86 41.07 40.03 41.29
48.42 47.69 46.72 46.91 46.74 47.18 47.78 48.72 48.70 49.27 48.79 48.07 47.87 47.51 46.87 46.39 44.52 42.66 43.02 44.13 44.20 44.85 43.88 43.26 42.73 42.12 40.98 41.69 41.43 39.33 38.89 37.73
46.76 46.67 46.99 47.05 46.65 46.18 46.58 48.22 48.56 48.38 48.01 47.77 47.43 45.74 45.35 43.87 42.60 41.89 42.93 44.39 45.16 43.56 44.12 43.42 42.35 40.98 40.10 39.59 38.66 38.14 38.22 37.54
46.94 47.54 47.57 46.60 45.94 45.79 46.52 47.20 46.96 46.46 45.36 44.73 43.93 42.92 42.12 41.24 42.22 43.39 44.58 43.52 42.73 44.47 43.28 41.25 40.98 39.86 38.71 38.25 37.55 36.95 36.78 37.52
46.30 47.85 47.85 46.09 45.73 45.96 45.80 45.54 44.84 44.90 44.00 43.60 43.42 42.93 42.51 42.18 42.71 43.32 42.95 41.78 41.19 40.10 39.86 38.79 38.47 39.14 38.90 38.30 36.95 36.14 35.45 34.87
46.47 45.89 45.49 45.05 45.14 44.37 43.97 44.01 43.69 44.04 43.93 43.43 42.98 43.09 43.91 43.43 42.40 42.00 41.26 39.99 39.66 39.91 38.98 38.59 38.13 38.37 38.05 37.45 36.20 35.62 35.25 34.06
44.04 44.98 44.57 44.20 44.18 44.52 44.43 44.20 43.51 43.66 43.72 43.07 42.73 42.96 43.71 42.76 41.88 40.38 39.62 38.94 39.95 39.24 38.79 38.78 38.52 37.78 37.82 37.09 35.69 34.66 34.22 33.88
43.43 44.02 44.34 44.13 43.63 44.34 44.41 44.93 44.81 44.40 43.36 42.74 43.32 42.01 42.22 41.88 40.35 39.17 38.55 38.51 40.39 39.21 39.12 38.89 38.26 38.17 36.53 35.67 34.76 33.53 33.59 33.54
42.53 44.20 44.60 43.54 42.93 42.78 41.84 41.66 41.86 42.48 42.54 42.03 41.50 41.24 40.50 39.80 38.80 37.94 38.26 38.17 37.11 37.98 39.14 38.54 37.18 34.89 33.20 32.35 32.37 32.34 31.26 29.30
43.79 43.45 43.42 43.19 41.47 40.82 40.07 38.63 39.04 39.60 40.05 40.29 40.50 40.41 39.60 38.27 37.03 37.21 36.89 38.20 38.11 36.78 37.26 37.64 34.64 33.95 32.29 31.97 30.55 30.54 28.75 27.48
41.22 42.72 41.47 40.48 40.44 39.35 37.33 37.07 36.59 37.22 37.51 37.13 37.26 38.01 38.19 38.19 36.34 36.46 36.73 35.87 35.36 36.56 36.95 35.22 33.11 33.16 32.87 31.28 29.44 28.31 27.54 27.27
39.83 39.91 40.00 40.61 39.10 36.60 35.84 35.78 36.02 35.97 35.49 35.74 36.91 37.52 37.71 36.49 36.21 35.62 35.58 35.96 36.66 36.07 37.13 34.48 33.50 33.59 31.32 29.29 28.39 27.92 26.95 27.11
39.36 38.69 39.49 38.74 36.06 35.20 35.05 35.14 35.64 35.74 35.11 35.80 37.00 37.83 37.53 37.40 37.17 37.05 36.75 37.36 37.27 37.86 33.97 33.91 32.26 30.80 29.87 28.17 28.53 27.37 26.41 25.79
39.24 38.98 38.38 37.00 35.45 34.30 34.83 34.81 35.14 35.43 34.36 36.08 37.27 37.71 37.69 37.22 37.09 37.06 37.01 36.91 36.01 33.28 34.48 30.07 28.65 30.74 32.41 32.68 32.14 27.52 27.22 26.19
37.67 37.62 36.80 35.38 34.23 34.23 33.46 34.08 34.70 34.17 34.05 36.47 36.27 36.49 36.44 35.14 35.91 35.98 35.07 33.53 35.94 31.38 28.13 28.31 27.78 28.33 32.32 32.29 31.17 28.02 25.83 24.57
37.51 35.85 34.53 34.10 33.33 33.19 33.55 33.81 33.40 32.85 33.54 34.90 35.28 34.93 34.66 34.68 34.41 34.22 33.12 32.75 30.87 27.65 27.72 28.07 27.40 28.38 29.63 29.70 28.09 23.96 22.69 23.29

GFSFLT1_sfc_wetblb_018.txt.gz
Wetbulb
56.05 56.35 57.21 57.73 58.65 59.29 59.24 58.68 58.91 58.05 56.78 54.19 51.47 51.74 50.95 51.92 52.75 51.16 49.45 49.82 50.50 48.98 48.77 47.14 45.19 43.82 43.09 42.95 42.72 43.38 43.12 43.30
54.84 55.49 55.79 55.89 56.65 58.91 58.73 58.08 57.48 56.59 51.58 50.85 49.93 49.98 51.77 50.60 47.62 48.85 49.57 47.83 45.75 44.68 44.43 44.00 43.96 42.87 42.12 42.73 42.54 42.27 42.50 42.97
52.08 52.92 53.10 53.46 55.02 55.77 55.49 55.99 53.14 51.26 51.41 50.88 51.48 50.01 48.71 49.50 47.23 45.31 45.27 44.81 44.60 44.55 43.26 42.65 42.66 42.30 41.95 41.77 41.85 40.87 41.37 41.93
51.23 52.17 50.24 48.99 47.71 48.55 49.40 49.46 49.63 50.66 51.49 48.38 47.79 48.10 47.90 46.64 44.06 42.31 43.19 44.09 43.73 43.27 42.86 42.31 41.83 41.34 41.96 41.31 40.30 39.17 38.28 39.57
47.73 47.14 45.37 45.84 44.85 45.59 46.48 47.36 47.43 47.92 47.52 47.22 46.68 45.53 44.70 43.74 41.90 41.24 42.08 43.17 43.26 43.15 43.82 42.05 42.27 41.38 40.45 40.73 40.12 38.29 37.86 36.17
46.26 46.38 45.65 44.74 44.78 44.77 46.12 47.17 46.77 46.77 46.54 46.25 44.62 43.23 42.66 41.84 41.17 41.37 41.56 42.46 44.62 44.85 43.44 41.67 40.55 39.95 38.74 38.02 36.93 36.28 36.60 35.73
44.80 45.54 45.85 45.12 46.28 46.91 46.22 44.85 44.03 44.34 44.32 43.73 43.00 41.93 41.20 40.66 40.82 41.34 42.74 41.99 41.59 42.08 41.31 39.64 39.38 38.61 37.81 37.19 36.31 35.63 35.07 35.36
44.31 45.00 46.10 46.17 45.01 44.23 44.35 43.61 43.06 43.44 43.47 43.29 42.98 42.30 41.58 41.21 41.10 40.92 40.41 40.61 40.46 39.56 38.81 39.33 37.60 38.44 38.07 37.70 36.05 35.09 34.06 33.52
44.69 45.01 43.70 42.83 43.03 42.73 42.85 43.06 42.79 43.17 43.32 42.45 42.02 41.94 41.81 41.93 41.33 40.66 40.64 40.27 39.28 38.90 38.45 37.97 37.57 37.27 37.46 37.67 36.58 36.14 35.56 34.44
43.18 43.54 43.03 43.12 43.41 43.45 43.18 43.03 42.67 43.32 42.95 42.15 41.72 41.54 41.25 41.44 41.04 39.94 39.08 38.72 39.58 38.32 37.70 37.56 37.42 37.60 37.68 37.76 36.18 35.36 34.56 34.84
42.73 42.92 43.05 42.79 42.67 44.44 44.78 45.05 43.41 42.93 42.05 41.48 41.51 40.93 40.70 39.95 38.99 38.32 37.61 37.48 37.95 37.52 38.56 37.05 37.51 37.81 36.86 35.69 35.26 33.82 33.13 32.70
42.33 42.50 42.43 42.38 42.66 43.49 42.41 40.41 41.01 40.28 39.33 39.58 39.17 38.62 38.28 37.89 37.70 37.16 37.00 37.04 37.28 37.00 36.86 36.79 37.42 36.67 33.94 32.66 31.58 31.76 31.70 29.79
41.33 41.60 41.93 42.45 42.15 41.22 38.56 37.51 37.98 37.51 37.66 37.46 36.87 37.26 37.64 37.69 36.42 36.47 36.43 36.30 36.64 36.16 36.40 37.73 37.36 34.36 32.20 30.66 31.06 30.63 29.01 27.74
40.58 40.60 42.09 41.93 39.28 37.87 37.12 37.81 36.34 36.17 35.74 35.42 35.68 36.15 36.38 36.07 35.67 35.88 35.78 35.04 34.63 35.64 37.84 36.11 35.50 33.12 31.67 31.96 29.57 28.59 27.49 27.39
38.24 38.47 39.71 38.71 37.63 38.06 36.93 35.42 35.57 34.90 34.61 34.06 34.87 35.70 36.00 35.60 35.66 35.59 35.19 35.43 34.72 37.13 36.38 35.91 32.92 32.33 31.37 29.00 28.22 27.53 27.30 27.32
37.96 37.74 37.21 37.06 37.48 35.35 34.81 34.26 34.44 34.55 33.99 33.51 34.86 35.80 36.65 36.51 36.33 35.95 36.00 35.89 36.22 38.60 36.24 33.29 31.13 30.32 29.80 28.36 28.62 28.18 27.07 26.57
38.07 38.53 39.11 38.66 35.85 33.92 33.53 33.71 33.92 33.97 33.27 33.21 35.22 35.64 35.91 36.13 35.45 34.82 35.37 34.70 34.04 34.19 31.68 30.01 28.52 29.87 32.67 32.98 30.78 27.93 26.82 25.73
38.71 39.03 38.38 36.16 34.42 33.33 32.68 32.71 33.10 32.74 32.38 32.98 34.92 34.96 34.60 34.73 34.18 34.00 33.64 32.85 32.24 29.62 27.63 27.49 27.18 28.76 30.67 30.44 29.80 26.23 23.87 23.04
38.74 38.28 35.26 33.52 32.68 32.27 32.10 32.07 31.78 31.59 31.49 32.75 33.97 33.75 33.26 33.34 32.91 32.65 32.19 31.32 30.16 27.81 27.36 27.23 27.02 26.32 28.18 28.59 28.18 24.57 23.00 22.83

GFSFLT1_sfc_wetblb_021.txt.gz
Wetbulb
55.38 57.27 59.65 60.98 61.82 61.29 61.67 61.39 59.69 59.56 57.39 56.01 54.44 54.69 54.92 55.52 54.68 53.10 53.63 53.01 53.06 52.84 51.46 51.65 51.45 50.74 50.24 50.61 50.04 50.09 49.33 48.23
57.19 58.82 60.43 60.78 60.91 60.90 60.82 59.81 58.98 56.62 54.23 53.86 54.97 54.93 54.61 51.74 51.81 51.86 51.87 51.41 51.27 51.46 50.70 50.54 50.75 50.19 49.53 49.34 49.18 47.67 46.98 47.82
55.67 57.88 59.26 60.17 60.59 60.69 60.23 60.04 59.74 56.12 56.17 56.78 57.90 56.71 54.75 51.57 50.84 50.54 50.63 50.63 50.58 50.08 50.78 50.51 50.13 49.47 49.05 47.91 47.44 45.89 45.69 46.60
55.19 55.73 57.16 57.32 57.71 59.01 58.73 56.47 56.10 56.12 56.92 55.76 54.79 54.74 53.48 52.16 49.96 49.37 49.44 49.84 49.84 49.86 49.79 49.74 49.12 48.59 47.39 46.49 45.69 44.06 41.56 43.79
53.90 52.00 52.27 53.09 52.68 54.24 54.77 54.23 53.87 53.05 53.52 54.16 53.31 52.69 51.80 49.63 49.51 49.95 50.11 49.56 49.26 49.10 49.04 48.64 48.23 47.55 46.23 45.75 44.51 43.24 41.86 38.93
50.67 50.32 50.49 50.12 51.30 52.36 52.52 51.87 51.86 52.02 52.19 52.26 51.41 49.91 49.39 49.50 49.57 48.43 49.20 49.34 49.16 48.84 48.44 47.54 46.68 46.60 45.84 44.55 43.79 43.06 43.05 40.72
49.50 49.66 49.70 49.90 51.58 51.42 51.20 50.42 49.83 50.87 51.18 50.99 50.60 49.60 48.87 49.15 48.79 48.74 49.33 49.59 49.22 48.61 47.48 46.72 46.25 45.42 44.62 44.22 43.64 41.99 41.60 40.74
49.14 49.59 50.36 50.09 50.29 49.67 50.06 50.16 49.03 50.24 50.29 49.94 49.68 49.33 48.76 48.51 48.55 48.35 48.05 48.19 48.48 47.95 47.02 45.24 44.13 44.16 43.86 43.61 42.92 42.16 41.35 40.04
49.55 50.05 49.79 49.34 48.66 49.41 49.69 49.79 49.02 49.19 49.11 48.68 48.73 48.54 48.73 48.77 48.46 47.95 47.26 46.70 46.27 46.29 46.06 44.53 43.74 43.52 43.59 43.68 42.95 42.43 42.10 41.18
49.02 48.70 48.64 48.33 48.65 48.82 49.48 49.16 48.67 48.06 48.10 48.75 48.38 48.44 47.73 46.86 45.94 46.09 45.75 45.55 44.66 45.48 45.12 44.00 43.76 43.55 43.26 42.97 42.20 41.97 41.74 40.98
48.07 47.97 48.02 48.17 48.69 48.99 49.64 49.46 47.39 46.92 47.53 46.72 46.40 45.56 45.45 45.27 45.35 44.18 44.16 44.55 44.59 44.66 44.70 44.28 43.60 42.75 42.04 42.14 41.29 41.17 39.65 39.60
47.30 47.37 47.04 47.40 48.18 48.41 47.79 45.12 45.89 45.23 44.44 44.04 44.15 44.34 44.36 44.74 43.88 43.60 43.53 43.90 43.48 42.88 43.02 42.59 42.00 40.30 40.15 40.98 39.72 38.66 37.17 37.59
47.17 46.75 46.37 45.72 45.76 44.69 42.28 43.31 42.63 42.57 43.10 43.24 42.91 43.44 43.65 43.45 43.01 42.81 43.04 42.13 42.33 41.76 41.60 41.52 40.65 39.31 41.41 39.13 37.33 36.99 36.20 35.45
45.89 45.58 45.35 44.49 42.70 41.25 42.65 41.71 41.25 41.91 42.14 41.87 42.07 42.41 42.56 42.41 42.17 42.56 42.60 42.07 42.04 41.97 40.75 40.44 40.36 40.93 37.78 37.13 36.04 34.97 34.11 33.93
45.17 44.92 44.77 43.14 42.76 42.34 40.81 40.85 41.31 41.20 41.15 41.05 41.00 41.48 41.88 42.23 42.53 42.56 42.28 41.59 41.44 41.39 41.39 40.68 38.36 37.28 36.01 34.86 34.03 34.35 34.09 33.63
43.10 42.88 42.79 43.17 42.81 40.39 40.15 40.48 40.66 40.98 40.31 39.98 40.02 40.62 41.70 41.97 42.00 41.87 41.11 41.01 41.04 40.69 39.19 37.59 35.48 35.01 34.16 34.63 34.51 33.46 32.35 31.18
42.74 42.28 42.38 42.26 41.53 40.53 39.58 39.56 39.86 39.55 39.17 38.78 39.00 39.79 40.70 40.72 40.98 40.38 40.01 40.07 39.62 39.47 36.87 34.75 34.20 33.76 32.41 31.77 31.61 31.29 29.92 28.44
42.28 42.05 42.63 42.82 42.07 40.07 39.04 39.10 38.82 38.11 37.67 38.00 37.93 39.19 39.16 39.64 39.46 39.05 38.84 38.09 38.53 37.42 34.82 33.31 32.57 32.23 29.56 29.66 28.95 30.34 28.37 27.48
41.97 42.61 42.54 40.71 39.75 38.90 38.39 38.11 37.32 36.89 37.06 37.21 38.16 38.40 38.21 38.56 38.28 38.00 37.38 37.06 37.33 36.29 33.46 32.49 31.55 29.54 27.98 27.72 27.24 28.60 27.60 26.87

GFSFLT1_sfc_wetblb_027.txt.gz
Wetbulb
62.65 62.54 63.35 64.01 65.72 66.20 65.30 64.44 63.55 62.92 62.92 61.77 62.06 59.66 59.41 59.01 58.60 58.74 59.35 59.05 58.56 59.09 57.73 57.29 57.28 56.35 56.06 55.60 54.34 53.81 52.57 51.27
63.02 63.99 64.86 65.63 65.35 64.35 64.49 63.33 63.39 63.94 62.84 61.67 60.90 59.58 59.61 59.44 59.76 58.76 58.46 58.13 57.16 57.52 57.33 56.88 56.32 54.87 53.81 53.92 52.61 50.82 49.17 50.12
62.01 63.26 64.31 65.06 63.86 63.85 64.37 63.48 63.79 64.35 63.12 63.00 62.30 61.04 60.18 59.39 58.59 58.18 57.76 57.08 56.63 55.92 55.55 54.74 53.95 52.47 51.75 50.90 50.90 48.83 48.39 49.03
61.27 62.64 61.90 62.43 61.77 62.58 63.49 63.54 63.92 63.86 62.68 61.90 61.53 61.11 58.88 57.56 57.41 57.30 56.50 56.22 55.29 54.69 53.99 53.03 52.46 51.60 49.93 50.20 49.88 48.34 45.43 47.06
62.10 62.60 60.65 61.03 62.08 63.20 63.32 62.78 62.99 61.79 61.74 60.52 59.38 57.89 56.10 57.73 57.44 56.64 56.64 55.35 53.96 53.08 52.45 52.59 52.13 51.35 50.43 49.93 49.31 47.95 46.61 43.99
61.44 62.28 63.03 63.05 62.42 62.59 63.31 61.98 60.90 60.61 59.93 59.90 59.07 57.47 56.88 56.26 55.54 53.26 53.37 53.63 52.96 52.73 52.79 52.35 51.61 50.63 50.28 49.53 48.46 47.47 47.06 44.60
60.09 61.10 61.70 62.01 63.02 61.19 60.55 59.52 58.69 59.09 58.92 58.25 56.94 54.99 52.70 51.88 51.26 50.72 51.17 51.27 51.18 50.74 50.02 49.91 49.41 49.09 49.31 48.82 48.80 47.65 45.84 44.63
57.47 57.55 58.26 59.23 59.00 58.75 58.57 57.88 56.90 57.24 56.37 54.56 53.35 51.95 51.46 50.16 50.46 50.42 48.65 47.91 47.78 48.06 47.99 47.49 47.22 47.87 48.49 48.95 47.65 46.54 45.56 44.40
56.25 56.42 56.98 57.46 57.54 57.75 57.32 56.92 56.09 55.27 53.59 52.47 52.31 50.96 50.58 50.66 49.94 48.85 48.11 47.09 46.65 47.31 47.03 46.79 46.87 47.48 47.59 47.83 46.72 45.53 45.75 45.16
55.80 56.45 56.83 56.94 57.15 57.09 57.14 56.64 55.18 53.04 52.95 52.48 50.97 49.51 48.88 47.95 48.25 48.73 47.61 47.00 46.36 46.51 46.60 45.69 45.91 46.18 46.52 47.10 46.01 44.94 44.96 44.88
55.85 56.26 56.79 57.29 57.16 57.24 57.58 56.15 53.33 52.57 51.02 50.77 48.98 48.29 48.11 48.59 48.42 47.31 46.35 46.67 46.52 45.96 45.51 45.25 45.27 45.25 45.46 45.37 44.61 44.77 43.89 43.86
56.01 56.55 57.14 56.97 57.18 56.73 55.37 54.44 52.65 50.76 49.80 48.13 47.14 47.40 48.28 48.14 47.85 47.10 46.56 46.59 46.05 45.31 44.64 44.37 44.17 43.99 44.35 44.21 43.76 43.58 42.64 42.35
56.80 56.83 56.56 56.09 56.00 55.26 54.33 52.80 51.19 49.39 48.07 46.67 47.26 48.38 47.66 47.45 46.96 46.41 46.60 45.95 46.14 45.14 44.08 43.78 43.60 43.42 42.99 42.03 41.59 41.63 39.60 39.70
56.86 56.58 55.80 55.37 55.02 54.33 53.22 51.70 49.38 48.27 45.97 46.85 47.99 47.33 47.08 46.83 46.55 46.30 46.33 46.00 45.43 44.62 43.78 43.27 42.78 42.75 41.66 40.89 40.08 39.69 39.59 39.48
56.43 56.16 55.78 55.09 54.53 53.73 51.76 49.71 49.64 47.47 46.08 46.34 47.01 46.78 46.81 46.64 46.08 45.73 45.70 45.65 44.45 43.62 43.34 43.14 42.84 41.99 40.83 40.26 39.41 39.28 38.94 38.42
55.49 55.34 55.44 54.67 53.71 52.77 50.62 49.34 47.95 46.58 46.24 46.18 46.36 46.79 46.47 45.69 44.96 45.16 45.32 44.60 43.59 43.53 43.02 42.52 41.86 40.81 39.45 38.66 38.38 37.32 36.74 36.76
54.54 55.28 55.17 54.11 53.01 51.48 48.91 48.07 47.21 46.54 46.03 45.80 45.82 45.51 44.82 44.07 43.75 44.05 44.01 43.04 42.77 42.85 42.20 41.57 40.21 39.55 31.62 31.48 31.23 35.33 35.77 35.24
53.76 54.36 54.56 54.30 53.26 51.09 47.89 47.73 47.55 46.24 45.71 45.09 44.66 44.21 43.02 42.52 42.63 42.41 41.92 42.01 42.66 41.80 41.47 40.89 39.84 38.76 31.30 30.10 29.32 33.25 34.52 34.50
53.71 54.26 54.21 54.40 53.22 50.41 48.79 48.02 46.24 45.13 44.36 44.00 43.69 42.60 41.58 41.84 41.55 41.22 41.42 41.98 41.68 41.13 40.64 40.10 39.20 36.35 30.32 28.94 28.60 32.40 34.48 34.19

GFSFLT1_sfc_wetblb_030.txt.gz
Wetbulb
59.99 60.41 61.39 62.80 64.45 64.08 63.87 64.56 63.43 62.61 62.23 61.93 61.41 60.06 59.05 58.67 58.20 57.30 57.71 57.53 57.65 56.88 55.27 54.33 54.43 53.53 52.18 51.55 50.54 49.66 47.34 45.97
61.78 62.02 62.64 63.88 64.75 63.69 63.49 62.83 62.59 62.19 61.47 60.52 59.41 57.94 58.11 58.32 58.25 58.18 57.58 56.69 56.12 55.46 54.66 53.96 53.28 51.13 50.17 48.99 47.38 46.43 45.47 45.94
61.28 62.17 63.50 64.32 63.73 63.32 62.43 62.15 62.11 62.82 62.71 61.65 60.91 59.17 58.56 58.23 57.08 56.58 56.38 55.74 54.93 54.84 52.98 51.73 50.52 48.77 47.99 48.00 46.77 44.98 44.48 44.72
60.57 61.51 62.84 62.91 63.12 63.20 62.32 62.33 62.68 63.08 63.11 62.07 60.67 59.65 57.05 55.46 55.26 54.82 54.51 54.88 53.92 52.67 51.56 50.15 49.27 48.65 47.12 47.11 45.96 44.68 41.43 42.34
60.82 61.59 61.79 61.73 62.54 63.45 63.46 63.22 63.32 63.37 62.45 60.00 58.37 56.39 54.07 55.36 55.55 54.46 53.81 54.23 52.66 51.58 50.81 49.96 49.52 48.59 47.28 46.66 46.54 43.96 42.76 40.35
60.45 61.26 60.75 60.73 62.38 62.86 63.62 63.54 62.64 60.83 60.16 59.44 58.04 55.24 55.46 54.52 53.11 51.89 51.44 52.26 52.15 51.05 50.25 48.44 47.16 46.92 46.75 46.52 45.58 43.74 43.04 40.88
60.78 61.34 61.27 60.80 62.43 62.99 62.32 61.76 59.28 59.44 58.54 58.45 57.02 54.51 52.28 50.62 49.95 49.40 50.11 49.25 48.70 48.27 47.56 45.74 45.68 45.12 44.73 44.75 45.22 45.39 41.85 41.31
59.79 59.97 60.02 60.35 60.45 60.38 59.43 58.24 57.02 57.67 56.72 54.84 52.96 51.43 50.74 49.69 49.41 48.69 46.32 45.87 45.30 45.30 44.94 44.35 43.71 44.16 44.58 44.71 44.21 42.83 42.09 40.79
58.33 58.79 59.13 59.62 58.39 58.05 57.63 56.66 55.86 55.63 54.12 52.41 51.88 51.37 49.34 48.79 48.67 46.63 46.29 45.14 44.18 44.66 44.05 43.98 43.80 43.80 43.48 43.57 43.41 42.84 42.40 40.88
56.31 56.82 57.52 57.65 57.06 56.84 56.54 55.73 55.35 54.15 52.16 51.32 50.55 49.03 47.85 47.17 46.70 47.52 47.02 44.97 45.05 44.70 43.80 43.31 43.26 42.88 42.87 42.59 41.80 42.02 41.68 40.92
55.51 55.54 56.31 56.55 56.87 56.64 56.90 56.44 54.68 52.23 51.84 50.83 49.27 48.18 48.25 46.81 46.97 47.18 45.09 44.46 44.63 43.79 43.44 42.76 42.44 42.51 42.13 41.22 41.06 41.07 40.35 40.06
55.45 55.53 56.11 56.59 56.61 56.26 56.20 55.70 53.00 51.05 49.81 49.28 47.74 47.10 47.62 46.87 46.90 45.94 45.03 44.86 43.96 43.87 43.38 42.28 41.69 41.38 41.32 40.14 39.38 38.96 38.69 38.41
56.12 55.74 56.14 55.95 55.76 55.71 55.32 54.38 51.79 50.17 49.59 47.71 47.00 47.27 46.71 46.40 46.45 45.83 45.16 44.22 44.61 43.92 43.19 41.85 41.95 41.35 40.60 39.07 38.50 38.39 38.40 37.73
56.36 55.91 55.54 55.58 55.40 55.10 54.47 53.20 51.39 49.78 47.88 46.75 46.22 45.98 46.33 45.60 46.11 45.72 44.63 44.35 43.89 43.54 42.60 41.51 41.35 40.64 39.47 38.97 38.02 37.51 37.12 37.09
55.99 55.84 55.66 55.54 55.28 54.75 53.91 52.54 50.90 48.20 47.56 46.20 45.98 45.71 46.33 46.02 45.61 44.18 44.00 44.07 43.36 42.41 41.84 41.77 41.55 40.55 39.55 39.05 38.22 36.82 36.02 35.55
55.06 55.53 55.39 55.07 54.73 54.50 53.84 51.59 48.92 48.40 46.62 45.91 45.03 46.02 45.56 45.67 44.23 43.45 43.36 43.92 42.76 42.21 41.32 41.09 40.39 40.43 38.58 36.23 35.52 33.20 32.88 32.70
54.35 55.20 55.98 55.46 54.58 53.87 52.41 50.21 48.53 47.78 45.96 45.50 45.42 45.32 45.20 44.18 43.18 42.47 42.27 42.41 41.80 41.03 40.62 40.17 39.47 39.22 33.65 32.64 32.03 29.79 31.59 31.35
52.44 54.19 54.74 55.52 54.50 52.39 50.59 49.33 48.57 46.27 45.67 45.00 45.22 44.88 43.64 42.55 41.89 41.11 40.86 40.43 40.86 40.23 39.78 39.03 37.94 33.02 33.19 32.09 30.00 29.07 29.23 29.95
52.44 53.05 54.04 54.80 54.92 50.81 50.09 48.63 46.69 46.33 44.48 44.29 44.13 43.26 41.85 41.48 40.52 40.03 40.05 39.95 39.41 39.28 38.38 38.37 37.70 34.71 32.84 31.37 29.68 27.35 28.46 29.61

GFSFLT1_sfc_wetblb_033.txt.gz
Wetbulb
57.29 58.02 60.10 60.20 60.03 60.17 62.01 61.14 59.60 59.70 59.23 58.84 58.58 55.84 55.19 55.65 54.60 53.90 54.83 54.71 55.09 52.64 51.66 51.26 50.79 49.36 47.37 47.00 46.19 45.69 44.16 42.96
56.03 56.34 60.31 60.43 60.85 61.58 61.53 60.31 59.78 59.35 58.42 57.28 56.61 55.22 54.28 54.20 54.11 54.72 54.35 53.26 52.72 51.40 50.36 48.77 47.86 46.89 45.16 45.34 44.01 42.96 42.52 42.13
57.11 58.16 60.41 60.30 60.19 60.95 61.09 60.33 59.61 59.83 59.20 59.23 58.06 55.08 54.45 53.68 53.03 52.71 52.71 51.86 51.67 51.35 48.85 47.33 46.60 45.62 44.82 44.34 43.16 42.02 41.42 40.72
57.17 59.11 59.98 60.22 59.59 60.27 60.51 60.21 60.03 60.36 60.44 59.53 57.53 54.39 52.31 51.17 50.66 50.32 50.86 51.29 50.61 49.56 47.98 46.68 45.95 45.47 44.08 43.45 42.58 40.86 38.68 39.79
57.94 58.63 59.62 59.81 59.39 59.88 60.34 60.43 60.28 60.47 60.64 57.56 54.45 51.42 50.24 50.34 50.59 50.00 49.68 50.56 49.48 48.57 47.62 46.46 45.60 45.00 43.53 43.53 44.13 41.21 39.65 37.89
57.04 58.02 59.23 59.58 60.11 59.82 60.57 60.52 60.46 60.95 61.08 57.13 55.38 51.17 49.98 50.17 50.20 49.34 49.08 48.65 49.25 46.16 44.81 43.02 42.11 42.29 41.54 41.60 41.71 41.76 40.42 38.78
57.61 58.93 58.98 58.97 59.00 59.12 59.65 60.18 60.04 59.38 56.12 55.24 52.43 50.72 47.80 46.35 45.38 45.58 46.75 44.95 43.89 43.67 43.15 41.77 41.40 40.85 40.71 40.74 40.50 41.12 39.55 38.94
57.39 57.26 57.07 57.92 58.13 58.36 58.88 58.00 54.54 53.59 50.95 48.95 47.59 46.44 46.12 45.17 45.11 43.92 43.47 42.92 41.83 41.05 42.27 41.94 40.26 40.44 40.39 40.30 40.41 40.24 40.01 38.74
57.18 57.20 57.18 57.72 57.75 57.40 57.16 53.28 52.33 51.18 48.75 47.14 46.47 46.02 45.47 45.47 43.98 42.95 44.16 43.27 43.30 42.40 42.12 40.42 40.39 40.52 40.03 39.71 39.25 39.58 39.84 38.73
54.81 57.38 57.14 56.40 54.14 53.28 52.23 51.73 51.39 49.98 47.77 46.26 45.81 45.54 44.53 43.06 42.97 43.62 44.65 42.23 43.90 41.93 40.25 40.12 40.03 39.84 39.90 39.49 38.27 38.20 38.09 37.67
52.47 53.19 54.38 54.37 53.14 53.22 52.35 51.22 50.78 48.46 46.69 45.93 44.65 43.28 43.08 43.13 43.60 44.83 43.90 42.44 42.61 41.85 41.85 41.08 39.90 39.47 39.76 38.70 38.01 37.63 36.98 36.87
51.43 51.14 53.12 53.73 52.97 52.58 51.90 50.57 48.39 46.53 46.04 44.75 43.83 43.14 42.97 44.04 44.82 45.02 43.74 43.60 42.46 41.16 41.43 40.14 39.18 38.92 38.49 37.70 36.61 36.47 36.40 36.18
51.44 51.32 52.40 52.65 52.63 52.42 51.39 50.32 46.70 45.70 45.29 44.01 43.21 43.49 44.08 44.49 44.68 44.98 44.58 42.58 41.48 41.09 40.90 39.68 39.51 38.96 37.88 36.83 36.10 36.38 35.53 34.81
51.66 51.48 51.95 52.36 52.38 52.21 51.79 49.29 47.08 46.69 44.55 42.54 43.02 44.78 44.55 44.36 44.31 44.87 43.18 40.98 41.97 40.47 40.04 39.06 39.22 38.77 37.67 37.26 36.16 35.91 35.59 34.69
51.89 51.81 51.95 52.63 52.72 52.39 52.12 49.45 47.35 45.14 43.86 42.37 44.19 44.44 44.81 44.10 44.33 41.67 41.76 42.32 40.40 39.39 39.38 40.22 39.88 39.31 38.32 38.06 36.77 35.03 33.38 33.07
50.72 51.26 51.32 52.11 52.34 51.87 51.79 50.14 47.35 46.16 44.57 44.70 44.49 45.29 45.00 44.09 42.49 42.11 42.02 40.93 39.99 40.12 40.56 39.90 39.72 38.66 37.79 35.35 34.50 32.23 31.19 31.08
47.98 50.79 51.80 51.79 51.49 50.90 50.31 47.31 46.51 46.30 44.92 44.86 45.03 44.37 43.81 42.05 41.11 40.65 40.24 39.57 39.48 40.39 38.80 38.66 37.79 37.73 34.99 34.63 32.43 30.03 30.71 29.72
47.80 47.99 50.47 51.38 51.07 50.60 47.95 46.45 46.17 45.16 45.82 45.04 44.81 44.87 42.63 40.35 40.60 39.86 38.67 37.71 38.19 37.64 38.07 38.25 37.14 34.22 34.06 33.76 32.20 29.16 28.57 27.90
46.53 47.27 48.12 49.33 49.50 48.54 46.90 46.62 44.83 44.98 44.17 43.25 42.34 41.27 39.48 39.23 39.04 37.69 37.50 37.95 37.01 36.94 37.02 37.25 36.52 33.98 33.99 33.30 31.16 27.24 26.92 27.68

GFSFLT1_sfc_wetblb_036.txt.gz
Wetbulb
60.75 61.53 61.43 61.17 59.83 58.68 60.68 59.55 58.45 58.03 58.17 57.99 55.97 55.14 54.58 54.52 52.71 52.99 53.74 53.94 53.84 51.43 50.51 49.23 48.20 46.04 44.80 43.96 43.66 43.30 42.52 41.52
59.34 59.35 59.96 59.54 58.24 59.03 60.11 58.34 58.21 57.74 57.71 56.31 53.97 53.12 53.58 53.79 52.99 53.89 53.58 52.62 52.48 49.99 47.72 46.61 45.98 44.83 44.52 44.35 42.72 41.75 41.20 40.03
56.60 57.63 57.97 57.68 57.49 59.60 59.51 58.82 58.23 57.74 58.14 56.79 55.49 53.96 53.58 53.08 52.74 52.87 51.58 51.03 50.16 48.93 46.83 45.66 45.19 44.55 43.86 43.08 42.00 40.86 40.13 39.29
53.75 56.67 56.97 57.12 58.75 59.58 59.52 59.13 58.41 58.50 58.52 57.74 55.27 53.81 51.49 50.09 49.60 49.11 49.60 50.42 50.10 48.50 46.77 45.84 44.94 44.59 43.16 42.10 41.25 39.91 38.15 38.39
55.95 56.92 56.84 57.42 58.63 60.26 60.09 59.45 58.87 59.11 59.02 57.26 54.70 53.66 50.58 49.46 49.19 48.53 48.41 49.12 48.29 47.12 46.48 45.63 44.47 43.11 41.93 42.10 42.83 40.51 38.43 36.96
56.88 57.40 58.17 58.45 58.60 58.71 59.34 59.59 58.72 59.16 59.18 57.36 54.21 50.65 50.16 49.53 48.92 48.02 47.66 46.58 45.67 44.94 43.42 41.88 41.41 41.05 40.55 40.17 40.45 38.88 39.14 37.79
56.91 58.96 58.78 58.53 59.01 59.06 59.10 58.76 58.99 59.00 59.03 56.44 53.46 50.77 48.75 49.55 47.40 46.72 45.86 43.02 42.94 42.84 41.84 41.53 40.84 41.03 40.61 40.46 39.61 39.57 38.46 37.97
56.83 57.76 58.38 58.48 58.23 58.35 58.63 58.98 58.77 58.59 56.10 54.35 51.58 49.45 48.61 49.15 46.88 44.03 42.47 42.23 42.44 41.86 42.29 41.51 42.04 40.94 39.28 38.96 37.93 37.48 37.90 37.29
56.28 57.42 57.80 58.36 58.24 57.97 58.58 58.50 54.80 51.46 49.30 48.79 46.90 47.79 47.59 45.43 45.71 44.84 44.38 42.92 42.30 42.67 42.39 42.03 40.77 40.11 39.16 38.00 37.32 38.36 37.33 36.72
55.83 56.58 56.77 57.52 57.17 57.44 56.51 53.08 50.47 47.72 45.78 45.52 46.78 45.98 45.98 45.53 46.29 46.53 44.63 42.76 43.26 42.42 41.78 39.99 41.02 39.78 38.57 37.34 37.54 37.17 36.17 36.17
55.30 55.90 55.71 55.85 55.95 54.41 51.99 51.40 49.68 46.94 45.53 45.22 44.51 45.32 46.14 45.62 44.89 44.53 43.12 43.12 43.04 42.07 41.66 40.99 40.39 38.94 38.29 37.23 37.14 36.45 36.02 35.47
55.15 55.94 55.99 55.31 54.04 52.12 50.40 50.52 48.59 45.82 45.35 43.82 43.37 43.40 44.13 44.29 44.27 44.15 43.35 43.24 42.82 42.48 42.25 39.65 39.49 38.42 37.85 36.81 36.00 35.74 35.34 34.82
54.17 54.85 55.37 54.06 53.33 52.51 50.54 50.46 48.80 46.72 45.51 43.96 42.59 43.03 45.26 44.96 44.11 44.01 43.77 43.66 43.81 41.59 41.12 39.13 38.51 37.64 37.05 36.03 35.89 35.97 35.08 34.86
51.33 51.64 53.67 53.87 53.71 53.10 52.02 49.99 48.84 46.05 45.46 43.68 42.04 43.14 43.97 43.59 43.78 44.12 44.75 42.64 41.07 39.86 39.25 38.00 37.86 37.82 37.37 36.48 36.41 35.69 35.17 35.58
50.20 49.96 51.81 53.26 53.57 53.22 52.21 48.74 46.88 45.60 44.27 43.26 43.84 43.83 44.12 43.68 42.78 43.90 42.04 41.17 39.51 39.87 38.82 38.63 38.64 38.65 38.39 37.79 36.69 35.35 34.49 33.60
49.26 48.73 48.50 49.93 50.31 51.79 51.58 47.63 47.07 46.59 45.14 44.13 44.53 44.16 44.32 44.33 42.14 41.52 40.75 40.37 39.88 39.77 38.38 38.44 39.11 38.79 38.29 37.06 35.93 33.52 31.80 31.16
46.16 48.83 49.21 49.51 49.85 49.60 49.19 47.13 46.08 44.87 44.39 44.78 45.52 44.12 41.42 41.57 40.69 39.79 38.09 39.67 39.30 38.03 38.56 38.55 38.24 38.22 36.35 36.38 34.02 31.22 31.28 30.14
45.18 45.70 49.19 49.46 49.52 49.63 47.31 45.35 45.20 44.68 45.12 45.01 44.51 43.44 41.85 40.33 39.77 39.34 38.30 37.58 37.51 37.13 37.15 37.04 36.67 36.62 35.56 35.85 33.91 29.98 28.94 28.13
44.61 45.42 46.34 47.57 47.63 45.23 45.09 46.01 45.08 45.12 43.86 43.08 42.40 40.30 39.21 38.84 37.59 37.64 37.89 37.59 37.06 36.29 35.82 35.79 35.73 35.47 34.66 34.83 32.87 28.34 27.37 27.80

GFSFLT1_sfc_wetblb_039.txt.gz
Wetbulb
58.94 59.55 59.86 60.46 60.19 58.66 59.63 59.03 57.60 57.06 57.34 56.24 55.62 56.28 55.34 53.93 52.77 53.24 53.89 53.09 52.22 50.72 49.24 47.59 45.91 44.58 43.69 43.27 41.85 41.56 41.22 40.29
60.01 59.92 60.59 60.66 57.87 57.87 58.67 57.70 57.20 57.51 56.97 55.28 53.40 52.99 52.88 52.36 52.07 53.01 53.21 52.69 51.25 48.81 47.17 45.67 44.89 44.32 42.89 42.68 41.76 40.79 39.40 38.68
59.01 59.46 60.06 59.33 57.07 58.19 58.11 57.99 56.99 57.29 57.44 54.86 54.32 53.21 53.03 52.50 52.05 52.31 51.42 51.44 49.25 47.43 45.72 44.62 44.39 43.57 42.85 41.90 41.14 40.16 39.94 38.74
57.36 58.45 57.75 58.26 56.39 57.37 58.39 58.05 57.28 57.36 57.09 55.86 53.49 52.04 50.76 50.01 49.99 49.17 49.35 49.87 48.88 47.19 45.54 44.52 43.59 43.31 42.11 41.25 40.48 40.19 38.05 38.29
56.42 56.90 56.70 57.08 56.84 58.02 58.73 58.28 57.36 57.53 57.83 55.91 52.86 51.31 50.63 49.41 49.26 48.33 48.40 49.28 48.01 46.50 45.29 44.41 43.21 42.24 40.85 41.47 41.19 39.07 38.17 37.17
54.37 56.17 56.58 57.02 57.00 57.94 58.41 58.36 58.08 58.13 57.97 57.01 53.64 51.12 49.76 49.04 48.17 47.64 46.35 45.48 45.44 45.02 43.17 41.59 41.88 41.21 41.86 40.63 38.78 38.46 38.32 36.85
53.99 56.08 56.48 56.01 57.29 57.94 58.14 58.21 58.09 57.98 57.85 56.90 53.79 51.49 49.35 48.83 46.88 45.67 44.60 42.46 41.94 41.91 41.54 42.19 42.06 41.94 41.62 38.69 38.28 38.62 38.30 37.32
54.83 55.45 56.07 56.75 56.82 57.64 58.46 58.35 57.89 57.87 57.47 56.42 53.16 51.91 49.96 50.29 47.97 46.47 42.11 40.60 40.60 40.76 41.34 42.11 42.15 40.94 40.27 39.84 37.63 37.45 38.63 37.48
55.86 56.41 56.65 56.95 57.17 57.97 58.12 58.23 58.06 57.08 56.32 55.10 52.15 50.65 49.86 49.82 47.72 45.23 44.26 43.07 42.42 42.56 42.30 42.01 42.15 41.29 40.61 39.77 38.78 38.87 37.14 36.32
55.58 57.14 57.33 57.09 57.51 58.30 57.75 57.80 57.28 54.09 52.34 49.26 47.47 46.67 45.92 48.24 47.29 46.20 44.19 43.42 42.89 42.15 42.34 41.58 41.44 41.08 40.33 39.28 38.97 36.60 36.64 36.24
54.34 56.00 56.50 57.60 57.30 57.47 57.24 56.66 54.46 49.55 46.95 47.38 46.67 47.76 47.52 48.00 46.75 44.76 43.66 43.08 43.17 42.86 41.71 41.39 41.08 40.58 39.81 37.73 36.61 36.74 36.55 36.02
54.65 55.54 56.18 56.82 57.00 56.58 56.28 53.04 49.93 46.46 45.52 45.77 45.32 46.30 45.75 45.75 45.25 44.12 43.25 43.63 42.70 41.79 41.93 41.24 40.82 39.51 36.90 36.02 36.47 36.17 36.28 35.21
54.81 55.52 55.60 55.76 55.56 55.25 55.05 52.98 50.04 48.02 46.01 44.57 44.28 44.90 45.04 44.17 44.33 43.56 43.00 41.55 40.85 42.40 42.96 41.48 39.66 38.35 36.71 35.90 35.46 35.76 34.95 33.43
52.60 53.71 54.61 54.91 54.44 54.05 53.25 52.45 49.79 46.56 45.07 45.25 44.61 44.02 44.28 43.99 43.35 43.58 41.88 41.86 42.40 41.32 40.49 39.34 38.86 37.59 36.07 36.26 35.29 34.93 34.20 33.90
49.14 50.34 52.97 54.38 54.01 52.99 52.07 48.89 47.38 46.53 45.41 44.20 43.07 43.97 43.82 43.85 43.79 43.34 42.34 40.70 41.12 39.87 40.31 39.57 39.06 38.06 38.18 37.75 35.97 34.30 33.64 34.11
48.17 47.82 48.23 49.72 51.00 51.44 50.72 48.54 47.27 45.86 45.39 44.57 43.46 43.89 44.24 44.45 42.36 40.21 41.57 40.96 40.20 40.18 39.50 39.09 38.60 39.01 38.62 37.17 35.55 34.04 32.73 31.77
44.84 47.63 48.12 48.31 49.40 49.40 49.26 47.10 46.49 45.63 44.04 43.89 44.41 45.15 43.20 41.54 40.46 39.65 38.66 38.63 38.83 39.22 39.23 38.64 37.89 37.84 36.92 36.93 35.39 31.97 31.43 30.58
44.20 44.49 47.15 47.30 47.41 48.14 46.15 44.17 43.66 43.10 44.23 44.91 44.58 42.88 41.54 39.93 39.38 38.76 38.16 37.98 38.67 38.73 38.07 36.38 35.23 35.00 36.27 36.76 35.61 31.02 29.54 28.87
43.05 43.05 44.20 44.49 43.98 42.99 42.89 43.38 43.21 43.42 43.60 43.79 42.68 40.09 38.48 38.40 38.33 38.17 38.28 39.14 38.01 35.25 34.33 34.25 33.56 33.83 35.51 35.58 34.44 28.57 27.95 28.11

GFSFLT1_sfc_wetblb_042.txt.gz
Wetbulb
57.69 57.22 57.58 57.87 57.84 58.94 58.81 58.53 57.47 56.63 56.23 55.75 55.69 55.85 55.19 55.14 54.59 53.79 53.30 52.39 51.45 50.60 49.09 47.67 46.32 44.55 43.70 42.49 41.74 41.64 40.77 40.48
57.63 58.17 58.17 58.02 58.12 57.37 58.44 57.41 56.37 56.75 55.59 54.75 53.76 53.43 54.86 54.06 53.67 53.14 52.85 51.56 50.64 49.12 47.15 45.21 44.64 43.28 42.14 42.14 41.21 40.64 39.36 38.80
57.41 57.69 58.27 58.64 58.31 57.77 57.89 57.92 56.81 57.13 57.60 54.72 54.32 52.98 53.06 53.91 53.22 52.31 52.23 50.75 49.72 47.74 45.56 44.20 43.79 42.75 42.08 41.68 41.06 40.04 39.22 38.51
57.03 57.83 57.99 58.98 57.36 57.18 57.76 57.84 57.09 57.50 56.90 54.67 52.48 51.89 51.31 51.13 49.97 49.93 50.15 50.10 48.16 46.63 45.01 43.85 43.06 42.62 41.72 40.70 40.08 39.35 37.70 38.35
57.29 57.76 57.65 58.23 57.81 56.51 57.90 57.64 57.11 57.26 56.59 55.57 52.69 52.17 50.00 49.90 50.51 50.25 48.45 48.85 47.25 45.55 44.43 43.64 42.72 42.05 40.85 40.44 40.88 39.58 38.40 36.97
56.04 57.24 58.27 57.92 56.53 55.58 56.57 57.01 56.99 57.35 57.13 56.04 53.42 51.04 50.50 49.13 48.51 48.16 46.90 46.56 45.63 44.91 43.91 41.17 40.37 40.12 39.55 39.76 39.49 39.86 38.58 37.53
55.68 56.53 56.51 55.61 54.98 55.97 56.69 56.89 56.79 57.53 57.17 55.88 53.61 51.83 49.95 49.86 47.99 47.21 45.08 43.48 42.57 42.08 41.47 40.51 39.93 40.26 40.58 40.14 41.01 39.64 38.08 38.01
51.75 52.73 53.98 54.29 55.14 56.63 56.83 57.25 57.01 57.60 57.01 56.55 54.20 52.59 52.72 51.35 49.74 47.79 45.05 40.64 40.04 39.89 40.38 39.49 39.72 40.48 41.25 40.95 39.61 39.23 37.39 37.10
51.71 52.95 54.37 54.59 55.69 56.67 57.31 57.70 57.24 57.21 56.43 56.43 55.18 54.53 53.65 52.55 51.28 48.74 45.89 42.49 40.80 40.63 41.42 42.14 41.24 42.21 41.88 40.36 39.23 39.55 38.38 36.89
51.96 53.32 54.63 54.96 55.88 56.61 57.49 57.65 57.78 57.19 56.79 56.81 56.45 54.51 52.85 52.30 50.59 48.14 44.26 42.72 42.83 42.30 42.69 42.82 43.10 41.74 40.98 39.94 39.62 39.31 37.86 36.21
52.89 54.23 54.84 55.72 56.25 56.70 57.17 57.49 57.64 57.24 55.59 54.90 53.70 51.25 51.62 50.65 49.04 46.07 43.81 44.37 43.27 41.93 42.29 43.50 41.63 41.04 40.56 39.35 38.50 37.72 35.87 36.43
52.86 54.72 55.92 56.35 56.45 56.59 56.51 56.55 56.57 53.71 52.89 50.32 49.55 48.32 48.44 49.18 47.77 47.54 45.82 43.84 41.98 41.09 41.43 41.29 40.74 40.22 39.27 38.40 37.58 36.55 36.41 35.59
52.16 53.53 54.63 56.07 56.41 56.27 56.19 56.29 55.52 53.44 49.37 46.89 48.32 48.91 48.56 47.31 46.25 44.41 42.20 40.90 41.62 41.58 41.40 40.75 40.55 39.48 39.19 36.98 35.82 37.42 35.43 33.99
51.92 52.82 53.69 54.90 55.49 56.51 56.21 55.24 53.12 49.05 47.55 45.90 46.57 46.03 46.23 44.69 43.30 43.16 42.87 42.47 41.77 41.93 41.32 41.03 40.76 40.64 37.65 36.68 36.97 35.89 34.95 34.21
49.64 50.98 52.29 53.01 53.27 52.90 52.86 51.42 49.45 47.80 45.99 46.61 45.37 44.05 43.43 43.90 44.01 42.84 43.10 42.50 41.01 40.69 41.09 40.32 39.64 38.67 38.15 37.78 36.68 35.77 34.08 33.78
47.44 48.51 49.45 50.47 51.10 51.61 51.31 48.39 46.88 46.72 45.94 45.27 42.68 43.03 42.64 43.23 42.53 40.80 40.88 39.72 39.60 39.84 40.08 40.68 40.97 39.52 38.56 38.35 37.16 35.05 33.22 32.31
44.14 45.95 46.85 47.11 48.58 49.63 49.41 47.36 45.68 45.38 43.60 41.87 42.59 43.17 42.40 41.23 39.46 38.50 38.91 40.07 40.77 41.04 40.68 40.15 39.69 40.05 38.29 37.28 36.00 33.28 32.60 31.55
42.52 43.08 44.41 45.45 45.31 46.48 45.72 44.05 43.41 42.57 42.82 43.12 43.37 42.03 40.13 39.94 39.51 39.05 38.83 39.41 40.42 40.25 39.51 39.32 37.74 35.66 35.58 36.53 36.18 33.14 30.95 30.15
38.31 38.90 40.95 41.38 41.31 41.08 41.61 41.83 42.16 42.27 41.65 41.13 41.35 39.79 38.64 38.82 39.42 39.25 39.47 39.84 39.46 38.74 36.51 34.69 33.52 33.45 34.97 35.64 34.75 31.81 29.36 29.15

GFSFLT1_sfc_wetblb_045.txt.gz
Wetbulb
58.46 60.18 59.90 60.12 60.42 60.88 60.97 61.91 62.84 62.63 61.78 61.33 61.42 61.99 61.87 61.67 61.54 60.56 59.27 57.88 57.24 57.05 56.34 55.60 53.55 51.26 51.64 51.10 50.50 50.43 50.02 50.22
59.28 59.46 60.96 59.95 60.48 60.80 61.28 61.67 62.26 61.43 59.99 59.61 59.73 59.86 60.09 59.53 59.71 59.25 59.04 58.15 56.96 56.46 55.08 53.63 52.74 52.19 51.19 51.10 50.08 49.51 48.90 49.41
58.57 59.51 59.68 59.95 59.68 60.60 61.17 61.37 61.81 61.55 61.22 60.35 60.47 60.87 60.47 60.08 56.61 55.69 56.14 57.20 56.16 54.42 53.47 52.37 52.15 50.83 50.63 50.49 50.57 48.88 49.11 48.88
58.36 58.74 59.36 59.89 59.71 59.83 60.91 61.48 61.80 62.07 61.83 60.34 58.97 58.93 58.02 56.98 55.58 55.50 56.06 55.81 54.25 52.64 52.57 52.22 51.63 51.36 50.13 50.17 49.89 48.36 46.40 47.16
59.30 59.70 59.59 60.02 60.52 61.20 61.14 61.51 61.24 61.51 61.21 59.93 58.62 58.98 57.62 57.69 57.33 57.01 55.11 54.62 53.06 51.13 51.37 51.82 51.05 50.69 49.76 49.35 48.51 48.17 47.03 44.13
58.75 60.21 60.94 61.20 61.74 60.94 61.41 61.23 61.20 61.14 60.44 60.64 59.18 59.37 59.61 57.98 57.01 56.07 54.01 52.69 52.11 50.45 50.87 50.72 50.39 49.97 48.95 48.32 47.18 46.64 44.30 42.80
58.38 60.89 61.82 61.68 61.71 61.13 60.84 60.66 60.40 60.85 60.51 59.92 59.11 58.31 56.55 55.53 54.97 53.52 52.24 53.13 51.51 50.46 50.33 50.12 49.23 47.78 47.14 46.87 47.17 45.48 44.34 44.52
56.94 58.63 59.78 60.69 60.01 60.42 60.61 60.42 59.82 60.01 59.72 59.22 58.62 58.31 57.06 56.60 54.99 51.77 50.06 50.94 49.97 49.57 49.18 47.74 46.88 46.91 45.83 45.77 43.63 43.20 43.88 43.31
56.37 58.25 59.34 59.77 59.75 60.29 59.75 59.54 59.77 59.75 59.38 59.51 59.51 58.68 57.96 57.07 55.14 53.06 51.40 51.03 50.63 49.56 47.63 46.55 45.97 45.07 44.84 43.86 43.48 43.23 44.92 45.23
54.80 56.87 58.15 58.99 59.21 59.52 59.53 59.34 59.91 59.47 59.45 59.61 59.46 58.57 58.22 55.18 54.08 53.67 51.61 50.82 47.68 47.82 46.41 46.55 46.95 44.49 45.23 43.10 43.42 44.19 44.69 44.72
53.65 55.26 56.81 58.49 59.22 59.66 60.29 60.47 60.13 60.41 60.16 60.07 59.65 59.57 58.30 56.88 55.53 54.09 52.16 49.70 47.83 46.53 46.25 46.37 45.45 45.38 44.10 42.71 43.94 43.96 44.00 43.67
54.56 56.36 57.38 58.22 59.16 59.39 59.71 60.11 60.26 60.38 60.12 59.90 59.50 58.54 57.72 56.98 54.88 53.75 50.53 48.97 47.41 45.91 45.87 45.72 44.89 42.52 42.75 41.46 42.04 43.06 42.24 43.27
55.41 56.92 58.07 58.21 58.53 59.13 59.29 59.49 59.67 60.22 59.60 57.78 57.64 56.76 54.94 54.43 53.00 52.16 50.77 48.03 46.25 45.39 45.12 43.63 42.37 42.25 43.00 41.97 41.86 40.05 42.08 41.90
55.52 56.50 57.17 58.04 58.55 58.74 58.89 58.99 59.35 59.15 55.98 55.30 54.90 54.29 52.64 52.01 51.11 49.77 47.59 45.89 46.07 43.85 43.30 42.06 41.81 42.17 43.25 41.26 42.17 42.95 42.14 41.76
54.40 55.74 56.64 57.19 57.84 58.50 58.39 57.99 56.75 53.76 52.46 51.58 51.20 50.89 51.04 50.00 48.40 48.01 47.22 46.07 44.19 43.69 43.58 43.18 42.60 41.00 42.56 42.38 42.00 41.21 41.15 40.97
51.64 52.94 54.83 56.32 56.88 57.35 57.28 56.62 54.18 53.05 51.20 50.41 49.09 48.08 47.98 47.71 46.28 44.14 44.15 42.72 41.91 42.40 41.46 42.37 42.44 42.05 41.17 40.67 41.59 41.92 42.11 41.11
48.01 48.88 49.53 49.71 51.76 54.07 53.92 52.23 50.50 50.31 49.37 47.56 46.67 46.52 44.29 41.77 40.70 40.34 40.63 41.03 42.02 43.04 41.82 41.19 41.21 41.10 39.33 39.10 39.22 41.25 39.86 39.07
44.56 45.14 45.35 45.83 47.34 49.33 49.13 48.50 48.22 47.34 46.47 45.74 44.53 42.58 40.69 40.46 40.97 41.06 41.41 41.24 42.34 41.72 41.66 41.51 40.42 41.21 38.34 37.48 36.23 38.93 39.11 39.24
42.05 43.21 43.20 43.35 44.52 45.03 46.07 46.71 45.99 45.31 44.69 43.80 42.55 40.86 40.03 40.62 40.85 41.06 41.16 41.14 40.81 40.83 40.71 41.13 41.52 40.03 35.74 35.50 34.95 38.65 38.40 38.23

GFSFLT1_sfc_wetblb_048.txt.gz
Wetbulb
60.26 60.90 62.14 62.36 62.30 62.38 62.81 63.22 64.16 65.27 64.58 63.66 62.18 63.26 64.41 66.23 66.31 65.83 65.24 64.25 62.97 62.57 61.74 60.59 60.56 59.29 58.00 56.67 56.35 55.26 54.95 54.51
60.95 60.29 61.62 62.10 62.63 62.49 62.38 63.22 64.44 64.81 63.72 61.67 60.26 61.03 63.48 65.38 65.81 65.60 64.81 63.72 62.24 62.11 61.26 60.69 59.76 57.71 57.89 57.04 55.17 53.54 52.52 54.06
60.35 61.54 61.71 61.50 61.85 62.70 62.72 62.82 63.85 65.12 64.68 62.99 61.89 61.38 62.99 64.00 65.10 65.02 64.43 63.66 62.49 62.04 61.44 59.19 58.53 58.19 56.90 55.59 54.65 53.16 53.75 53.56
60.33 60.62 61.62 62.80 61.86 62.95 62.64 62.86 63.93 65.07 65.06 63.93 62.52 62.68 63.55 63.08 63.27 62.39 60.11 58.59 60.23 61.30 59.28 57.12 57.17 57.64 55.75 55.50 54.91 53.39 51.60 51.64
61.30 61.61 62.05 62.31 62.97 63.27 63.55 63.53 64.12 65.13 65.57 64.13 62.10 60.23 60.35 62.48 63.43 63.32 62.04 61.64 60.25 59.51 58.04 56.21 56.72 56.85 56.13 55.08 54.20 53.04 51.79 50.39
60.77 62.29 63.34 63.97 63.89 63.95 63.56 63.86 64.14 64.74 65.54 65.28 63.30 61.33 61.68 63.66 63.80 62.58 61.61 60.47 59.74 58.05 56.80 55.61 55.66 55.22 55.98 54.64 52.69 52.09 52.08 51.39
61.40 62.68 64.01 64.30 65.09 64.58 64.77 63.80 63.78 64.66 64.70 64.87 64.54 63.42 62.43 62.36 62.11 61.47 60.75 58.93 57.62 56.78 55.89 56.23 55.03 55.47 54.79 53.08 52.86 52.64 49.69 46.75
61.53 61.81 62.92 63.93 64.49 64.80 64.88 64.43 63.38 64.33 64.22 64.32 64.56 63.81 63.66 62.71 61.82 61.38 60.54 57.79 53.65 53.70 54.70 55.32 54.90 55.12 53.57 52.56 49.79 49.72 48.07 47.22
61.49 62.09 62.86 64.08 64.67 65.25 65.15 63.17 62.57 63.73 64.01 63.83 64.64 63.89 62.78 62.98 63.01 61.69 59.16 55.19 53.66 54.82 54.10 53.94 54.33 52.24 50.08 47.00 47.31 49.09 48.17 48.13
59.88 61.49 62.93 63.88 64.78 64.91 65.24 64.93 64.33 63.78 63.01 63.48 62.73 62.34 61.90 62.35 62.62 60.22 55.43 54.30 54.33 54.91 53.32 52.26 49.64 50.44 48.62 46.52 47.26 44.48 44.86 46.91
57.68 59.11 61.15 63.40 64.61 65.09 65.33 65.33 64.42 64.31 63.93 63.55 62.87 62.04 61.89 62.07 61.74 57.04 55.74 55.58 54.81 53.18 50.71 50.45 49.43 47.31 46.25 46.26 43.97 44.53 45.16 45.85
58.10 59.13 60.48 61.60 63.01 63.85 64.03 64.11 64.30 64.13 64.27 64.24 63.32 62.17 61.90 61.59 60.31 58.93 58.66 57.63 55.25 50.62 51.62 50.79 47.93 45.75 44.62 42.56 43.55 43.66 43.26 43.63
59.01 60.29 61.25 61.33 61.73 62.40 62.82 63.39 63.70 64.09 64.45 64.01 63.57 62.79 61.18 59.99 59.25 58.65 57.34 53.58 51.44 50.42 48.71 45.76 46.36 43.39 43.02 42.68 42.92 41.99 42.19 42.23
59.14 60.30 61.16 61.63 61.84 62.26 62.55 62.98 63.06 63.54 63.48 62.22 61.02 58.64 57.33 55.71 54.46 52.98 51.79 50.20 48.61 46.02 45.91 46.53 44.01 43.25 42.02 42.63 43.20 43.47 42.86 44.19
58.75 59.80 60.58 61.23 61.86 62.40 62.43 61.97 62.46 61.14 59.42 58.30 56.08 55.05 53.81 52.86 51.89 50.21 48.62 48.47 46.23 45.57 44.50 43.35 42.97 42.49 43.44 43.31 43.48 42.95 43.58 43.62
57.29 58.98 60.10 60.92 61.29 61.66 61.58 61.12 60.09 59.44 57.27 55.07 53.32 51.78 51.45 51.65 52.49 51.56 49.69 47.26 45.51 44.90 43.81 42.11 43.24 43.19 43.09 43.28 42.14 41.79 41.97 42.84
54.90 55.80 56.40 56.02 57.07 58.52 57.80 57.06 56.36 56.84 55.41 53.32 51.71 51.29 51.05 49.17 47.42 46.61 46.06 43.87 44.57 43.36 44.25 43.70 43.15 43.27 39.37 38.75 39.94 41.88 42.41 43.52
51.81 51.92 52.37 53.44 54.56 55.62 54.88 54.40 54.40 53.44 52.09 50.60 48.95 47.43 45.95 45.55 45.64 45.08 44.20 45.34 44.60 44.05 43.12 43.15 42.77 42.79 39.14 39.22 38.13 42.65 41.99 41.99
49.93 50.52 50.84 51.67 52.73 52.94 52.93 52.80 51.95 50.99 49.63 47.99 46.85 46.49 45.53 45.55 45.54 45.26 44.40 44.28 43.11 42.53 41.91 42.82 43.20 42.79 38.47 37.02 35.45 40.52 41.47 41.67

GFSFLT1_sfc_wetblb_051.txt.gz
Wetbulb
60.46 60.94 60.24 60.17 61.40 61.90 61.37 61.30 61.58 62.85 63.41 62.46 61.49 62.34 62.68 63.56 64.63 65.56 66.21 66.46 65.98 65.65 64.41 63.86 62.94 61.79 60.94 60.32 59.61 58.54 57.09 55.65
61.29 60.92 61.26 61.00 62.45 62.24 62.50 62.63 63.40 63.46 62.39 60.93 59.53 60.69 61.84 62.96 64.38 65.66 65.92 65.87 65.29 64.83 63.87 63.39 62.60 61.54 60.83 60.04 58.66 56.48 54.94 55.29
60.03 60.66 61.68 61.70 61.88 62.58 62.56 62.58 62.95 64.26 63.79 62.69 61.73 61.05 61.72 62.43 64.21 65.61 65.73 65.34 64.77 64.23 63.87 62.55 62.15 60.91 59.89 59.09 57.93 55.32 55.41 55.50
60.22 59.41 60.41 61.85 61.85 62.57 62.95 63.54 64.22 64.45 64.67 64.17 62.49 61.74 62.09 61.75 62.83 64.03 64.82 65.32 64.77 63.97 63.57 62.78 61.85 60.84 59.25 58.56 57.32 56.27 53.83 54.24
60.89 61.33 60.96 61.00 61.74 63.40 63.43 63.70 64.08 64.35 65.02 64.17 62.55 60.20 58.81 61.19 62.36 63.70 64.19 64.19 62.91 62.49 62.58 62.03 60.72 60.18 58.75 58.08 57.67 57.29 55.46 52.89
60.74 61.37 62.13 62.98 63.38 63.91 64.45 63.75 63.71 64.31 64.92 64.82 64.03 62.11 61.50 62.42 63.40 63.54 64.22 63.79 63.08 62.81 62.26 61.05 59.59 58.87 58.99 57.80 57.83 56.53 54.50 53.51
60.68 62.58 63.11 63.33 64.40 64.81 64.93 63.67 63.60 64.29 64.88 64.82 64.85 63.80 62.55 61.28 63.43 63.00 63.36 63.53 62.83 62.06 60.34 60.00 59.14 58.24 57.69 57.53 57.56 55.49 54.55 52.69
60.24 60.88 61.99 63.25 64.11 64.84 65.24 63.84 62.87 63.94 64.48 64.77 64.94 64.67 64.20 63.05 62.68 63.46 62.15 61.55 61.33 60.73 59.76 58.04 56.11 56.14 55.76 57.40 56.00 53.62 50.38 48.30
60.40 61.12 61.89 63.20 64.78 65.20 64.90 64.59 64.00 63.68 62.28 63.36 65.40 65.26 65.59 64.66 64.26 63.76 62.97 62.36 62.25 59.71 56.18 55.10 55.53 55.15 55.30 52.46 48.79 50.34 50.24 48.75
59.71 61.61 62.66 63.31 65.14 66.11 66.17 65.27 65.22 64.90 62.98 62.22 61.92 65.13 65.80 64.71 64.74 65.15 63.91 63.38 58.03 55.79 54.54 55.43 55.30 55.25 51.00 48.75 48.69 48.14 44.94 47.72
58.79 60.86 62.36 63.62 65.04 66.93 66.99 66.64 65.65 65.51 65.01 64.63 64.32 65.05 64.96 64.48 64.14 63.36 62.80 60.08 57.54 56.16 55.79 55.06 53.94 49.63 49.81 49.22 45.93 45.32 44.50 44.87
58.91 59.87 61.44 62.89 64.63 65.79 66.59 66.81 66.42 66.18 66.06 65.60 64.67 63.67 63.74 62.54 61.81 61.53 59.74 59.27 58.24 56.43 55.96 53.88 49.96 50.42 48.68 44.64 45.08 43.93 43.30 43.99
60.22 60.92 60.89 61.98 63.22 64.60 65.33 65.87 65.75 65.85 65.93 65.77 64.42 62.91 62.18 61.31 60.70 59.59 59.09 58.15 55.07 53.33 50.68 49.85 47.70 45.07 44.90 43.08 43.11 43.60 42.58 42.31
59.99 61.55 61.66 61.95 62.63 63.51 64.11 64.63 64.77 65.34 65.43 65.01 62.98 59.82 59.27 57.65 55.55 53.90 53.43 52.45 50.94 49.74 48.01 46.79 45.46 44.33 43.32 43.35 43.06 42.93 42.84 42.85
57.97 60.06 61.64 62.36 62.83 62.99 63.46 63.74 64.32 64.32 63.86 62.97 59.14 57.49 56.34 55.05 53.87 52.23 50.59 48.82 47.01 46.68 46.84 44.69 43.55 42.69 42.86 43.02 42.80 42.72 43.11 43.41
57.80 58.89 60.64 61.73 62.44 63.21 63.66 61.64 61.45 60.49 57.75 55.69 54.20 54.70 54.71 53.42 52.31 51.42 49.94 48.23 47.23 45.80 44.36 44.05 43.46 43.47 43.44 43.08 43.51 43.41 42.03 42.12
57.57 59.63 61.16 61.74 62.23 62.45 61.13 60.37 60.41 60.25 58.04 55.95 55.34 55.07 54.63 52.80 51.62 51.07 50.39 48.74 48.51 47.22 46.37 45.63 45.09 44.81 39.78 39.54 40.93 41.99 41.73 41.66
56.99 58.38 58.68 58.85 59.77 59.27 57.96 57.64 57.73 56.32 54.97 53.64 52.33 51.32 49.92 49.12 48.99 48.53 48.21 47.68 48.03 46.44 45.46 45.18 45.58 44.59 39.18 39.21 38.39 42.51 42.53 43.00
55.24 55.51 55.68 56.49 57.16 56.44 56.25 55.91 54.72 53.27 51.90 50.61 50.22 49.51 48.73 48.65 48.55 47.43 47.02 47.14 46.68 46.18 44.44 43.28 43.74 43.79 39.30 39.05 37.04 40.98 41.20 41.67

GFSFLT1_sfc_wetblb_054.txt.gz
Wetbulb
58.61 58.17 57.72 57.54 57.17 57.19 57.26 56.54 56.92 56.33 55.92 57.69 58.64 60.00 60.69 60.62 59.89 61.79 63.36 63.44 64.09 63.20 62.57 62.27 60.72 59.52 58.71 57.79 56.44 56.55 54.69 52.28
58.82 58.17 57.96 57.37 57.48 58.16 57.26 57.35 57.67 56.96 58.60 57.90 57.88 58.34 58.87 59.10 60.48 62.77 63.48 63.42 63.60 63.16 62.48 61.65 60.34 59.24 58.07 58.07 56.37 54.62 52.13 51.26
58.47 58.11 58.00 57.83 57.57 58.20 58.37 58.46 57.08 57.97 59.93 60.19 58.48 58.76 59.98 60.15 60.97 62.73 63.76 63.77 63.65 63.22 61.70 60.65 59.72 59.20 58.58 57.16 55.91 52.62 51.90 52.02
57.75 58.23 57.84 58.84 59.27 59.61 59.89 60.31 59.82 60.36 61.27 61.44 60.61 59.22 59.28 59.55 60.12 61.89 62.80 62.96 62.76 62.42 61.96 60.81 59.97 59.28 57.30 56.85 55.88 53.55 50.34 52.08
58.76 58.56 58.95 59.07 60.54 61.26 61.47 61.64 61.66 61.78 62.64 61.62 60.30 58.27 56.24 58.21 59.06 61.47 62.15 63.33 62.71 62.49 61.69 61.10 60.10 58.81 57.19 56.50 55.90 54.46 53.75 50.24
58.82 58.66 59.30 60.76 61.16 61.07 61.49 62.02 62.02 62.28 62.90 62.90 61.07 59.48 58.82 58.70 60.03 60.03 62.05 62.75 62.50 61.73 60.86 60.21 58.99 58.14 57.10 56.07 54.55 54.39 53.52 51.61
60.08 60.54 60.21 60.24 60.94 61.53 61.74 61.89 61.91 62.38 63.15 63.31 62.19 60.67 59.82 58.66 59.57 59.98 61.48 61.76 61.24 61.04 60.72 59.90 58.65 57.40 57.19 56.35 55.58 54.31 52.54 50.80
59.09 59.89 60.24 60.47 59.90 60.54 61.81 61.92 61.65 62.24 62.28 62.95 62.26 62.44 62.06 60.17 60.05 60.62 60.75 60.79 60.42 60.32 59.60 58.27 57.68 57.32 56.07 55.02 54.21 52.36 50.58 46.97
58.49 59.87 60.87 61.21 61.62 61.86 61.71 61.71 61.57 62.40 62.18 62.84 62.70 62.69 62.73 61.71 61.30 60.87 61.04 60.91 60.56 60.51 59.48 58.62 56.47 55.35 54.64 53.41 50.67 48.31 48.32 47.81
58.52 59.57 60.55 61.70 62.04 62.44 62.81 62.57 62.02 62.06 62.23 62.16 61.49 61.89 61.36 61.56 61.72 62.04 61.04 61.35 60.30 58.56 58.38 55.31 54.41 54.19 53.21 49.86 48.64 48.44 47.54 46.27
57.67 59.21 60.48 61.88 63.06 63.65 64.12 63.82 63.43 63.25 62.33 62.12 61.74 61.76 61.14 60.73 59.90 62.44 61.89 59.65 57.48 56.23 55.61 55.06 53.96 53.41 49.53 48.39 47.34 45.10 44.75 44.44
58.17 59.41 60.86 61.95 62.87 63.68 64.70 64.46 64.25 63.77 62.41 62.08 61.66 60.50 61.06 62.22 62.35 61.24 61.44 59.10 57.99 56.42 55.35 54.68 52.40 49.07 48.71 45.72 44.69 43.84 43.03 43.28
59.18 59.60 60.05 60.71 62.47 63.85 64.62 64.84 64.86 63.67 63.33 62.49 62.44 63.00 62.73 61.62 60.37 59.26 58.68 57.32 56.79 55.63 53.27 50.39 48.52 47.06 44.89 43.84 43.05 43.32 42.98 42.28
58.99 59.97 60.02 60.62 61.54 62.69 64.35 64.78 64.81 63.64 62.00 61.85 61.85 61.09 58.58 56.57 55.19 54.29 53.43 52.01 50.29 49.61 48.04 46.95 44.98 45.02 43.27 43.21 42.95 42.28 42.17 41.97
58.05 59.48 60.28 61.04 61.74 62.59 63.25 63.71 63.90 62.06 59.70 59.48 58.17 56.56 54.89 53.67 52.22 50.72 49.16 48.32 47.15 46.84 46.40 45.29 44.20 43.77 43.23 43.12 42.56 42.02 42.17 42.60
56.04 58.12 60.18 61.15 61.55 62.19 62.70 61.82 60.11 58.86 57.85 56.23 54.68 54.27 53.33 51.98 50.41 48.93 47.88 47.06 46.22 44.98 44.12 43.41 43.32 42.99 42.98 42.74 42.69 42.15 42.06 42.21
54.72 57.49 59.27 60.37 61.09 61.45 60.72 59.35 58.37 57.86 55.97 54.75 54.76 53.70 53.28 52.12 49.90 48.53 47.34 45.98 45.06 44.60 44.14 43.37 42.38 43.68 40.19 40.14 41.71 41.67 41.74 41.19
55.56 57.48 59.33 60.72 61.26 60.53 59.52 59.13 58.80 56.48 54.74 54.67 53.80 51.96 50.40 49.01 48.83 47.71 46.24 45.86 45.78 45.25 44.29 43.87 43.77 42.65 39.22 39.61 38.82 41.36 40.69 40.27
56.83 58.39 58.55 58.94 59.05 58.39 57.53 56.85 55.08 53.61 52.11 50.99 50.36 49.14 47.89 47.84 47.45 46.15 45.28 44.97 44.57 44.62 43.71 42.95 42.82 43.04 39.16 39.16 37.85 38.86 37.02 37.71

GFSFLT1_sfc_wetblb_057.txt.gz
Wetbulb
53.68 53.62 53.90 53.79 54.27 55.26 55.09 55.79 55.50 55.91 56.35 55.47 55.09 55.67 56.08 57.91 57.61 58.55 61.06 61.21 61.45 60.87 60.43 60.25 59.16 57.61 56.55 55.49 54.24 54.36 53.15 50.17
54.25 53.99 54.39 53.99 54.23 54.54 54.49 53.81 53.20 53.66 53.11 52.87 53.39 54.16 55.08 57.37 57.88 58.31 60.54 61.25 62.23 61.61 60.85 59.81 58.74 57.23 56.26 55.59 54.01 53.27 51.33 49.89
54.74 54.06 54.36 53.64 53.68 54.68 53.77 53.94 53.01 52.73 53.02 54.17 55.21 55.63 56.18 57.47 57.92 58.26 61.35 61.64 61.88 61.30 60.57 59.40 58.46 57.07 56.23 55.27 53.88 51.51 50.42 49.01
53.77 53.44 53.65 53.83 54.07 54.46 53.83 54.74 54.03 54.41 54.96 56.34 56.55 55.46 56.24 57.14 57.15 56.85 61.05 61.38 61.49 61.39 60.48 59.24 58.38 57.53 56.31 54.83 53.72 51.46 49.05 49.33
54.40 53.94 53.28 53.70 54.16 55.75 55.52 56.24 55.47 55.18 56.96 57.24 56.79 55.51 54.32 56.91 57.47 57.66 59.73 60.97 61.19 61.55 60.91 59.39 58.31 58.15 55.84 55.13 54.70 52.24 50.06 49.29
54.67 54.24 54.87 55.63 55.60 55.65 56.21 56.97 55.59 55.69 56.13 58.23 57.93 57.63 56.46 56.24 57.48 56.47 59.29 60.68 61.06 61.04 60.52 59.28 58.06 57.69 55.94 54.95 53.56 52.38 53.21 51.08
55.84 56.49 56.17 55.97 57.50 57.37 57.65 57.44 57.47 57.02 57.77 58.62 59.04 58.78 56.06 54.86 54.80 55.72 58.45 59.67 60.40 60.22 59.53 58.09 57.51 56.28 55.51 55.29 55.41 54.31 54.26 51.44
55.58 55.65 56.33 56.47 56.81 58.03 58.44 58.62 58.45 59.38 59.15 59.56 59.70 59.62 59.07 57.03 56.54 56.43 57.57 58.96 58.37 59.19 59.75 57.25 56.22 56.28 56.81 55.80 54.64 53.22 52.10 47.78
56.17 56.32 56.67 57.36 57.82 58.12 58.46 58.65 58.85 59.55 59.46 59.87 60.47 60.75 60.62 59.36 58.80 57.97 58.76 59.26 59.82 59.97 59.23 58.39 57.45 56.79 55.25 54.24 53.64 51.25 48.85 47.88
56.71 57.03 57.06 57.26 58.14 58.13 58.72 59.03 59.28 59.74 59.54 59.54 60.50 61.28 59.38 60.27 59.76 60.26 59.31 59.21 58.88 58.31 58.33 57.58 56.50 55.63 54.85 52.47 49.91 48.28 47.98 46.59
54.55 57.83 57.95 58.14 58.25 58.43 58.74 59.77 59.70 59.92 59.94 59.82 59.87 60.52 60.52 59.59 59.22 58.95 59.29 57.40 55.58 55.40 55.08 55.72 54.75 53.51 50.56 49.34 48.05 47.28 46.20 45.08
52.43 53.36 56.91 59.45 59.84 59.42 58.94 58.99 59.62 59.81 60.13 59.93 60.29 60.28 60.45 59.38 57.82 56.99 58.42 56.30 55.98 55.72 55.35 53.88 52.80 50.20 48.70 47.31 45.65 45.16 44.62 43.82
53.28 53.96 54.74 55.72 59.49 59.99 60.10 60.28 60.08 60.39 60.51 60.17 59.96 59.74 59.28 58.85 58.82 58.44 58.81 57.34 56.40 55.43 54.41 52.87 49.41 47.68 46.29 45.24 44.45 43.69 43.41 42.75
53.83 54.72 55.09 55.78 57.36 60.15 61.07 61.52 61.17 61.94 61.33 60.59 59.89 59.85 59.66 58.56 55.94 54.65 54.22 52.90 51.54 50.92 49.78 48.36 46.76 45.45 44.45 43.95 43.74 43.54 43.00 42.66
53.64 54.35 55.05 55.89 57.22 59.09 59.97 59.56 61.83 61.36 60.64 58.99 57.56 56.20 55.10 52.79 51.55 51.22 50.39 49.60 48.35 47.53 47.08 45.77 45.16 44.09 43.77 43.73 42.98 42.13 41.99 42.13
54.47 54.43 55.18 56.23 57.14 58.28 57.24 57.31 57.87 57.63 56.42 55.60 53.56 52.78 52.04 50.74 49.17 48.20 47.70 47.38 46.83 45.69 44.61 43.95 43.75 43.41 43.16 42.51 42.49 41.59 41.52 41.80
53.83 56.23 56.99 57.43 58.40 57.26 56.27 55.17 54.54 54.84 53.82 53.12 52.67 51.92 50.41 49.08 47.66 46.85 45.98 45.20 44.57 44.32 43.81 43.01 42.14 42.63 39.30 40.05 40.85 41.73 42.06 41.50
49.80 55.55 57.51 57.79 58.33 57.22 55.68 55.07 54.63 53.46 52.87 52.72 52.46 51.44 49.19 48.21 47.09 45.87 44.67 43.26 42.59 41.42 40.80 40.78 40.13 39.81 39.37 39.79 39.42 41.42 40.21 38.11
54.87 55.16 56.49 58.19 58.06 57.16 56.56 54.84 53.23 52.90 51.50 49.89 49.50 48.00 47.37 46.57 44.50 43.45 42.39 42.06 41.33 41.29 42.75 43.13 42.51 41.76 38.82 38.65 36.95 36.58 35.83 34.72

GFSFLT1_sfc_wetblb_060.txt.gz
Wetbulb
52.28 53.49 54.58 54.83 55.63 56.23 55.50 54.95 55.00 54.97 55.26 56.08 56.35 56.34 57.21 57.62 57.41 57.26 59.21 59.39 60.61 59.36 59.16 58.49 58.90 57.77 55.65 54.56 53.59 53.18 52.46 51.15
52.52 52.48 53.20 54.09 54.96 54.27 54.71 53.67 53.96 55.37 54.96 54.34 54.23 54.18 55.80 56.89 57.16 57.69 58.64 59.53 60.20 59.49 58.83 59.33 58.36 57.33 55.86 54.64 53.00 52.60 52.04 49.63
51.89 52.04 52.05 52.72 53.68 54.00 54.31 54.12 53.98 55.13 55.23 54.62 54.20 55.17 55.70 55.45 57.41 57.32 57.17 59.87 60.24 60.20 59.65 58.73 57.67 56.57 54.69 54.25 53.18 51.59 51.51 48.38
51.33 51.71 51.59 52.16 53.00 53.47 54.10 53.49 53.40 53.92 53.84 53.29 52.81 53.15 54.09 53.83 54.81 55.38 56.86 58.46 59.80 60.16 59.99 59.17 57.94 57.03 56.02 54.11 53.40 51.74 50.56 48.55
52.25 51.89 51.77 51.81 52.72 53.83 54.27 53.76 53.26 53.84 53.25 52.77 52.90 52.57 51.94 53.80 54.15 55.16 56.27 59.31 59.79 60.25 60.20 59.47 58.42 57.73 56.56 55.85 54.84 52.72 51.77 50.42
52.61 52.49 52.73 52.95 53.18 53.43 53.07 53.59 53.08 53.70 53.00 53.36 53.32 52.97 53.51 54.53 55.47 55.96 56.06 57.38 59.94 60.28 60.00 59.14 58.31 57.94 57.16 55.89 54.17 53.86 53.31 52.56
53.52 53.82 53.66 52.94 53.61 54.01 52.83 52.72 54.06 53.10 53.37 54.11 54.49 54.12 54.54 54.20 54.27 55.35 56.21 56.89 58.42 59.82 60.22 59.70 59.09 58.33 57.08 56.23 56.13 54.23 52.65 52.50
53.17 52.73 52.55 52.59 52.75 53.76 53.88 53.27 53.79 53.55 53.37 53.88 56.00 55.80 55.90 56.32 54.71 54.65 55.18 56.02 57.72 58.70 59.26 58.94 58.48 58.20 57.52 57.35 55.79 53.50 52.54 51.87
53.98 53.73 53.49 53.55 53.60 53.68 54.40 54.32 54.46 54.55 53.74 53.87 55.14 56.84 57.73 58.16 57.01 55.92 55.65 56.54 57.96 59.25 58.96 58.76 57.91 57.51 57.19 56.23 54.51 53.35 52.12 50.80
54.36 55.25 54.46 54.42 54.77 54.98 55.21 55.47 55.59 56.04 55.04 54.56 55.36 56.95 57.59 58.59 59.62 57.05 56.75 57.87 57.97 57.46 58.00 58.69 57.31 57.07 57.11 54.91 52.64 49.07 49.13 48.42
55.17 55.49 55.65 55.95 55.91 56.38 56.81 57.14 57.10 57.34 57.60 57.48 57.59 58.13 59.09 59.32 58.78 57.66 58.44 57.86 57.08 56.25 56.87 57.91 57.01 56.63 55.09 52.95 50.55 48.34 47.75 46.38
55.15 55.88 56.63 56.84 57.39 57.12 57.23 57.65 57.81 57.95 58.73 58.86 58.49 58.81 59.43 59.19 58.88 57.92 58.27 57.51 55.75 54.36 55.63 55.75 55.37 53.67 51.58 49.08 47.57 46.92 45.77 44.65
53.44 55.54 56.64 56.57 56.71 57.32 57.53 57.81 58.03 58.61 58.96 58.91 58.78 59.01 59.47 58.99 58.94 58.52 58.00 56.35 55.17 54.69 54.65 53.11 51.59 49.72 48.22 46.62 45.81 45.59 44.42 43.61
50.39 51.28 52.89 56.07 57.11 57.28 57.39 57.88 58.01 59.06 59.70 59.63 59.27 59.14 59.31 59.64 58.88 59.63 59.36 55.67 54.32 53.58 53.57 52.07 49.01 47.30 45.67 45.26 44.49 44.33 43.97 43.69
51.60 51.87 52.86 54.00 55.43 57.45 58.15 57.78 58.05 59.19 59.88 59.41 58.91 58.87 59.06 58.51 56.73 54.64 54.02 53.36 51.15 50.32 49.55 48.24 46.35 44.97 44.78 44.52 44.28 43.66 43.17 42.64
51.81 52.30 52.32 54.76 56.66 56.88 58.07 58.96 59.16 59.68 59.42 59.24 58.40 57.96 55.55 53.46 52.62 50.91 49.39 48.93 47.93 47.00 46.44 45.71 44.50 44.19 44.18 43.72 43.28 42.04 41.65 41.47
52.49 53.31 53.81 56.57 56.42 55.36 55.21 55.33 58.19 59.44 58.29 56.43 53.99 53.09 51.54 50.33 49.21 48.92 47.48 46.40 46.48 45.19 44.59 44.46 44.02 43.65 39.32 40.07 41.29 41.04 41.26 41.21
51.80 53.42 54.88 56.87 55.91 55.20 54.22 53.91 55.21 55.32 54.41 53.32 51.99 51.13 49.05 48.23 47.84 46.69 45.13 44.48 44.46 44.55 42.94 42.62 41.98 41.45 38.84 39.29 38.95 40.91 41.25 39.94
49.49 54.22 54.83 56.70 55.85 54.46 53.68 53.54 53.22 52.94 52.68 51.64 50.49 49.42 47.40 46.69 46.09 44.89 45.09 44.25 42.18 41.70 41.24 40.30 39.42 39.38 38.87 38.03 37.11 36.60 33.50 32.73

GFSFLT1_sfc_wetblb_063.txt.gz
Wetbulb
51.25 53.64 54.95 55.20 56.17 56.41 56.10 56.20 56.30 56.15 55.94 56.06 56.35 56.69 56.48 56.94 56.84 58.22 58.98 58.84 59.16 57.75 57.58 57.58 57.43 56.40 55.43 54.37 53.15 52.09 50.92 49.28
51.43 52.86 54.46 54.61 55.40 55.47 55.01 55.09 54.52 54.39 54.03 54.60 54.81 54.90 55.61 56.14 56.49 57.49 58.62 58.53 59.72 58.59 57.93 57.45 57.54 56.88 56.13 54.44 52.28 51.74 51.08 49.76
51.14 50.51 52.01 52.45 54.50 54.93 54.23 53.47 53.13 53.54 54.26 54.54 53.75 55.65 55.40 55.66 56.69 57.00 57.35 58.17 58.39 58.91 58.24 57.93 57.90 56.66 55.05 53.33 52.28 51.03 51.22 48.24
50.67 50.66 50.64 52.47 53.45 53.85 53.97 52.88 53.19 53.74 53.60 54.73 52.43 53.27 53.98 53.47 53.79 55.27 55.85 56.67 58.12 58.85 58.66 58.07 57.52 56.86 55.51 53.68 52.77 52.24 50.81 49.56
51.45 50.74 50.07 51.12 52.35 53.63 53.42 53.46 53.01 53.78 53.84 51.61 51.38 51.43 51.85 53.20 54.15 53.01 53.88 56.53 57.21 58.26 58.71 58.48 57.66 57.18 55.23 54.70 54.86 53.17 52.43 49.98
51.30 50.87 51.06 51.15 51.93 52.92 52.95 53.21 52.90 53.34 53.60 52.72 52.39 51.37 52.38 52.34 51.55 51.52 52.47 54.24 56.88 57.79 57.75 57.32 57.54 57.26 57.06 55.83 54.23 53.12 53.45 52.33
52.69 52.32 52.04 51.28 51.85 52.43 52.72 52.91 52.52 52.92 53.05 52.18 51.95 51.85 51.87 51.72 50.55 51.56 53.03 53.67 54.60 56.42 57.77 57.66 57.95 57.71 57.00 56.66 56.34 55.03 54.54 54.07
52.63 51.56 51.21 51.44 50.96 51.68 52.06 52.57 52.34 52.49 52.40 52.40 51.78 52.23 52.21 52.04 52.14 52.59 52.76 53.58 54.15 55.20 56.84 57.71 58.01 58.01 57.81 57.10 56.19 55.97 54.18 53.07
52.98 52.63 52.25 51.87 51.63 51.71 52.11 51.69 52.15 52.95 52.16 52.02 52.53 52.67 53.43 53.72 54.12 53.67 53.65 54.29 54.98 55.37 55.96 57.57 57.94 57.63 56.58 56.30 56.10 54.73 53.62 53.11
52.80 53.51 52.94 52.43 52.26 52.18 52.29 51.83 51.90 53.01 52.34 52.25 52.39 53.11 54.06 53.92 54.97 55.47 55.40 54.40 55.25 55.33 56.12 56.74 57.02 56.98 56.98 56.44 56.75 55.78 52.96 51.80
53.46 53.71 53.48 53.40 53.10 53.08 53.41 53.66 52.18 52.62 53.50 52.43 52.43 52.75 53.95 55.63 56.26 57.04 57.18 56.63 56.80 57.08 56.21 56.64 57.34 57.04 56.79 57.43 56.58 52.64 50.30 48.60
53.32 54.28 54.70 54.39 54.32 53.68 53.24 53.75 53.99 53.55 54.12 53.89 52.55 52.63 53.61 55.45 56.74 57.76 58.01 57.34 57.17 56.69 56.91 56.92 57.19 56.87 55.24 54.29 51.85 49.37 48.34 46.20
53.16 54.46 55.11 54.86 54.43 54.41 54.24 54.12 54.35 55.26 55.91 56.02 55.76 56.09 57.45 57.73 58.17 58.70 59.13 58.07 57.19 57.05 55.58 55.48 54.96 54.05 52.59 50.89 48.98 47.78 46.16 45.20
50.18 52.74 54.34 54.73 55.15 55.51 55.22 55.46 55.66 56.41 57.41 57.73 57.93 57.97 58.50 58.61 58.75 59.45 58.95 58.39 56.80 55.22 54.51 53.39 52.63 50.56 49.75 48.16 47.28 46.13 45.50 44.98
47.96 50.59 53.21 54.83 55.32 55.68 56.18 56.19 56.57 57.10 57.54 57.97 57.73 58.11 58.58 58.60 58.93 59.13 58.87 57.97 55.89 55.13 54.46 52.26 49.93 47.75 47.01 45.65 45.20 44.47 43.91 43.79
49.08 49.57 50.27 52.19 54.30 55.31 55.88 56.06 56.54 57.06 57.28 57.62 57.79 58.26 58.71 58.76 58.01 57.26 53.91 54.96 54.50 53.07 49.19 47.02 46.56 46.54 46.04 44.84 44.61 43.49 42.88 42.18
49.65 50.76 51.35 52.46 54.76 54.96 54.28 55.28 55.66 56.89 57.39 57.37 57.96 58.05 57.33 56.86 55.36 51.69 49.74 48.63 49.36 47.19 46.45 45.46 45.49 45.82 39.99 40.63 42.22 42.30 41.88 41.35
48.82 50.32 52.53 54.07 56.06 55.17 54.88 56.09 56.70 56.44 56.89 57.40 57.77 56.25 53.62 51.83 50.17 49.46 47.49 47.33 47.48 45.76 44.44 44.61 44.82 43.21 38.96 39.29 39.17 41.59 41.26 40.50
47.89 50.02 52.26 53.97 53.82 52.93 54.68 56.56 56.98 57.14 56.83 55.31 53.74 52.17 50.91 50.00 48.90 46.88 46.07 45.83 44.36 43.45 43.99 44.04 43.20 41.08 38.09 38.04 36.99 37.35 34.70 33.04

GFSFLT1_sfc_wetblb_066.txt.gz
Wetbulb
50.67 52.67 53.57 55.76 55.89 56.75 56.97 57.20 57.02 57.14 57.04 57.30 57.22 57.08 57.23 58.96 58.88 57.92 57.52 57.61 57.59 56.97 56.49 56.01 55.75 55.42 54.38 53.73 52.61 52.03 51.51 50.15
50.81 53.29 54.57 54.21 56.01 55.84 55.98 56.00 56.00 56.08 55.92 55.66 55.56 55.06 55.98 56.72 57.28 58.15 58.19 58.14 58.14 57.66 57.27 57.14 57.07 55.70 54.87 54.26 52.85 52.14 51.19 50.04
50.27 50.79 53.29 54.12 54.44 55.03 55.19 55.22 54.91 55.19 55.74 56.50 56.03 56.20 55.22 55.78 56.65 56.96 58.41 59.01 59.43 58.85 57.79 57.30 57.14 56.84 56.06 54.36 52.93 51.38 51.54 49.32
50.81 50.47 51.41 52.97 53.28 54.42 54.20 54.14 54.12 54.04 54.71 54.64 53.98 55.76 54.26 53.70 54.19 55.28 56.25 57.46 58.48 58.50 58.42 57.53 57.38 56.92 55.54 53.63 52.82 52.42 50.77 49.73
50.79 50.63 50.06 51.20 52.84 54.00 54.22 53.52 52.87 53.11 52.75 51.95 51.39 54.15 53.83 53.88 53.93 54.37 55.50 56.76 56.97 57.61 58.26 57.82 57.09 56.66 56.00 55.17 54.14 52.51 51.63 49.89
50.49 50.22 50.43 51.59 52.43 53.21 53.93 53.75 52.31 53.46 53.16 52.24 51.80 50.89 54.55 53.15 53.30 52.97 53.04 54.42 56.05 56.13 56.56 57.01 57.04 56.94 56.58 55.30 53.78 52.92 52.73 51.86
51.83 51.57 51.10 50.24 50.60 51.93 52.78 52.94 52.67 52.65 52.95 51.78 51.32 51.24 51.05 51.15 49.56 49.95 50.81 51.35 52.67 54.61 55.90 55.88 56.08 55.52 55.56 55.76 55.22 53.90 54.10 53.77
51.31 50.17 50.10 50.04 49.84 50.98 52.20 51.91 51.74 52.37 52.24 52.31 51.29 51.44 51.26 51.27 51.30 50.08 49.99 51.01 51.64 52.54 54.29 54.80 55.22 55.72 55.68 55.76 54.40 53.69 53.85 53.71
51.88 51.41 51.01 50.70 50.42 50.97 51.40 51.70 51.93 52.05 52.25 51.96 52.11 51.71 51.82 51.76 51.14 51.83 50.74 51.05 51.28 52.11 52.99 54.57 55.12 55.48 55.24 54.60 54.65 55.21 55.23 54.65
51.97 52.57 51.72 51.24 51.10 50.95 51.35 51.61 52.04 52.50 51.75 52.30 51.91 52.03 51.47 51.72 51.49 52.25 51.68 51.80 52.67 52.38 52.92 53.11 54.23 54.78 54.78 55.82 56.16 55.45 55.41 54.73
51.68 52.87 52.71 52.70 52.38 51.97 51.65 52.32 52.27 52.57 52.59 52.05 51.99 51.47 51.64 52.35 52.20 52.21 54.04 53.89 53.50 53.17 53.47 53.76 54.13 54.34 54.74 55.84 56.20 56.42 56.40 54.63
51.30 52.77 53.83 53.63 53.17 52.28 51.70 51.76 51.93 52.18 53.13 53.24 52.22 51.56 51.59 52.40 53.21 53.56 54.73 56.18 56.53 55.99 56.36 56.47 56.50 56.94 55.52 55.64 56.44 54.27 52.82 51.58
50.47 52.43 52.71 52.98 52.90 52.56 51.87 52.09 52.00 52.29 53.24 54.05 52.67 52.01 52.49 52.30 52.90 54.37 55.49 55.57 57.23 57.38 57.69 57.03 56.64 56.30 56.12 55.64 53.91 50.87 50.80 48.34
48.40 50.92 52.48 52.92 52.90 53.13 52.77 52.54 52.69 53.25 52.90 53.47 53.61 52.55 52.49 52.67 53.45 54.09 55.11 55.63 56.26 56.70 57.10 56.64 55.98 54.73 53.71 53.18 52.42 50.45 49.15 47.85
45.76 48.42 52.01 53.41 53.74 53.55 53.55 53.38 53.45 53.59 53.80 53.63 53.55 53.30 53.24 53.70 54.24 54.54 55.77 57.19 57.68 57.40 57.23 56.66 54.76 52.98 51.50 50.09 49.46 46.86 46.01 45.46
45.90 46.75 50.25 52.47 53.12 53.77 54.36 54.18 53.91 54.22 53.70 54.21 54.05 54.99 55.04 55.11 55.23 55.80 55.47 57.33 57.90 57.81 55.58 52.08 49.50 49.21 48.25 47.53 46.91 45.50 44.37 43.57
46.25 48.09 48.48 50.24 52.56 53.43 53.89 54.37 54.48 54.76 54.45 54.46 55.54 55.89 56.15 56.11 56.78 57.27 56.92 56.77 56.66 54.77 52.48 51.86 47.85 47.51 44.57 42.76 44.66 44.37 43.34 42.28
46.32 48.10 50.30 50.37 50.65 52.66 53.15 53.91 54.45 54.86 54.89 55.27 55.71 56.08 56.35 56.74 57.27 56.10 53.83 53.67 51.61 49.44 48.02 48.09 45.66 43.66 41.47 41.95 40.42 43.14 41.89 41.08
47.79 47.20 49.17 51.17 51.88 52.89 52.57 53.30 53.63 54.35 54.78 55.16 55.57 55.65 55.64 53.05 51.72 51.16 49.24 47.76 48.09 46.98 46.64 44.85 43.72 41.12 39.76 39.58 39.20 38.75 36.45 35.35

GFSFLT1_sfc_wetblb_069.txt.gz
Wetbulb
55.02 55.78 55.37 56.13 57.33 58.37 58.45 58.82 58.15 58.69 58.87 58.91 59.49 60.67 61.18 60.87 60.07 59.36 58.99 59.77 59.48 59.54 59.10 58.66 58.97 58.90 58.32 57.85 56.97 56.83 55.51 53.96
54.98 55.61 56.31 55.51 56.13 57.18 57.84 57.07 57.63 57.68 57.76 58.80 56.91 56.59 57.52 59.19 59.17 59.20 58.11 58.85 59.16 58.73 58.54 58.94 59.16 58.32 58.19 58.64 58.15 56.68 56.11 55.65
53.88 54.93 55.06 55.29 54.84 56.59 56.94 56.99 56.72 57.35 57.98 57.97 58.05 58.13 57.96 57.88 58.97 58.85 58.44 58.88 59.37 59.11 58.15 58.92 58.66 58.83 58.77 57.76 57.65 56.80 57.26 55.50
52.55 53.39 54.34 54.65 54.46 54.46 56.16 57.13 56.50 56.92 57.24 56.31 56.82 55.93 56.09 56.43 56.87 57.27 58.13 58.52 59.40 59.12 58.99 59.91 59.66 59.96 59.00 58.59 58.01 58.02 56.96 55.66
54.19 53.19 53.08 53.39 54.37 55.22 56.97 56.99 56.82 57.97 57.23 55.26 56.06 55.19 53.58 55.44 56.20 57.13 57.48 58.60 59.32 60.04 60.04 59.91 59.44 60.21 59.94 59.04 59.80 59.05 58.59 56.71
54.60 53.71 53.70 53.93 54.46 54.78 57.03 57.22 57.07 57.19 57.31 57.14 56.32 55.87 56.15 55.58 54.94 55.55 56.74 57.09 58.00 58.70 59.84 59.35 59.87 59.30 59.51 60.54 59.24 58.50 58.43 58.01
55.59 55.67 54.87 53.74 54.39 54.08 56.26 55.82 55.98 57.02 56.32 56.66 56.66 56.93 57.06 54.28 54.30 55.36 54.88 55.74 57.13 57.89 58.45 60.40 60.88 60.64 60.80 60.73 60.38 59.92 59.23 58.69
55.03 54.33 53.50 53.35 53.15 52.85 54.73 54.77 54.59 55.88 56.22 55.62 55.83 56.18 57.08 56.76 55.22 56.00 54.31 54.47 55.24 57.06 59.11 59.33 59.54 59.95 60.12 60.64 60.32 60.05 59.74 59.12
55.13 54.90 54.36 53.51 52.81 53.04 54.18 53.26 53.31 54.61 56.12 55.96 55.84 56.34 56.57 57.23 57.38 56.40 56.27 57.03 57.23 57.96 58.35 58.97 59.29 59.66 59.90 60.34 60.39 60.38 60.28 60.04
55.03 55.57 55.13 54.64 53.92 54.05 54.24 53.07 52.96 54.02 55.65 55.84 55.98 55.84 56.11 56.13 56.80 57.08 57.70 57.53 57.53 57.87 58.15 58.19 58.95 59.38 59.79 60.38 59.95 59.91 59.79 60.18
54.76 55.62 55.30 55.55 55.21 55.02 55.01 54.72 54.03 55.00 55.77 56.06 55.69 55.77 56.09 56.64 56.93 56.47 57.10 57.75 57.25 57.43 57.77 57.94 58.30 58.80 59.31 59.61 59.80 60.19 59.36 59.96
54.44 55.80 56.61 56.32 56.21 55.44 54.81 54.74 54.84 55.50 55.77 55.92 55.88 55.70 55.73 56.01 56.20 56.61 56.38 57.10 57.31 56.71 57.60 57.90 57.73 58.13 58.94 59.03 59.22 59.52 58.30 58.08
53.94 55.62 56.23 56.38 55.73 55.53 55.11 55.07 55.07 56.00 56.38 56.03 55.93 55.89 55.45 55.42 55.39 55.44 55.98 56.01 57.06 57.44 56.57 57.19 58.58 58.48 59.14 57.93 56.31 55.49 55.28 54.80
52.50 54.18 55.21 56.13 56.25 55.90 55.72 55.26 55.36 56.36 56.04 56.17 55.85 55.31 54.62 55.00 55.28 56.22 57.00 57.25 57.86 57.99 57.79 57.87 57.61 55.98 56.20 56.11 56.01 55.59 54.04 54.16
51.02 52.69 54.92 56.06 56.34 56.39 55.92 55.94 56.45 56.07 55.69 55.75 55.72 55.71 55.31 55.76 56.40 56.55 56.95 57.30 57.12 57.29 56.36 57.72 58.23 57.72 56.06 55.87 55.49 54.94 53.02 51.58
49.65 50.92 52.76 55.38 56.30 56.35 56.61 56.45 55.92 56.34 55.36 55.27 55.37 56.59 56.19 56.11 56.15 56.49 56.78 56.91 57.09 57.70 57.68 58.28 58.17 56.29 54.54 53.56 52.83 51.93 48.30 46.95
51.06 50.64 51.50 52.84 54.99 56.25 56.33 56.41 56.34 56.37 55.63 55.19 55.80 56.22 56.18 55.73 55.86 55.90 56.53 56.93 58.03 59.08 58.98 58.05 52.89 52.29 44.64 44.46 47.92 48.34 46.08 45.30
51.02 51.66 52.25 52.72 54.04 55.91 56.46 57.10 57.14 56.26 55.86 55.86 55.95 56.18 56.09 56.69 56.09 56.22 56.87 57.29 58.33 58.64 57.32 55.57 52.45 51.23 42.10 43.01 43.72 46.34 44.25 42.81
51.68 52.39 52.43 53.27 54.82 55.08 57.11 57.36 57.15 56.49 56.19 56.02 56.38 56.78 56.61 57.04 57.26 56.91 56.90 57.43 56.05 54.48 51.75 50.00 46.86 43.51 40.46 41.18 40.98 42.80 40.43 38.36

GFSFLT1_sfc_wetblb_072.txt.gz
Wetbulb
60.45 60.67 60.16 60.18 60.79 60.42 60.07 60.40 60.00 59.95 60.13 60.93 60.59 61.04 61.99 61.46 60.92 60.12 59.84 60.18 60.81 60.69 60.24 61.28 61.63 60.32 60.02 59.68 59.10 59.09 58.31 56.85
61.33 60.86 60.07 59.79 59.62 59.70 59.97 58.18 58.90 59.44 59.58 58.79 57.95 59.07 59.71 60.68 60.79 60.36 60.42 60.20 60.70 60.85 60.38 60.83 61.51 60.50 61.13 61.13 60.19 59.18 58.20 58.13
60.13 60.08 59.99 59.39 58.85 58.98 59.09 58.52 58.37 59.44 59.01 59.31 59.55 58.98 60.59 61.08 60.29 59.86 59.47 61.04 60.70 60.52 59.52 60.08 60.98 60.69 61.81 61.14 60.17 58.41 59.49 59.53
59.45 59.23 59.52 59.66 57.75 58.80 58.92 58.56 59.29 59.93 60.68 61.07 59.45 58.18 58.37 58.17 58.91 58.91 58.74 59.50 60.79 59.71 58.71 58.47 59.35 60.77 60.19 60.73 60.36 60.02 58.80 59.28
60.13 59.76 59.51 59.53 59.20 58.33 59.70 58.44 59.66 59.28 59.56 58.32 59.38 58.65 55.80 58.55 57.82 58.32 58.69 58.72 59.20 59.08 58.28 58.51 59.28 60.70 60.77 61.42 60.89 61.16 61.57 59.37
60.10 60.02 60.13 60.29 60.18 58.85 58.48 58.79 60.33 58.84 58.23 58.94 58.26 58.74 56.43 57.61 58.34 57.47 57.61 58.23 59.42 59.26 59.28 59.37 59.10 59.73 61.35 62.03 61.20 61.51 61.86 60.84
60.72 61.35 61.13 60.38 60.36 59.55 59.37 59.74 59.72 59.22 59.32 58.39 57.57 57.22 57.14 56.43 55.97 57.34 56.65 57.41 57.83 58.99 59.09 60.36 61.24 60.73 61.89 61.99 61.70 62.07 61.90 61.60
59.85 60.17 60.01 59.89 59.32 59.02 59.23 59.76 59.27 59.91 59.76 59.35 58.77 59.30 59.19 57.67 56.44 56.66 55.90 56.00 56.68 57.04 58.85 58.93 59.65 60.74 59.11 60.75 60.54 61.44 61.95 61.82
59.62 60.32 60.47 60.32 59.72 59.08 58.47 59.26 59.27 60.02 59.67 60.00 60.35 60.16 59.91 59.26 59.40 59.23 59.59 59.15 58.86 60.20 60.05 58.94 59.38 59.36 59.11 60.59 60.92 61.28 61.94 61.77
59.12 60.26 60.74 60.74 60.20 59.51 58.61 59.04 59.28 59.71 59.97 60.27 60.23 60.32 60.74 61.17 60.75 60.62 60.75 60.68 60.49 60.77 60.88 60.55 60.40 60.56 61.57 61.96 61.22 61.13 61.55 61.78
58.55 60.16 60.52 60.96 60.95 60.68 59.79 60.04 58.85 59.46 59.98 60.26 59.98 59.80 59.97 60.52 61.23 61.29 61.74 61.59 61.43 61.47 61.43 61.23 61.34 61.01 61.02 61.18 61.19 61.46 60.97 61.98
57.74 59.40 60.75 60.93 61.39 60.75 60.12 59.93 58.85 58.74 59.41 60.18 60.05 59.78 59.64 60.58 61.21 61.20 61.31 61.64 61.27 60.65 60.22 60.65 60.08 60.67 60.39 60.67 60.53 60.41 60.12 60.75
57.03 59.50 60.21 60.26 60.62 60.57 60.23 60.24 59.51 59.23 59.58 60.11 60.28 60.02 59.79 59.63 60.12 61.17 62.10 61.54 61.89 61.50 60.30 59.63 59.74 59.79 60.64 60.89 60.17 60.01 60.08 60.07
56.35 58.37 59.24 59.99 60.46 60.35 60.51 60.32 60.20 60.17 59.88 59.54 59.79 59.57 59.67 59.92 59.71 59.72 60.26 60.26 60.50 60.68 60.43 60.41 59.96 60.34 59.77 59.70 60.67 59.95 59.93 59.43
55.69 56.27 58.23 59.77 60.71 60.75 60.43 60.47 60.79 60.72 60.12 59.44 58.88 59.29 59.90 59.60 59.65 59.07 59.74 59.59 58.97 59.08 59.80 59.90 60.21 59.44 58.65 58.86 57.09 56.58 56.23 55.61
55.24 55.83 56.86 59.08 60.30 60.78 61.11 60.92 60.60 60.77 59.84 59.35 59.98 59.93 59.83 59.51 59.19 59.12 59.55 59.67 59.42 59.47 59.68 60.22 60.16 58.37 56.56 56.99 57.94 57.65 55.11 54.26
55.10 55.80 55.80 56.25 58.41 60.21 60.49 60.62 60.67 60.70 59.67 59.15 59.95 60.02 59.88 59.33 59.05 59.00 59.53 59.21 59.21 59.62 60.00 59.62 59.18 58.24 49.58 46.79 54.27 56.25 54.12 51.64
54.25 55.18 56.02 56.58 56.91 58.78 59.96 60.98 61.52 60.08 59.60 59.81 59.46 59.62 59.46 59.56 59.23 58.86 58.63 58.79 59.53 59.38 58.89 58.84 59.48 59.76 43.87 44.41 44.23 55.56 52.22 48.99
53.60 54.83 55.38 56.44 57.83 57.88 59.47 60.56 60.84 60.02 59.61 59.66 59.59 59.14 58.98 59.35 59.13 58.61 58.84 59.23 58.91 59.22 59.27 59.37 59.09 57.02 42.60 42.60 40.60 48.34 44.05 42.52

GFSFLT1_sfc_wetblb_078.txt.gz
Wetbulb
61.40 61.95 62.48 61.90 62.61 62.28 62.09 61.31 60.47 60.54 60.91 60.25 59.20 58.88 59.90 60.70 60.32 59.86 60.24 60.58 60.97 60.45 60.58 61.34 60.40 59.93 59.07 57.84 57.35 57.12 55.30 55.57
62.09 62.32 62.31 61.79 62.40 61.80 61.31 59.92 59.57 59.95 59.53 58.85 58.09 57.81 58.85 59.78 60.23 60.21 60.31 59.98 60.14 59.97 58.82 59.31 59.04 58.16 56.85 57.53 57.78 56.17 55.30 55.88
61.18 61.76 61.75 60.97 61.08 61.40 60.62 60.60 59.87 59.57 59.80 59.60 59.41 59.04 59.18 59.28 59.99 58.73 59.49 59.55 59.82 59.46 58.84 58.37 58.01 57.19 57.17 58.37 57.53 56.16 55.95 56.01
60.21 61.07 61.41 60.64 60.40 60.09 60.38 60.43 60.28 59.71 60.06 60.05 59.51 59.06 58.97 58.37 58.59 57.68 57.88 58.68 59.68 59.38 59.81 59.22 58.76 58.13 58.74 58.38 58.44 57.29 55.33 55.58
60.49 60.98 61.04 60.48 60.25 60.43 60.63 60.19 59.91 60.18 60.01 59.21 58.33 57.04 56.07 57.46 57.82 58.54 57.79 58.57 58.67 58.22 59.42 59.52 59.40 59.44 58.65 58.89 59.97 58.69 58.40 55.62
59.59 60.93 61.60 62.06 61.38 60.45 60.27 60.16 59.30 59.92 59.89 59.54 58.89 57.60 57.67 58.21 58.60 58.69 57.98 57.77 58.49 58.83 58.48 59.76 59.27 59.50 59.63 59.65 59.29 59.62 58.59 57.21
59.56 61.92 62.28 61.88 61.57 60.59 60.06 59.39 59.91 59.40 60.01 59.82 59.19 58.64 57.78 57.19 57.53 56.94 56.82 57.07 57.42 58.17 58.99 59.07 59.35 59.08 59.15 60.27 60.32 59.38 58.05 57.48
58.45 60.63 60.89 61.44 60.83 59.83 60.17 59.16 58.66 59.83 60.05 59.66 58.89 58.81 58.44 57.72 57.31 57.17 56.48 56.39 56.37 56.86 57.91 57.89 57.75 57.86 57.94 58.48 58.11 58.03 57.78 56.52
58.48 60.27 61.25 61.43 61.21 59.95 59.50 59.25 58.46 59.75 59.15 59.23 59.60 59.59 58.90 58.77 58.52 58.29 57.18 56.40 56.59 57.36 57.47 57.57 57.15 56.99 57.05 57.02 56.82 57.05 57.15 57.17
57.65 59.34 61.41 61.66 61.56 60.43 59.29 59.22 59.22 59.64 59.19 59.33 59.66 60.62 60.13 58.47 58.99 59.05 58.71 57.78 57.17 56.56 57.16 57.38 57.06 56.34 56.30 56.28 56.33 56.48 57.09 57.18
57.70 58.92 61.38 62.10 62.25 61.67 60.29 59.38 59.34 60.50 59.75 59.43 59.27 59.38 60.26 59.72 59.68 58.76 58.91 58.61 58.21 56.80 56.60 57.23 57.28 56.17 56.01 55.80 55.85 56.73 56.65 56.98
57.23 58.94 61.24 62.32 62.67 62.21 61.28 60.03 59.55 59.89 60.59 60.14 59.64 59.47 59.83 59.53 59.32 59.84 59.25 59.60 58.85 58.21 57.76 57.23 56.94 56.21 56.07 55.63 55.85 56.51 56.25 55.95
57.34 58.88 60.58 61.32 62.05 62.15 61.52 61.13 60.11 60.01 60.62 60.69 60.35 60.56 60.18 59.74 60.07 59.96 60.33 59.65 59.79 58.93 58.95 57.95 57.42 56.98 56.36 55.77 55.69 56.46 56.16 55.71
55.36 55.70 58.81 59.78 61.44 61.80 62.02 61.75 61.05 60.83 60.45 60.48 60.35 60.13 60.21 59.91 60.15 60.67 60.60 60.19 59.74 59.47 59.20 58.46 57.89 57.34 56.94 56.49 56.01 56.03 56.41 56.37
54.21 54.79 55.89 59.37 60.70 61.62 61.92 62.08 61.92 61.49 61.13 60.15 59.69 59.88 60.01 60.02 60.28 60.44 61.05 60.87 60.17 59.75 59.52 59.37 59.01 58.68 58.15 57.59 57.03 56.50 56.63 56.96
53.96 54.22 54.79 56.06 57.53 61.25 61.75 62.07 62.48 61.98 61.09 60.41 59.49 60.15 60.64 60.59 60.16 60.04 60.27 60.53 60.66 60.36 59.60 59.10 58.95 58.61 58.49 57.91 57.43 56.91 56.52 56.79
53.53 54.24 55.09 55.42 56.43 56.80 60.18 61.63 61.83 62.48 61.48 60.89 60.76 60.12 59.94 60.24 60.22 59.88 59.75 59.52 59.67 59.92 59.74 59.28 58.09 58.66 50.68 47.38 53.54 57.02 56.68 56.31
52.89 53.22 54.19 55.59 56.47 57.80 56.57 56.50 61.15 61.92 61.70 61.62 61.46 60.80 59.98 59.75 60.31 59.91 59.28 58.75 58.78 58.77 59.01 59.11 58.64 58.76 47.39 46.14 45.11 56.57 56.35 55.58
53.23 54.04 54.96 56.29 56.90 55.47 56.36 57.87 56.86 58.33 61.21 61.35 61.62 61.42 60.54 60.51 59.89 59.51 59.15 59.08 58.37 58.20 58.22 58.45 58.24 58.53 46.35 44.29 42.97 54.11 56.24 53.64

GFSFLT1_sfc_wetblb_081.txt.gz
Wetbulb
56.74 57.63 58.04 59.72 59.45 59.81 60.20 60.23 61.52 61.18 60.05 59.31 58.96 59.68 59.88 60.51 60.36 60.50 60.88 61.19 60.91 61.30 60.47 60.53 59.95 58.39 57.50 56.45 55.90 54.76 54.61 55.26
57.81 58.19 57.37 58.63 59.17 59.21 58.99 59.51 60.13 60.36 59.14 58.08 57.36 57.86 58.74 59.07 59.28 58.95 59.40 60.04 60.22 60.34 59.84 59.96 59.84 58.79 56.80 56.23 54.63 54.39 53.07 53.93
57.07 57.16 56.59 58.46 58.45 58.56 57.67 58.60 59.72 59.73 59.71 58.91 58.39 58.21 58.95 58.96 58.93 57.60 59.31 58.99 58.94 58.61 58.96 59.01 58.15 57.21 55.98 54.93 55.05 54.53 53.44 54.08
56.67 56.74 56.24 57.64 58.03 58.13 57.83 58.12 58.96 59.30 59.88 59.60 58.95 58.83 58.75 58.45 58.26 57.68 58.34 58.42 58.61 58.80 58.23 58.48 57.17 57.48 55.67 55.70 55.76 54.71 53.34 53.92
57.30 57.02 55.74 56.51 57.40 58.51 58.45 58.71 58.39 58.91 59.80 58.80 58.02 57.01 56.13 57.82 57.59 57.06 57.71 58.12 58.28 58.40 57.60 57.56 56.64 56.57 56.01 56.68 56.96 55.99 55.33 53.03
56.94 57.29 56.82 57.03 57.38 57.15 57.65 58.77 59.16 59.47 59.47 59.19 57.96 57.28 57.52 57.78 57.92 56.63 56.64 56.98 57.71 56.48 57.50 57.36 56.61 57.18 57.20 57.08 57.10 57.25 56.89 54.68
57.75 58.56 58.17 57.11 57.32 56.78 57.43 57.46 58.42 59.00 59.23 59.25 58.19 57.44 57.14 56.69 56.75 56.60 56.13 56.42 55.14 56.16 57.42 58.17 58.01 57.54 57.50 57.49 58.02 58.08 57.92 56.62
56.95 57.25 57.49 57.26 56.61 56.34 56.92 56.73 56.39 58.87 58.73 59.09 58.88 58.21 57.69 57.00 56.98 56.68 56.25 56.12 55.59 56.07 56.56 57.83 58.37 58.55 58.32 58.79 58.30 58.24 57.46 56.68
57.22 57.75 57.90 57.60 56.93 56.63 56.87 56.51 57.04 57.27 58.88 58.69 58.67 58.99 58.19 57.90 57.85 57.51 56.87 56.87 56.61 56.38 56.87 57.79 58.12 58.36 58.06 57.78 57.89 57.91 56.86 56.70
57.07 58.04 58.12 58.03 56.89 56.96 57.44 56.58 56.97 57.56 57.50 58.14 58.31 57.80 57.74 57.56 58.19 58.19 57.90 57.63 57.50 57.07 56.22 56.38 57.22 57.16 57.28 56.75 56.73 55.83 56.26 56.52
53.48 57.98 58.06 58.63 57.84 57.41 57.32 57.32 56.75 57.76 57.94 58.11 58.99 58.53 58.49 58.56 58.48 57.63 57.95 57.68 56.32 56.50 56.32 56.65 56.85 56.60 56.48 56.07 56.02 55.78 55.72 56.05
52.95 54.57 58.67 59.03 58.65 57.54 56.91 57.23 56.91 57.04 57.83 57.98 57.91 59.13 59.63 59.69 58.85 58.66 58.68 58.60 57.30 55.77 55.69 55.62 56.04 55.97 55.51 54.64 54.73 54.69 55.07 55.56
51.53 53.17 57.55 58.20 58.65 58.02 57.26 57.13 57.06 57.53 58.01 57.63 57.28 57.62 58.20 58.69 58.94 58.64 59.01 58.55 58.44 57.21 56.40 54.95 55.19 55.75 55.48 54.72 54.05 54.61 54.16 54.51
51.48 52.44 53.48 55.38 57.94 58.77 58.10 57.47 56.97 57.66 58.14 57.85 57.31 57.13 57.27 57.25 57.64 58.01 58.97 58.89 58.84 58.45 57.50 56.42 55.02 55.24 55.17 54.92 54.62 54.30 54.11 54.24
51.23 51.42 52.91 53.92 54.97 57.24 58.84 58.71 58.61 58.07 57.75 58.08 57.67 57.64 57.66 57.89 58.09 57.86 58.31 58.50 58.08 57.65 57.56 57.16 56.83 56.24 55.83 55.40 55.01 54.21 54.26 54.36
51.23 51.33 52.55 54.04 54.74 55.67 56.74 57.32 59.49 59.12 58.16 57.18 57.65 58.27 58.82 58.65 58.52 58.43 58.86 58.79 58.67 58.61 58.06 57.72 57.43 57.08 56.80 55.97 55.59 54.65 54.00 53.79
51.16 52.49 53.39 53.63 52.70 52.19 53.47 54.93 56.37 59.84 58.68 58.23 58.44 57.79 58.30 58.18 58.27 58.10 58.09 58.64 58.82 58.75 58.16 57.86 57.26 57.59 50.85 47.04 52.53 55.22 54.77 53.91
51.36 51.07 50.66 50.04 48.88 49.35 49.19 51.84 55.05 56.06 57.20 59.08 59.23 58.61 57.91 58.26 58.58 58.29 57.76 57.69 58.01 58.19 58.44 58.15 57.63 57.70 47.09 46.26 45.21 56.05 55.44 54.85
49.30 48.48 47.31 46.30 45.89 45.67 47.59 51.34 50.29 50.82 51.04 52.87 55.75 58.81 58.45 58.07 57.96 58.01 58.06 58.03 57.23 57.14 57.50 57.74 57.85 57.77 46.44 44.47 43.10 54.13 55.94 55.24

GFSFLT1_sfc_wetblb_084.txt.gz
Wetbulb
55.66 58.21 59.98 60.74 60.75 61.08 61.08 61.17 60.46 59.30 58.29 58.82 59.67 59.83 60.47 61.23 61.13 61.29 61.80 62.03 61.67 58.67 57.16 57.65 57.41 53.70 54.94 55.55 54.93 54.68 55.22 54.38
56.31 58.52 59.12 59.50 59.74 59.66 59.68 60.47 60.86 59.33 58.12 57.44 57.07 57.68 58.96 59.55 60.72 60.90 61.38 61.55 61.51 60.09 58.75 58.41 58.03 55.65 55.87 55.69 54.27 54.52 53.41 53.93
55.15 56.78 57.95 58.29 58.72 58.77 58.13 59.58 60.32 59.57 58.76 58.40 58.64 58.53 58.90 59.13 59.47 60.08 60.34 60.60 60.57 60.60 58.88 59.13 58.05 58.05 55.83 55.23 53.65 52.38 52.03 52.67
54.66 55.49 56.91 57.36 57.62 57.77 57.48 58.51 59.93 59.84 59.56 59.05 58.10 58.39 58.35 57.90 57.91 57.65 58.88 59.11 59.27 60.38 59.32 58.74 59.02 57.72 55.63 54.44 54.42 54.16 52.22 52.49
55.06 54.89 56.02 56.75 57.13 57.41 56.93 58.18 59.08 59.61 59.63 58.39 57.05 56.69 54.95 56.32 57.41 57.88 58.33 58.51 57.94 58.11 58.86 57.99 58.14 57.15 55.96 55.52 55.15 54.42 53.20 52.30
54.85 54.91 56.29 57.21 57.51 57.09 56.87 57.97 57.90 58.39 59.42 58.83 57.65 57.00 57.54 58.13 56.65 54.38 56.70 56.93 57.59 57.35 57.80 57.23 57.00 58.75 56.45 56.22 55.10 54.74 54.26 53.07
55.97 56.04 56.61 56.64 57.51 57.20 57.24 56.92 56.88 57.67 59.00 58.95 58.16 57.35 57.21 57.16 56.76 55.56 55.81 56.59 56.51 56.24 56.91 57.13 56.80 57.82 57.96 56.28 56.62 55.77 55.81 53.81
55.37 54.63 54.64 55.29 56.04 56.39 56.97 57.05 56.29 57.48 58.69 58.67 58.33 57.78 57.38 57.04 56.96 56.03 54.77 55.13 55.16 56.02 55.86 56.99 56.70 57.27 57.38 57.10 56.90 56.49 56.21 55.23
55.44 55.25 55.15 55.30 55.52 56.01 56.72 56.61 56.55 57.35 58.34 58.42 58.49 58.20 57.69 57.69 57.65 57.26 55.83 55.45 56.42 56.90 56.42 57.14 57.79 57.68 57.74 57.63 57.39 57.04 56.88 56.24
55.51 56.22 56.01 55.80 55.62 55.68 56.45 55.90 56.19 57.18 57.27 58.39 58.74 58.56 58.23 57.50 57.86 58.07 57.46 56.23 56.61 56.65 56.14 56.86 57.46 57.81 58.23 58.31 57.88 57.36 57.34 57.03
55.87 56.63 56.83 56.64 56.48 56.10 56.65 56.58 55.91 56.73 57.26 58.06 58.54 58.75 58.63 58.33 58.22 57.65 57.59 57.57 56.45 56.44 55.97 56.27 57.17 57.37 57.63 57.17 57.56 57.41 56.96 57.14
53.51 56.94 57.61 57.18 56.97 56.33 56.06 56.01 56.62 56.13 56.67 57.01 57.73 58.05 58.40 58.14 57.40 57.29 58.06 58.09 57.37 56.67 56.62 55.22 55.90 55.94 56.10 56.00 56.78 56.79 55.88 56.48
52.02 55.03 55.85 56.28 55.79 56.37 56.34 56.30 56.06 56.97 57.07 56.83 56.83 57.89 57.86 57.51 57.67 58.05 58.32 57.99 57.96 57.18 56.65 55.96 54.99 55.20 55.67 55.25 55.36 56.03 54.40 54.71
51.91 52.72 52.96 54.46 56.65 56.41 56.01 55.97 56.08 56.70 57.67 57.21 56.99 57.37 57.57 57.60 58.29 58.90 58.79 58.57 58.21 57.73 56.53 55.82 55.34 55.17 54.76 54.98 55.02 54.48 53.94 53.55
51.38 52.07 52.07 52.29 53.21 54.96 56.38 56.58 56.69 56.32 57.02 56.86 56.55 56.60 56.86 57.39 57.68 57.95 58.30 58.60 58.29 58.13 57.71 56.60 55.38 54.87 55.08 55.14 54.71 54.09 53.70 53.77
51.52 50.40 49.23 49.15 49.14 49.97 51.61 53.27 56.61 57.28 56.39 56.90 56.85 56.85 57.22 57.00 56.85 56.97 57.46 57.55 57.69 57.88 57.50 57.16 56.92 55.51 54.47 54.17 54.42 54.02 53.47 53.18
49.00 47.97 46.96 46.69 46.72 47.01 49.15 50.78 52.04 54.92 55.86 57.37 57.65 57.68 57.49 56.97 56.88 56.91 56.97 56.90 57.21 57.27 56.92 56.66 56.37 56.31 50.00 46.00 51.00 53.80 53.57 52.86
45.93 44.92 44.09 43.17 42.97 44.41 46.61 47.52 48.82 49.20 49.42 51.29 54.52 54.33 56.94 57.88 57.81 57.51 56.99 56.86 56.99 56.93 56.87 57.07 56.58 56.75 47.37 46.01 44.54 54.83 54.60 53.92
43.06 42.17 41.13 40.48 40.78 41.61 44.02 44.36 45.00 45.17 45.69 47.49 48.87 49.10 49.47 51.03 52.64 57.43 57.49 57.40 56.99 57.27 57.38 57.52 57.33 57.31 46.77 44.81 43.27 53.47 55.42 55.38

GFSFLT1_sfc_wetblb_087.txt.gz
Wetbulb
53.78 58.63 60.49 60.39 60.61 60.99 60.38 58.00 56.62 57.27 58.61 59.31 59.73 60.40 60.72 62.04 61.82 61.93 62.58 61.90 59.83 57.67 57.08 56.40 55.67 53.61 54.38 53.75 53.71 53.32 53.64 54.45
53.72 58.73 59.82 60.41 60.87 60.41 59.65 58.68 57.54 56.96 56.96 57.32 57.98 58.14 59.53 60.15 61.19 61.72 62.05 61.61 59.08 57.18 57.37 56.07 54.92 53.60 54.61 54.78 53.65 52.93 51.78 52.95
54.33 57.54 59.21 59.90 59.84 59.34 59.32 59.11 57.69 57.02 57.45 57.36 57.55 58.29 59.00 59.57 60.20 60.99 61.99 61.64 59.49 57.56 57.78 55.79 55.28 53.41 55.10 53.92 53.58 52.33 51.85 52.61
53.85 56.59 58.06 59.13 58.87 58.36 58.41 59.04 58.68 57.65 57.47 58.16 58.41 57.22 58.36 57.98 58.14 59.31 59.61 61.12 60.50 58.68 58.30 57.02 56.63 54.23 55.03 54.92 53.73 52.82 51.55 51.97
53.94 55.69 56.48 57.83 58.81 58.82 58.18 58.57 58.47 58.71 58.19 57.21 57.35 56.17 55.86 57.29 57.71 58.33 58.74 59.02 60.11 59.70 58.38 58.49 57.50 57.28 55.39 54.96 54.88 54.55 53.45 52.36
53.32 55.30 56.46 57.29 58.51 57.54 57.11 57.88 58.05 58.30 58.31 57.98 57.40 56.87 56.69 56.88 57.67 57.39 58.11 57.76 58.23 59.29 59.07 58.22 58.17 57.55 56.56 55.20 53.95 53.58 53.51 52.91
54.16 55.30 56.54 56.36 57.36 56.91 56.36 56.88 58.06 58.00 57.96 58.46 57.53 57.14 56.25 56.20 56.16 55.90 56.52 57.45 57.21 57.24 58.40 57.85 57.60 57.64 56.18 55.89 55.02 53.96 53.18 53.65
53.18 53.15 54.73 55.98 55.89 55.91 56.87 56.59 56.14 57.63 58.61 58.35 57.71 57.43 57.15 56.15 55.69 55.34 55.70 55.98 55.90 55.74 56.11 56.99 56.95 57.85 57.70 56.63 56.14 55.24 54.73 53.69
53.05 53.86 54.91 55.48 56.05 56.20 56.18 55.93 55.61 56.08 56.98 57.82 58.08 58.06 57.77 56.57 56.41 55.72 54.63 55.36 56.01 55.48 55.08 56.34 56.62 56.76 57.82 57.17 56.30 56.39 56.26 55.32
52.83 54.23 54.92 55.56 55.82 56.07 56.41 55.75 55.75 56.12 56.04 56.97 57.68 58.25 57.78 56.98 56.85 56.23 55.18 54.88 55.81 56.73 56.32 56.19 56.79 56.62 56.53 57.14 56.97 55.89 56.25 56.06
53.47 53.78 54.70 55.76 56.21 56.21 56.65 56.49 55.97 56.02 56.58 57.48 57.39 57.43 57.96 57.89 57.73 56.81 56.78 55.32 54.74 54.51 54.77 55.86 56.59 57.07 57.02 56.77 56.38 56.87 56.38 56.36
53.36 53.93 54.60 55.31 55.65 55.95 55.99 55.88 55.84 56.10 56.37 56.91 57.03 57.26 57.98 58.08 57.64 57.60 57.89 57.20 55.62 54.66 55.16 55.18 55.32 56.43 56.96 56.85 56.80 56.86 56.14 56.07
53.40 54.63 54.84 54.60 54.67 55.08 55.14 55.58 55.16 55.54 56.35 56.49 56.19 57.05 57.92 58.05 57.67 57.90 58.06 57.49 57.66 56.61 55.19 54.96 54.48 55.28 55.77 55.87 55.96 56.38 55.24 55.61
50.35 51.66 53.10 54.42 54.90 55.61 56.05 55.72 55.50 56.33 56.29 55.96 56.09 56.11 56.59 57.34 57.56 57.73 57.77 57.81 57.93 57.50 56.82 55.75 55.22 54.31 54.61 54.97 55.06 55.14 55.02 54.98
47.82 47.59 48.91 49.67 51.30 52.97 54.10 55.54 56.65 56.78 56.81 56.33 55.82 56.02 56.33 56.83 57.14 57.56 57.41 57.81 57.82 57.57 57.43 56.89 56.34 55.83 54.79 54.19 54.43 54.43 54.75 54.82
45.95 45.15 45.59 46.80 47.56 49.20 49.57 50.16 51.14 55.04 56.52 57.09 56.75 56.95 57.28 57.86 57.64 57.56 57.69 57.55 57.55 57.47 57.19 56.90 56.35 56.05 55.78 55.18 54.61 53.73 53.59 53.75
43.58 42.92 42.60 42.17 42.95 44.98 45.64 46.51 47.51 49.57 50.59 53.10 55.71 57.06 57.09 56.96 56.87 57.06 57.11 57.45 57.10 56.94 56.65 56.71 55.99 55.47 48.91 46.04 51.47 54.04 53.89 53.08
41.29 40.14 39.73 39.76 40.77 42.36 41.49 42.41 43.63 43.59 44.17 45.99 46.59 47.59 48.93 49.92 53.16 56.62 56.45 56.24 56.65 56.64 56.87 56.90 56.30 56.47 47.74 45.19 44.05 53.76 53.73 53.51
39.26 38.64 38.15 38.48 39.50 39.88 40.02 40.32 40.59 40.36 39.86 40.14 41.62 42.50 43.54 45.57 47.06 46.87 48.08 51.19 56.35 56.56 56.58 56.72 56.92 57.34 48.19 46.54 44.86 52.09 53.46 54.08

GFSFLT1_sfc_wetblb_090.txt.gz
Wetbulb
46.78 54.37 57.52 59.61 60.33 61.60 60.71 58.69 57.59 57.50 57.58 58.03 59.49 60.79 61.33 62.32 62.21 62.57 62.39 61.29 60.45 59.26 58.30 56.44 56.83 56.14 55.71 54.47 53.95 54.55 55.01 55.06
46.10 52.38 58.22 58.99 60.43 60.77 59.88 57.81 56.98 57.44 57.40 56.68 57.35 58.11 59.74 60.62 61.47 62.07 62.39 60.95 59.17 57.94 57.23 56.13 55.16 55.00 54.83 53.87 52.95 53.42 52.77 54.53
51.09 56.14 57.88 58.93 60.04 60.46 59.82 58.41 56.90 56.74 57.20 57.32 55.96 58.80 59.32 59.89 60.80 61.32 62.14 60.38 58.93 57.81 56.55 55.70 54.24 54.13 54.44 53.53 53.05 52.25 52.15 54.42
51.54 55.82 57.40 59.23 59.66 59.81 59.20 58.85 57.82 56.93 57.27 57.33 57.32 58.23 58.59 58.19 59.10 60.16 60.93 59.87 58.99 58.59 57.29 56.02 53.75 53.86 54.29 53.98 52.46 51.90 52.46 52.78
51.36 55.27 57.36 58.21 59.47 59.94 59.58 58.99 57.59 57.00 57.41 57.09 56.49 56.15 55.44 57.34 58.15 59.07 59.72 59.64 58.29 58.50 56.87 56.08 54.86 53.65 54.67 54.91 54.41 52.92 53.23 51.58
50.89 54.80 56.80 58.19 59.67 58.79 58.80 58.70 57.90 57.67 57.05 56.99 56.07 55.31 55.10 57.64 57.87 57.93 58.09 58.69 58.50 58.60 57.39 55.84 55.69 54.94 55.30 55.25 54.24 53.67 53.74 53.17
50.38 54.38 56.71 58.01 59.16 58.00 57.93 57.79 57.43 57.58 57.11 56.92 56.27 55.94 54.85 56.40 56.94 56.86 57.47 57.33 58.37 57.97 57.99 56.94 55.76 55.61 55.56 55.10 55.05 54.01 53.89 53.97
48.50 53.06 54.93 56.51 57.54 56.34 56.91 56.81 56.28 57.26 56.94 56.69 56.27 56.40 56.40 55.63 56.42 56.60 56.68 56.78 56.70 57.91 57.78 57.07 56.46 54.21 53.85 56.02 55.11 54.46 54.14 53.45
49.03 52.88 54.89 55.72 56.90 56.05 55.72 56.02 56.06 56.91 56.53 56.49 56.76 55.98 56.81 56.96 56.67 56.40 56.13 56.72 57.11 56.93 57.93 57.52 56.91 57.12 56.41 56.36 55.60 55.03 54.70 53.81
46.66 52.75 54.91 55.27 56.11 56.13 55.67 56.20 56.05 56.18 56.83 56.78 56.82 57.20 55.75 56.92 56.63 56.70 56.20 54.67 56.53 55.88 55.74 56.32 56.75 56.58 57.73 56.15 56.11 55.68 56.00 55.05
47.12 52.85 54.46 55.31 55.98 56.42 56.60 56.61 55.93 55.12 55.89 56.42 56.87 56.89 56.74 57.04 56.54 55.33 54.25 53.97 54.84 54.67 55.11 54.71 55.35 55.44 56.36 57.13 56.56 56.38 56.20 56.32
52.14 53.21 54.98 55.52 56.26 56.16 55.72 55.70 55.66 55.75 55.79 56.22 56.30 56.92 56.67 57.62 57.01 55.48 54.93 53.96 53.90 54.04 54.76 54.86 54.89 55.25 55.93 55.21 56.05 56.38 55.33 55.67
53.10 53.45 53.91 54.05 54.95 55.41 55.48 55.62 54.96 55.88 56.39 56.50 56.14 56.31 56.28 57.15 57.22 57.34 57.01 55.81 54.58 54.29 54.17 54.18 54.50 54.97 55.59 55.35 54.99 55.22 54.64 54.54
48.24 50.21 52.96 53.78 54.16 54.76 54.80 55.22 55.32 56.28 56.37 56.12 56.04 55.79 55.44 55.91 57.38 57.66 57.72 57.45 57.23 55.80 54.75 54.23 53.77 54.25 55.01 55.82 55.87 55.35 55.07 55.05
44.99 45.32 46.49 48.83 49.93 51.36 52.36 53.24 56.80 56.20 56.04 55.76 55.76 55.82 55.72 55.62 56.24 57.45 57.51 57.76 57.32 57.17 56.96 56.22 55.46 54.86 54.13 54.36 54.58 54.89 54.91 54.99
41.10 40.87 42.34 44.16 45.37 46.98 48.30 49.21 51.50 57.28 57.14 56.50 56.06 55.87 55.96 56.24 55.98 56.50 57.31 57.07 56.55 56.68 56.65 56.43 56.53 55.98 55.29 54.22 54.43 54.46 53.91 53.97
39.66 39.13 39.56 40.06 40.79 41.70 42.78 43.04 44.42 46.82 47.64 47.72 48.13 49.55 54.48 55.43 56.78 56.99 56.91 56.77 57.07 57.10 56.58 56.00 55.55 55.76 48.79 45.74 51.02 54.14 53.69 53.47
38.41 37.75 37.74 38.40 39.01 39.81 39.67 40.38 41.09 40.76 41.41 42.07 43.11 44.92 45.95 46.26 47.89 47.82 48.81 51.39 56.16 57.00 57.01 56.87 56.42 56.35 47.04 45.94 43.85 53.81 54.75 53.70
36.65 35.92 35.96 36.42 38.70 39.10 39.37 39.24 38.44 37.64 37.00 36.69 37.18 39.27 40.70 41.55 42.05 42.37 43.43 44.94 46.67 48.97 50.35 54.50 56.46 56.94 41.79 42.76 43.31 51.17 53.87 54.80

GFSFLT1_sfc_wetblb_093.txt.gz
Wetbulb
53.72 53.27 57.84 61.32 63.29 64.17 64.43 62.69 61.80 62.21 62.10 60.95 62.06 63.31 63.50 63.56 63.43 63.43 63.11 62.51 62.42 62.39 61.37 60.34 60.35 58.78 58.30 59.22 58.96 59.35 59.86 59.58
53.67 53.91 54.50 59.81 62.39 63.25 63.56 60.29 60.27 59.94 58.30 58.28 59.50 60.16 61.27 62.41 62.96 63.81 62.68 61.09 59.86 58.89 59.23 59.64 60.66 59.27 58.59 59.20 58.28 58.86 58.26 59.69
52.56 54.87 56.71 59.39 61.18 62.80 62.08 59.65 59.62 59.51 59.60 59.98 59.88 59.61 60.61 61.31 62.00 62.31 61.85 60.11 59.45 59.45 59.04 58.53 59.06 57.90 56.64 57.36 59.02 57.98 58.13 58.50
52.34 55.29 58.03 59.85 60.62 61.93 60.91 59.77 59.44 59.23 59.59 59.66 60.14 60.31 59.74 60.22 60.98 61.88 61.44 60.15 59.38 58.68 59.10 58.43 58.39 57.93 56.62 57.57 58.23 57.97 55.48 57.66
52.20 54.63 58.07 59.31 60.75 62.48 61.15 59.86 59.30 59.20 59.10 58.33 59.13 57.72 57.07 59.11 60.01 60.76 60.57 60.05 59.45 58.30 57.26 55.81 56.09 57.30 56.35 56.62 57.43 58.53 58.30 56.10
51.93 53.96 57.48 59.98 61.50 62.10 60.85 60.17 59.14 58.47 57.96 58.37 58.27 57.65 58.38 59.96 59.82 59.43 59.97 60.12 59.46 58.67 57.43 55.81 54.85 55.67 55.93 55.24 56.03 57.80 58.27 58.16
51.97 54.09 57.96 59.64 61.45 61.71 60.59 59.84 58.80 58.78 57.89 58.35 58.72 56.92 56.95 59.05 58.83 58.14 58.49 58.01 58.35 57.86 57.22 56.65 55.35 54.93 55.56 56.01 56.01 55.81 57.30 58.76
52.45 51.56 56.59 58.86 59.85 59.53 59.81 59.13 57.76 57.96 57.66 57.85 57.83 57.04 58.35 59.47 58.80 58.25 58.04 57.14 57.40 57.40 57.06 56.48 55.27 54.66 54.57 54.67 55.82 55.19 56.44 56.67
53.96 52.51 55.91 58.58 59.78 59.08 58.75 58.31 57.50 57.49 57.55 57.53 57.83 57.82 59.57 59.88 59.38 58.68 58.98 57.72 57.84 58.17 57.50 56.22 55.29 54.85 54.10 54.14 56.58 55.38 56.15 56.72
53.47 55.33 55.80 58.18 59.50 59.20 58.00 57.62 57.72 57.34 57.52 57.50 57.34 58.12 59.40 59.30 58.80 59.00 58.12 58.73 58.34 58.24 58.01 56.87 55.76 54.59 54.30 53.21 56.03 55.21 55.59 57.15
53.74 55.42 54.53 57.93 59.44 58.55 57.72 57.63 57.39 57.28 57.73 57.37 57.35 57.94 58.38 59.28 59.41 58.47 57.38 57.37 58.55 58.30 57.20 57.44 57.40 55.66 53.71 53.59 55.89 57.28 55.71 55.92
53.36 55.50 56.50 57.62 58.67 57.10 56.89 57.35 57.33 58.73 58.01 58.12 59.13 58.42 58.26 58.51 58.15 57.98 57.26 57.95 58.86 59.55 59.37 57.58 57.03 57.78 58.02 57.30 58.04 57.01 55.72 55.57
48.31 54.06 56.08 56.25 56.32 56.22 56.29 56.89 56.74 57.61 58.08 57.40 57.79 58.77 57.92 57.98 59.06 58.42 58.97 59.12 59.38 59.30 59.30 58.81 58.55 59.04 59.30 58.93 58.00 57.31 56.35 55.78
44.16 46.06 47.11 53.01 54.99 55.47 55.68 55.87 56.15 56.92 57.03 57.16 57.37 57.35 57.22 57.35 59.42 58.83 58.48 58.66 58.50 58.29 58.62 57.85 57.92 58.23 58.18 58.10 57.38 57.04 57.12 57.40
41.63 42.06 42.59 43.79 45.18 47.13 49.37 53.89 56.78 56.97 56.98 57.00 56.41 56.49 56.85 58.45 59.51 59.53 59.13 59.10 58.65 57.17 56.80 57.44 58.17 57.72 57.98 57.82 57.31 56.81 56.91 57.25
39.40 39.45 39.88 40.35 41.21 42.33 43.72 45.69 49.17 56.38 56.26 55.94 56.62 57.58 58.13 58.85 59.11 59.19 59.21 59.23 59.19 59.32 58.67 57.95 57.47 57.36 57.15 57.22 57.49 57.81 57.71 57.26
37.81 37.22 38.60 38.97 39.29 40.02 40.96 41.16 42.72 43.93 44.64 45.37 47.09 48.54 48.96 49.38 50.68 55.09 57.15 57.33 57.56 57.86 58.22 58.68 58.77 58.17 48.44 45.46 52.24 57.42 57.23 57.13
35.66 35.53 35.07 36.26 39.18 39.54 38.73 38.92 39.42 38.23 37.98 39.50 40.87 42.84 43.26 43.85 45.57 46.19 46.17 47.02 49.40 50.90 52.76 54.65 56.30 49.17 36.30 38.88 41.76 54.52 55.08 54.88
33.79 33.58 34.05 34.57 37.73 38.95 38.88 37.33 36.90 35.89 35.15 35.65 36.87 37.92 38.49 40.08 40.94 41.30 41.64 43.80 45.52 46.00 41.44 39.87 42.64 36.48 35.16 35.70 35.36 45.03 52.60 55.01

GFSFLT1_sfc_wetblb_096.txt.gz
Wetbulb
57.21 58.48 59.10 61.63 64.45 66.92 68.16 68.23 66.79 65.52 65.52 65.02 64.67 65.18 64.38 65.53 66.11 65.44 65.79 65.56 64.10 63.00 63.05 62.10 60.54 59.05 59.01 60.24 62.10 63.33 63.69 62.76
57.70 58.73 59.45 59.38 62.41 65.06 66.94 67.54 65.73 64.12 63.44 62.63 62.42 62.49 63.22 64.21 66.33 65.00 65.20 63.81 62.46 62.62 62.29 61.30 60.24 58.78 58.38 59.72 62.26 62.29 61.82 62.85
56.55 57.96 59.16 59.92 61.48 64.14 66.03 67.17 63.93 63.99 64.99 65.27 63.76 62.91 63.37 63.96 64.51 64.13 64.67 63.19 60.52 61.35 61.45 60.57 59.99 58.68 58.49 59.51 61.99 61.01 60.74 61.83
54.57 55.87 58.02 60.39 62.32 63.81 65.05 66.67 62.96 63.75 66.26 65.32 63.33 63.46 62.56 62.42 63.15 62.45 60.80 60.24 59.99 59.68 60.50 60.38 59.93 59.32 58.74 61.17 62.32 61.33 59.25 60.99
56.56 56.49 56.58 58.64 62.42 64.48 65.32 65.72 61.52 63.06 65.20 64.52 63.67 61.78 60.02 61.45 60.89 63.16 61.84 61.44 59.82 59.72 59.10 59.64 59.30 60.28 60.89 60.41 61.97 62.51 61.38 59.12
57.23 57.33 57.38 58.33 62.38 64.28 65.17 63.22 61.29 62.01 62.99 65.27 63.58 63.12 62.41 61.92 62.18 62.34 61.72 60.96 60.97 58.99 59.25 60.31 60.32 60.52 60.35 62.17 62.27 62.73 62.10 61.08
57.83 59.46 58.47 58.31 62.19 64.55 64.33 60.93 60.50 61.53 62.88 63.95 63.74 62.96 61.49 60.87 60.78 61.34 59.41 59.55 58.99 58.73 57.62 57.45 58.76 59.92 59.58 59.12 58.78 58.67 59.02 60.60
56.55 57.82 59.24 58.36 61.72 63.86 62.58 59.83 59.59 60.70 61.52 62.47 62.15 62.66 61.40 61.74 60.69 60.41 59.41 58.71 58.49 57.37 57.05 56.43 56.69 57.39 57.19 56.95 56.98 56.79 57.63 57.98
55.05 56.51 58.88 59.05 60.99 63.58 61.08 60.15 60.46 60.25 60.87 61.02 60.69 62.60 59.11 61.99 61.08 61.00 60.22 59.54 58.84 58.25 57.88 56.94 56.62 56.93 56.99 56.87 56.49 56.59 57.63 58.43
52.79 53.05 59.31 60.41 60.44 63.03 60.88 60.08 61.29 59.45 60.27 60.61 59.70 61.18 59.70 60.76 62.62 62.77 62.11 60.93 59.25 58.36 57.90 57.09 56.46 55.55 55.37 54.75 54.22 56.10 57.36 56.92
48.51 48.70 58.57 59.53 61.05 62.89 60.83 60.46 59.94 58.99 59.59 59.70 59.17 59.06 59.53 60.94 62.59 60.78 60.81 61.93 59.87 59.06 58.21 56.94 55.81 55.20 55.35 56.09 53.78 53.96 55.61 56.53
44.31 45.58 54.37 59.70 61.54 60.92 59.23 59.06 58.63 58.28 59.44 59.32 59.19 58.87 59.45 60.38 61.24 60.73 60.53 59.81 59.89 59.62 58.83 57.12 55.51 55.08 54.58 54.17 54.04 54.06 54.82 57.25
42.65 43.52 47.35 56.08 58.28 57.13 57.83 58.48 57.69 58.03 58.51 58.61 58.78 58.89 59.02 59.23 59.54 60.63 60.65 59.12 59.53 59.80 59.92 57.69 57.21 55.68 55.16 54.20 54.08 54.95 55.45 56.72
40.08 41.39 42.80 45.19 47.43 55.10 57.15 57.33 57.46 59.18 58.93 59.05 58.98 58.46 58.72 58.41 59.03 61.62 60.83 61.03 60.50 60.61 60.66 59.39 58.58 58.24 57.10 56.85 57.40 57.13 57.98 58.22
37.38 37.81 40.27 41.55 43.23 44.21 46.07 52.46 57.18 57.76 57.79 58.20 57.63 57.65 57.86 58.38 59.87 60.83 59.51 59.68 60.30 60.54 60.53 60.89 60.48 60.14 59.97 60.33 60.08 60.22 59.97 58.29
36.02 35.35 37.02 39.80 40.40 41.33 42.21 42.81 45.20 52.27 53.51 53.71 55.97 57.52 58.25 58.26 59.99 60.09 59.88 59.66 59.27 59.43 58.99 58.91 59.38 59.59 58.57 58.91 58.80 58.53 57.85 57.60
35.78 34.94 34.92 38.12 38.49 39.20 39.50 39.55 40.69 41.90 42.17 42.63 45.15 46.48 48.30 48.98 49.89 50.43 54.25 54.68 56.72 58.90 58.92 59.08 58.68 46.32 36.51 37.66 46.21 58.98 58.51 58.04
33.14 33.18 33.44 36.50 38.74 37.61 36.83 37.77 38.96 38.63 39.42 38.81 39.55 41.14 42.35 43.59 44.83 45.32 46.16 47.66 48.61 45.96 45.18 42.11 38.22 37.23 35.50 36.16 35.91 49.61 56.42 58.14
32.28 32.09 32.99 34.13 36.98 37.71 36.47 36.64 36.25 37.93 37.56 36.71 38.03 38.36 38.48 40.40 40.82 41.92 44.22 43.99 41.52 39.58 39.05 39.95 37.21 34.97 34.35 34.88 34.60 45.07 48.53 51.64

GFSFLT1_sfc_wetblb_099.txt.gz
Wetbulb
57.10 57.99 59.14 60.65 62.79 65.09 67.65 69.74 69.98 68.46 67.46 67.37 66.31 66.23 65.85 67.08 67.60 66.06 66.33 67.23 66.67 66.64 66.34 64.69 64.73 63.69 63.58 62.21 62.35 62.10 62.62 61.94
58.39 59.09 59.56 60.26 61.73 63.99 66.66 68.77 69.65 67.40 65.59 64.47 64.60 64.67 64.47 65.87 65.53 67.14 66.98 67.02 66.21 65.56 63.57 62.03 61.73 60.77 60.75 61.44 62.40 60.53 60.52 62.92
57.62 58.78 59.85 60.38 60.75 61.39 64.34 67.27 68.79 67.59 65.25 65.61 66.10 65.44 65.14 66.65 66.17 66.22 66.39 66.48 66.02 64.14 62.59 61.52 60.44 59.93 59.65 60.18 60.57 60.23 61.97 62.23
56.17 57.13 58.66 60.20 60.65 61.92 62.06 65.42 67.79 67.46 66.76 66.95 66.79 66.28 64.82 64.68 64.35 65.38 65.64 65.66 65.31 63.29 61.92 61.33 59.81 59.92 59.05 59.70 60.28 59.89 59.45 61.75
57.73 58.35 58.97 59.76 60.56 62.46 63.64 64.84 66.97 66.84 67.55 66.92 66.29 64.08 62.47 63.45 64.55 64.33 63.99 63.60 61.20 60.98 60.81 61.35 60.05 59.64 59.15 59.74 61.32 60.60 61.09 59.28
57.82 58.77 60.07 60.49 60.76 62.12 64.58 65.17 66.73 65.79 67.20 67.48 66.16 65.31 64.55 64.30 63.72 62.90 61.86 61.35 61.19 60.22 60.03 60.21 59.63 59.52 59.52 59.97 60.67 61.75 62.33 60.71
57.66 59.33 60.30 61.05 61.24 62.38 64.60 65.19 66.64 65.08 65.24 67.05 66.10 65.46 64.73 62.83 62.08 61.69 62.27 60.75 59.68 59.24 60.33 59.63 59.70 59.55 59.94 60.40 62.55 62.29 61.50 61.19
55.84 56.75 58.21 59.81 61.71 60.57 63.61 65.13 63.93 63.62 63.23 65.91 66.37 66.10 65.06 62.96 62.65 61.30 60.50 59.24 58.92 58.65 59.16 58.90 59.68 59.92 59.82 60.29 60.57 60.55 61.89 61.64
54.29 54.93 56.39 58.38 61.44 61.47 63.51 64.65 61.95 61.27 61.96 65.39 66.16 66.14 64.37 63.31 62.72 61.94 61.52 59.60 59.44 58.72 58.36 57.57 57.64 58.65 59.54 58.95 58.17 57.93 58.27 58.23
52.44 53.03 53.28 57.25 57.79 62.05 63.72 62.80 60.74 60.69 61.42 64.64 65.24 65.17 64.01 62.65 62.80 62.79 61.85 61.43 60.37 59.90 58.41 56.78 57.22 57.33 57.33 57.25 57.23 57.21 57.46 57.91
49.90 49.30 48.73 52.56 54.96 62.11 64.78 62.08 61.17 60.88 61.14 62.36 63.12 64.41 62.83 63.17 62.87 61.85 61.83 62.82 60.66 59.43 58.75 57.23 56.56 56.96 57.70 57.29 56.65 57.30 56.49 57.64
46.27 43.96 44.17 47.95 50.69 62.10 63.18 60.88 60.33 59.91 60.43 60.34 61.42 63.14 62.53 62.44 62.14 62.50 61.00 61.88 60.91 59.37 58.08 57.63 56.06 55.33 55.37 54.73 55.29 55.05 55.35 55.82
43.59 39.79 41.17 42.32 43.71 52.61 59.80 59.78 59.08 59.60 59.64 59.97 59.80 61.12 61.43 60.86 60.89 61.98 62.04 61.64 61.76 61.16 59.56 57.87 56.34 55.54 55.25 54.89 54.54 54.21 53.40 53.31
41.16 37.93 37.77 39.63 40.93 43.20 49.36 58.70 58.32 59.13 59.26 59.06 59.24 59.08 59.47 59.85 60.38 61.35 61.26 60.50 60.34 61.07 60.58 58.50 57.42 56.34 56.16 55.71 55.04 55.23 55.78 55.78
40.67 36.75 36.33 38.74 39.31 40.40 42.27 46.07 51.95 57.97 58.27 58.49 59.01 58.65 59.31 59.27 60.48 61.06 61.31 60.80 60.72 60.61 61.10 60.29 59.34 58.67 57.35 56.50 55.61 55.99 57.31 58.25
37.03 36.38 35.78 35.96 37.19 37.53 39.16 40.60 42.80 46.59 47.81 49.95 53.98 58.20 58.71 59.14 59.07 60.49 60.72 60.78 60.69 60.97 60.85 60.96 60.49 59.61 50.41 50.64 56.98 57.22 58.27 57.39
34.73 34.56 35.35 35.29 36.29 36.34 36.73 38.84 39.79 41.32 40.83 42.01 45.53 47.29 47.09 48.18 50.19 51.59 57.38 57.05 55.52 55.14 51.53 56.19 45.00 40.86 36.05 36.97 40.76 57.46 58.61 58.28
33.12 32.95 32.41 34.59 34.71 36.26 34.84 35.98 38.09 38.67 38.90 39.11 40.19 42.51 43.36 43.67 45.53 45.85 44.96 44.05 43.99 44.07 41.36 39.45 36.92 36.57 34.85 35.95 35.87 50.36 57.47 55.95
33.84 32.05 32.41 32.53 35.20 35.87 35.15 36.27 35.64 36.41 35.92 36.64 38.83 39.29 39.60 41.11 41.69 41.18 39.63 39.11 37.81 38.31 37.91 36.81 35.12 33.88 34.27 35.31 35.65 46.65 42.17 37.59

GFSFLT1_sfc_wetblb_102.txt.gz
Wetbulb
56.87 56.80 57.30 58.10 59.25 63.26 69.66 69.40 68.05 67.30 67.34 68.41 67.68 67.59 66.30 66.61 66.43 66.24 66.05 66.74 66.40 66.08 64.88 64.50 64.17 64.10 63.50 63.33 61.99 62.12 61.26 60.88
57.39 58.63 58.24 60.28 61.34 63.49 67.65 68.90 68.67 66.99 65.66 65.18 64.73 64.37 64.60 64.49 65.73 66.42 65.57 65.44 65.46 65.08 64.21 63.79 64.01 63.16 62.48 63.07 61.77 61.04 60.11 61.05
57.48 58.63 59.07 60.04 60.93 61.47 63.42 68.09 69.01 67.65 65.90 65.71 64.68 64.26 64.43 64.40 64.69 65.47 65.44 65.33 65.26 64.47 63.61 62.90 63.13 62.39 61.96 62.01 61.00 59.83 59.75 60.52
56.30 58.09 59.17 60.82 61.61 62.14 60.72 64.49 68.39 68.15 66.67 65.49 64.91 64.87 64.49 63.51 64.47 64.31 64.59 64.46 64.42 64.05 63.30 62.13 61.56 61.33 60.50 60.64 60.68 59.58 58.05 59.52
56.93 57.86 58.63 60.01 60.73 62.00 62.01 61.36 64.81 68.07 66.18 64.50 64.09 63.16 62.22 62.87 63.71 63.94 64.06 64.03 63.94 63.62 62.82 62.32 60.95 60.87 60.24 60.30 60.86 60.13 59.08 57.46
56.65 57.34 58.66 59.93 61.21 61.31 62.07 61.89 62.16 67.29 65.72 65.42 64.61 64.00 63.68 63.55 63.31 62.99 62.53 62.69 62.12 61.05 60.79 61.10 60.28 60.34 60.22 59.99 60.18 60.04 60.08 58.41
55.86 57.03 57.65 58.17 59.95 60.59 62.05 63.01 62.43 66.83 66.14 65.63 65.27 64.55 63.50 62.59 62.09 61.42 61.21 60.09 60.88 59.75 60.00 60.12 60.81 59.92 59.68 59.79 60.02 59.67 59.77 59.41
53.55 53.49 53.90 55.14 56.47 58.64 60.58 61.72 61.96 65.64 65.45 65.39 65.91 64.96 64.74 62.95 61.25 60.87 59.88 58.97 58.55 58.70 59.56 59.08 59.11 59.56 59.67 60.31 60.56 60.12 59.89 59.32
51.32 51.06 51.58 51.00 53.75 54.95 58.27 56.65 62.26 64.39 64.19 64.66 65.78 65.34 64.86 62.93 61.27 61.98 60.87 59.14 58.65 58.74 59.22 59.38 59.23 59.59 59.85 59.80 60.35 59.97 59.95 59.67
48.90 48.02 46.81 46.24 49.58 50.80 52.91 53.88 61.94 62.56 62.61 63.27 64.58 64.48 64.45 62.24 61.69 62.39 60.69 59.97 59.20 59.08 58.67 58.34 58.71 59.31 58.81 58.25 57.39 57.21 57.83 57.67
46.12 44.07 42.40 43.70 44.89 47.46 51.56 57.95 61.92 61.07 61.66 61.96 62.72 63.64 63.59 62.64 61.79 61.21 61.20 59.78 59.29 58.25 57.48 57.70 57.59 57.51 57.65 57.86 57.33 57.43 57.41 57.39
42.82 41.07 40.50 41.52 42.42 43.90 46.57 60.30 61.23 60.58 60.97 61.08 60.98 62.31 61.74 62.12 61.33 61.50 61.10 60.70 59.71 58.94 57.75 56.84 56.71 56.86 56.99 57.09 57.08 56.82 56.69 56.77
40.80 39.32 39.01 39.16 38.95 40.55 42.29 44.72 59.74 60.51 60.72 59.94 59.88 60.46 60.89 61.13 61.08 61.25 61.24 60.31 59.33 58.60 58.44 56.88 56.43 56.45 56.78 56.23 55.71 56.13 55.89 55.81
38.80 38.50 37.27 37.59 37.63 38.03 39.68 41.80 43.94 58.38 59.18 59.19 58.87 58.71 59.25 59.21 60.51 60.92 60.67 60.41 59.61 59.02 58.17 57.16 56.13 55.79 55.15 55.45 55.35 54.32 54.68 55.05
36.66 36.17 36.93 36.98 36.93 36.67 37.23 39.32 41.43 44.95 58.11 58.39 57.95 57.93 58.27 58.81 60.28 60.45 60.04 60.19 59.79 59.59 59.06 57.75 57.07 56.26 55.77 55.69 55.47 55.10 54.29 54.30
34.96 34.85 35.03 35.98 36.17 35.87 36.25 37.40 39.05 41.19 43.00 44.91 47.95 53.96 58.03 58.62 58.94 59.97 59.78 59.39 59.30 59.50 59.22 58.47 56.82 53.58 44.90 50.24 55.40 55.13 55.13 54.85
33.86 33.99 34.24 34.20 35.01 35.48 35.38 35.95 37.27 38.54 38.76 39.81 41.99 44.82 46.46 48.85 50.41 52.86 52.13 50.99 49.81 48.00 48.13 44.74 41.80 38.42 36.15 37.07 41.89 54.74 55.28 55.75
32.93 32.28 33.09 33.82 33.63 34.37 34.37 34.75 36.33 36.50 36.63 37.47 38.35 40.29 41.20 42.65 42.77 42.65 42.65 43.23 42.19 40.23 39.16 37.80 36.03 35.80 35.77 36.85 36.74 50.02 45.82 43.96
34.41 32.48 32.64 32.90 33.32 33.27 33.85 34.50 34.56 34.61 35.36 36.15 37.59 37.62 38.59 38.34 38.18 37.23 36.87 37.47 37.39 36.27 35.46 35.25 34.57 34.46 35.38 37.13 39.02 40.40 36.57 35.33

GFSFLT1_sfc_wetblb_105.txt.gz
Wetbulb
52.71 53.07 51.29 51.82 51.75 67.26 67.32 67.02 66.14 66.21 66.70 65.56 65.15 64.62 63.43 63.71 65.13 65.64 65.39 65.46 64.87 63.97 62.71 62.47 61.93 62.51 62.42 62.51 60.96 60.92 60.60 60.23
53.40 51.74 51.04 50.71 51.27 66.38 67.14 66.06 65.44 65.11 65.26 63.91 64.42 63.35 62.80 61.80 63.05 64.75 65.44 64.99 64.85 64.20 63.35 61.89 61.68 61.79 61.90 61.96 61.08 59.77 59.05 60.18
52.79 51.85 50.92 51.37 53.25 63.01 66.69 66.09 65.19 64.84 64.94 65.17 63.62 64.52 63.41 64.07 62.35 62.75 63.57 64.40 64.04 63.46 62.50 61.98 61.78 62.09 61.58 61.62 61.10 60.13 59.70 60.48
52.16 53.52 52.85 53.36 54.06 55.42 65.34 66.34 65.28 65.13 64.62 64.42 62.64 62.65 63.12 62.61 62.85 62.71 62.06 62.46 63.01 62.57 61.75 61.87 62.09 62.81 62.04 61.95 61.50 60.26 58.38 59.90
53.46 53.11 53.42 54.21 55.08 56.69 56.74 65.45 65.86 65.09 64.44 63.72 62.36 61.50 60.90 62.12 62.42 62.34 61.76 62.43 61.81 62.40 61.52 61.11 62.09 62.20 61.67 61.74 61.83 60.62 59.74 58.08
50.87 51.08 52.21 53.11 53.66 54.72 56.49 57.58 61.86 65.50 64.26 63.89 62.56 61.54 61.82 61.32 62.07 62.62 61.25 60.69 61.46 61.82 62.54 61.47 61.22 61.11 61.26 61.24 61.12 60.44 60.05 59.09
48.57 49.52 49.64 48.77 49.83 51.26 53.11 54.37 56.55 62.70 64.02 63.37 62.73 61.73 61.50 60.59 60.77 59.92 59.47 59.94 59.72 60.42 60.28 60.74 61.10 60.72 60.50 60.53 60.90 60.43 59.63 59.71
45.39 44.96 44.60 45.05 45.74 47.68 49.59 49.95 52.00 54.33 63.52 63.21 62.97 62.53 61.95 61.23 60.61 60.04 59.51 59.19 58.98 58.86 59.07 58.74 58.85 60.10 60.12 60.34 60.26 60.12 59.88 58.97
42.51 42.33 41.99 42.30 44.22 44.75 45.21 46.09 48.05 51.23 61.41 63.17 63.21 63.12 62.41 61.94 61.05 60.27 59.56 58.71 58.48 58.59 58.40 58.09 59.22 59.76 59.78 59.97 60.02 59.74 59.89 59.26
40.17 40.10 40.36 41.11 42.29 42.90 43.42 44.25 45.71 50.07 54.73 63.41 62.49 62.10 63.27 60.77 59.91 60.29 59.43 58.92 58.04 58.48 58.61 58.04 59.03 59.29 59.30 59.58 59.69 59.27 59.34 59.30
38.67 38.34 38.74 40.94 41.13 41.57 42.44 44.33 47.72 52.90 61.03 60.57 60.94 60.94 61.60 61.03 60.88 59.75 58.69 58.21 58.58 58.31 58.20 58.10 58.39 58.57 59.00 58.34 58.29 59.34 58.97 59.25
38.41 38.29 38.84 39.56 40.20 40.08 40.47 42.28 45.07 52.99 58.39 58.43 58.48 59.61 60.58 60.58 60.76 59.47 58.49 58.15 58.62 58.47 58.07 57.46 57.28 57.32 57.32 58.10 57.28 57.58 57.74 57.90
37.44 37.01 37.92 38.03 38.13 38.74 38.81 40.24 42.08 45.31 50.42 58.29 58.47 58.96 59.89 60.08 60.14 59.80 58.79 58.09 58.67 58.47 57.73 57.22 56.94 56.80 56.88 56.74 56.70 56.98 56.84 56.62
36.49 36.29 35.90 36.50 37.35 37.66 38.01 38.94 40.11 42.52 45.71 58.49 58.41 58.59 59.09 59.72 60.04 59.98 59.59 58.65 58.31 58.75 57.63 56.90 56.72 56.80 56.60 56.82 56.70 56.48 56.60 56.74
34.71 34.39 34.87 35.65 36.07 36.97 37.14 37.68 39.11 39.95 42.54 45.31 48.89 57.66 58.25 59.34 59.85 60.06 60.01 59.26 58.03 58.14 57.54 57.06 56.63 56.32 56.40 56.58 56.18 55.98 55.94 56.26
33.72 33.45 33.66 34.14 34.80 34.96 36.61 36.98 37.18 38.70 39.26 39.68 42.41 46.61 52.11 53.85 54.86 59.21 59.75 59.37 58.97 58.27 57.69 57.15 56.04 54.35 50.12 55.20 55.58 55.22 54.41 54.26
32.66 32.62 33.18 33.21 33.43 33.82 33.93 35.28 35.98 36.50 37.13 38.25 39.42 41.11 42.00 43.63 45.28 45.96 48.67 47.36 46.29 44.80 44.34 43.59 41.43 39.17 36.55 37.98 46.53 55.18 55.05 54.57
31.79 31.72 32.58 32.98 32.80 33.27 32.71 32.97 35.34 35.29 34.63 35.93 37.93 38.68 38.78 39.32 39.06 38.82 38.83 39.68 39.16 37.72 37.27 37.06 36.61 37.15 36.76 37.89 38.30 48.46 46.18 43.87
31.52 31.60 32.46 32.98 33.72 33.04 33.11 33.21 33.02 33.61 33.66 33.56 34.79 37.19 37.16 37.15 37.21 37.27 35.05 35.45 35.16 34.28 34.17 35.09 36.02 37.52 36.89 37.23 36.57 36.86 35.07 34.57

GFSFLT1_sfc_wetblb_111.txt.gz
Wetbulb
49.03 50.26 51.94 54.43 62.11 65.79 66.64 66.58 66.25 66.36 66.24 65.35 63.72 64.81 64.61 64.52 64.80 65.03 64.54 64.44 63.73 63.32 62.63 61.93 62.04 61.72 61.38 61.24 60.79 61.82 61.37 60.26
47.89 48.64 48.29 45.96 48.43 62.73 65.42 65.58 65.44 66.00 64.96 64.41 63.75 63.93 64.21 64.05 64.43 64.55 64.55 64.10 63.39 63.00 62.65 61.73 61.55 61.41 61.44 61.46 61.73 61.46 60.52 60.51
51.32 50.66 51.11 51.50 51.57 52.91 61.22 64.89 64.95 65.80 65.45 65.18 64.85 64.85 63.49 64.09 64.01 63.77 64.39 64.15 63.69 63.31 62.46 61.69 61.15 61.21 61.40 61.87 61.04 59.98 60.16 60.35
47.68 46.68 45.50 46.29 46.66 48.98 58.64 63.01 64.55 65.14 65.05 64.92 62.24 62.28 61.83 60.00 63.02 63.83 63.74 63.91 64.06 63.71 62.72 62.70 61.56 62.03 61.54 61.59 60.94 60.34 58.68 59.49
43.22 43.35 43.22 43.51 44.25 45.95 49.12 59.98 64.89 65.14 65.23 64.96 63.11 63.11 62.06 62.47 62.60 64.09 64.53 63.77 63.02 63.93 63.82 62.95 62.02 62.39 61.87 61.99 61.43 60.87 60.25 58.23
39.87 41.04 41.89 42.36 42.86 43.32 46.44 49.29 51.42 53.15 63.05 65.04 63.71 62.94 63.37 60.50 60.86 60.63 62.42 63.23 63.08 63.34 63.15 62.88 62.61 62.74 62.70 62.27 61.71 61.34 60.86 59.82
38.22 39.73 41.05 40.54 41.30 41.66 43.64 45.05 47.21 49.31 50.68 55.95 63.25 62.67 62.10 60.29 60.73 60.05 60.87 61.46 62.68 63.05 62.84 62.39 62.17 62.05 61.53 61.90 61.94 61.37 60.99 60.21
36.47 36.78 37.52 39.00 39.23 39.94 42.06 42.51 44.22 45.68 47.20 49.44 53.33 62.78 60.75 61.15 60.98 61.12 60.24 60.25 60.07 61.17 62.19 61.57 61.47 61.75 62.01 61.66 60.81 60.70 60.52 59.79
37.55 37.32 37.52 37.86 38.86 39.70 40.10 40.75 42.48 44.30 45.97 46.73 49.55 52.52 62.82 61.18 60.73 60.92 60.49 60.53 60.66 60.24 61.31 61.72 61.66 61.33 60.76 60.24 60.18 60.05 60.32 60.37
36.40 36.95 37.25 37.59 38.31 39.17 39.66 40.40 41.84 43.18 44.47 46.65 49.72 51.00 60.57 62.33 60.88 60.48 60.43 60.52 59.87 60.20 61.15 60.68 60.43 60.37 60.07 59.97 59.83 59.67 60.01 60.03
35.74 36.00 36.66 37.21 37.41 38.23 39.25 39.91 40.68 42.11 43.29 45.25 48.65 52.44 56.44 63.08 62.24 60.19 59.81 60.11 59.36 59.41 59.33 59.12 58.42 58.24 58.27 58.29 58.41 58.83 58.85 59.29
34.45 35.22 36.08 36.62 37.02 36.93 37.04 38.15 39.21 40.34 42.44 44.43 47.52 55.33 58.56 62.48 61.64 60.36 59.95 59.76 58.72 58.52 58.02 57.58 57.62 57.18 57.52 57.43 57.58 58.10 58.17 58.63
33.90 34.41 34.76 34.83 35.21 35.94 36.13 36.38 37.78 39.51 41.33 42.76 44.30 46.50 49.84 59.75 60.25 60.14 59.60 59.42 59.11 58.65 57.90 57.24 57.32 56.80 57.40 57.12 56.96 57.47 57.83 57.89
33.36 33.30 33.29 33.70 33.95 34.65 35.24 35.86 35.98 38.42 39.43 40.59 41.85 42.73 44.17 46.38 52.35 59.01 59.32 59.00 58.44 58.22 57.80 57.04 57.04 56.92 56.74 57.06 57.04 56.92 57.53 58.04
32.33 32.02 32.55 33.13 33.44 33.61 33.85 34.85 35.72 36.31 37.97 38.18 38.90 39.61 41.57 42.18 43.63 47.42 58.66 58.76 58.08 57.72 57.58 57.36 56.66 56.62 56.72 56.70 56.68 56.78 56.84 57.52
30.85 30.82 31.27 32.00 32.51 32.53 32.82 33.51 34.42 35.35 34.83 35.79 36.73 38.24 39.19 39.06 38.88 39.30 42.23 57.04 58.01 57.93 57.48 57.18 56.98 56.70 53.91 56.48 56.58 56.30 56.14 55.72
28.97 30.63 30.54 31.03 31.24 31.00 31.41 31.60 32.41 33.82 33.84 33.43 35.41 36.53 37.00 36.80 36.76 36.80 36.41 37.71 41.34 46.93 47.07 47.76 45.53 42.30 37.83 39.08 45.97 56.10 55.92 55.40
27.70 29.61 30.46 30.45 31.32 30.33 29.94 30.24 31.41 30.86 31.30 32.64 33.17 34.70 34.88 35.15 35.44 35.33 34.76 34.48 34.55 35.42 37.05 39.21 38.26 37.72 38.13 39.42 40.71 49.26 47.98 45.93
27.83 29.15 29.78 30.74 31.02 30.96 29.03 29.15 29.22 29.46 29.26 29.98 31.46 32.22 32.95 33.70 33.49 33.10 33.19 33.46 32.84 32.28 32.75 34.19 35.36 35.28 35.66 36.44 36.59 37.72 35.96 35.48

GFSFLT1_sfc_wetblb_114.txt.gz
Wetbulb
48.57 47.91 55.69 62.97 64.63 65.65 65.94 66.20 65.60 65.39 66.13 65.93 65.48 65.19 64.83 64.68 64.16 64.11 63.78 63.96 63.09 62.90 62.32 62.03 62.82 62.34 62.14 61.57 61.20 61.23 59.10 60.20
49.56 50.19 48.66 46.69 50.73 62.94 65.52 65.37 65.54 65.96 65.75 64.68 63.82 63.63 63.95 64.36 64.57 64.33 63.83 63.47 63.13 62.75 61.99 61.21 62.37 62.03 61.65 61.08 60.64 60.24 60.12 60.65
47.51 45.91 45.30 45.77 47.41 50.45 58.34 64.85 64.93 65.80 65.95 65.57 64.98 65.21 65.07 64.82 64.93 64.41 63.97 63.27 62.93 63.05 62.80 61.95 62.11 62.06 61.53 61.17 61.17 60.54 60.29 60.69
43.58 43.76 42.34 42.61 43.06 45.10 51.06 61.89 64.53 65.39 65.76 65.58 62.42 63.38 62.86 63.33 63.66 63.55 63.65 63.39 62.98 62.88 63.01 62.59 61.84 62.25 61.36 61.70 61.53 60.77 58.86 59.65
40.34 40.50 40.35 40.34 41.19 44.25 45.94 53.16 61.74 64.97 65.98 65.07 63.82 63.05 62.41 63.63 64.27 64.60 63.99 63.10 64.04 63.58 63.14 62.63 62.29 62.29 61.97 62.02 62.06 61.23 60.40 58.08
36.86 37.95 39.69 39.86 40.62 42.00 44.22 48.98 49.73 51.01 54.91 65.22 64.26 63.50 62.99 61.32 62.00 63.51 63.90 63.85 63.81 63.73 63.62 63.08 62.69 62.45 62.63 62.30 61.74 61.18 61.06 60.21
37.88 38.51 39.19 39.26 39.96 41.52 43.54 46.12 46.43 48.15 50.61 52.36 60.98 63.69 62.84 60.87 61.30 62.15 62.74 62.91 62.75 63.43 63.49 63.36 63.12 62.84 62.50 62.27 62.20 61.59 61.13 60.97
37.11 37.19 37.83 39.20 39.47 40.46 41.75 42.86 43.92 45.85 47.51 49.50 51.04 53.72 63.02 61.76 61.20 61.73 61.84 62.09 61.86 62.30 62.80 62.49 62.83 62.87 62.76 62.29 61.83 61.56 61.38 60.68
36.95 36.89 36.82 37.39 38.24 39.00 39.95 40.91 42.55 44.14 45.51 47.62 49.72 51.66 52.90 62.24 61.27 61.34 61.08 61.45 61.79 62.90 62.70 62.54 61.92 62.32 62.31 62.11 61.83 61.72 61.07 60.76
35.95 36.60 37.03 36.97 37.38 37.73 38.27 39.47 40.87 42.24 43.41 46.35 48.10 50.06 52.35 53.75 61.78 61.21 60.51 60.39 60.57 59.56 61.60 61.23 61.42 61.48 61.71 61.58 61.03 59.96 59.86 59.92
35.07 35.52 35.99 36.95 37.20 37.86 38.41 38.23 39.23 40.43 41.99 44.13 46.35 48.68 53.08 53.13 57.34 60.68 60.59 60.13 58.88 59.06 60.12 60.79 61.21 60.95 61.09 60.54 60.22 59.92 59.44 59.52
33.81 34.27 34.95 35.37 36.68 36.43 36.82 36.73 37.08 38.68 40.39 42.41 43.91 45.11 47.36 52.95 56.19 61.91 61.06 60.44 59.65 58.84 59.87 60.15 60.05 59.46 59.46 59.12 58.74 58.18 57.94 58.00
32.34 33.05 33.75 33.63 34.04 34.68 34.90 35.56 35.82 37.02 39.40 40.57 41.84 42.89 44.07 45.07 47.65 49.33 60.98 60.26 60.16 59.65 59.63 59.30 58.80 58.38 58.18 57.76 57.14 56.98 56.78 56.47
31.56 31.70 31.85 32.58 32.83 33.21 33.59 34.36 35.03 36.43 37.20 38.30 39.24 39.85 40.83 41.35 42.34 44.61 47.08 59.08 59.78 59.14 58.90 58.30 57.94 57.72 57.24 56.82 56.43 56.52 57.17 57.39
30.16 29.96 30.78 31.30 31.51 31.94 32.15 33.02 33.96 35.19 35.86 36.00 36.69 37.61 38.71 39.56 40.45 41.30 41.95 43.97 52.73 58.24 58.38 58.29 58.29 57.87 57.12 57.02 56.34 56.70 56.94 57.27
29.47 29.61 29.81 30.76 30.01 30.36 31.04 31.39 32.25 33.29 33.69 34.18 35.08 36.34 37.10 37.72 38.40 39.32 39.71 39.38 39.61 41.96 52.71 57.66 57.52 57.02 54.47 56.50 56.60 56.18 56.08 56.13
28.41 29.14 29.66 29.55 29.69 28.40 29.21 29.60 30.62 32.17 31.73 31.82 33.69 34.68 34.81 34.95 35.75 36.43 37.32 37.32 36.96 36.82 37.17 39.32 40.26 40.48 38.01 39.79 50.99 56.12 56.05 55.61
27.30 27.49 28.22 29.15 29.30 27.51 27.36 28.21 29.67 29.69 29.82 30.48 31.13 32.66 33.01 33.45 33.87 33.81 34.04 34.84 35.94 35.49 35.42 35.30 35.04 35.33 35.99 36.93 39.34 51.95 51.57 47.42
26.13 27.18 27.64 27.79 29.45 27.44 26.71 27.42 27.30 27.30 27.51 28.15 28.92 29.96 30.92 31.73 31.99 31.62 32.04 32.48 32.70 33.08 33.29 34.40 34.16 33.77 34.82 35.15 35.45 37.54 36.56 35.89

GFSFLT1_sfc_wetblb_117.txt.gz
Wetbulb
46.54 49.95 53.07 53.44 55.99 65.94 68.02 67.10 66.87 67.03 67.05 66.53 66.45 65.73 66.28 67.25 67.34 67.30 66.37 66.76 67.23 66.93 66.23 65.83 65.16 64.47 63.33 63.94 63.36 63.95 64.44 64.49
46.77 52.18 51.99 52.00 56.43 64.03 67.15 67.19 66.63 66.06 65.85 64.62 63.73 63.16 64.00 64.70 67.03 67.34 66.55 66.19 66.58 66.92 65.32 64.61 64.18 63.41 63.05 63.36 63.14 62.74 62.57 64.41
46.58 49.00 48.22 48.85 50.09 54.11 66.35 67.32 67.21 65.98 66.21 65.95 66.40 65.47 65.38 65.30 65.70 65.78 66.50 66.93 66.01 66.18 65.43 63.74 63.40 63.28 63.06 62.73 62.63 61.29 61.76 62.87
45.05 45.41 45.43 46.52 47.09 49.52 53.94 64.84 67.75 67.21 66.81 66.60 66.41 66.16 66.23 64.95 64.70 64.68 65.01 66.86 66.39 66.31 65.70 64.79 63.85 63.54 62.82 62.55 62.31 62.35 59.99 60.95
41.82 42.50 43.16 43.70 44.92 47.86 51.94 56.34 65.80 66.78 66.47 66.31 64.92 64.35 63.04 64.76 65.22 65.34 64.57 65.66 65.77 66.20 65.56 65.21 64.39 63.92 63.39 62.76 62.57 62.86 62.71 60.34
39.52 40.08 41.80 42.64 43.76 44.95 47.80 51.39 51.72 54.08 62.80 66.03 64.81 64.99 65.74 65.66 65.47 64.57 64.97 64.96 65.30 65.84 65.49 64.72 64.70 64.15 64.22 63.92 63.39 62.70 63.54 62.99
39.30 39.70 40.56 40.90 42.02 43.41 45.49 48.39 48.93 50.18 52.69 54.88 62.59 65.21 64.90 63.53 64.48 63.89 64.41 64.90 64.39 65.41 65.34 65.28 65.37 64.97 64.99 64.97 64.21 63.49 63.67 62.99
38.18 37.90 37.81 38.83 38.96 40.18 43.27 45.64 45.40 47.00 48.96 50.73 51.98 53.74 58.51 63.73 64.02 64.45 63.62 63.46 63.84 64.36 64.40 64.23 64.44 64.66 64.35 65.34 64.64 64.01 63.20 62.29
37.64 37.72 37.21 36.95 37.95 38.39 39.44 42.33 43.49 45.16 47.70 48.79 51.07 51.99 53.38 54.98 63.25 64.44 64.83 63.75 63.95 64.48 64.06 64.40 63.98 63.81 63.48 63.95 63.94 63.20 63.20 63.23
35.07 36.55 37.28 37.34 37.59 37.71 38.00 39.28 40.52 41.84 44.06 45.95 48.03 50.19 51.29 54.11 55.24 61.72 63.72 65.23 64.15 64.08 63.99 63.51 63.14 63.32 63.14 62.91 62.91 62.55 62.30 62.30
34.14 34.80 35.25 36.03 36.68 37.56 37.97 38.33 38.36 39.71 41.41 43.63 45.51 47.12 48.50 51.44 55.77 55.83 61.18 62.75 63.55 63.45 63.20 62.91 62.71 62.61 62.24 62.20 62.25 62.73 61.67 61.64
32.14 33.82 34.41 34.56 35.40 35.84 36.17 36.43 37.23 37.95 39.81 41.29 42.35 43.63 45.21 46.86 49.36 53.43 53.86 61.69 61.76 61.38 62.01 62.31 62.09 61.31 61.25 60.91 61.64 61.67 61.05 60.38
31.69 32.61 32.72 33.08 33.27 33.83 34.05 34.82 35.45 36.89 38.14 39.36 40.03 40.88 42.10 43.02 43.72 45.31 48.67 50.61 61.63 61.20 60.85 60.69 61.09 61.23 61.46 60.33 59.79 60.06 59.94 59.17
30.97 30.77 31.38 31.32 31.86 32.22 32.55 33.90 34.76 36.32 37.40 37.58 37.89 38.22 38.91 39.97 41.06 42.51 44.00 46.03 49.05 57.80 60.54 59.89 60.06 59.83 59.62 59.56 59.75 59.30 58.90 58.98
29.12 29.47 29.75 29.70 30.18 30.48 31.01 31.81 33.87 35.31 35.44 35.50 36.07 36.38 37.25 37.84 38.91 40.38 41.07 42.36 42.28 44.12 45.80 56.11 58.85 58.71 58.47 58.45 58.84 58.36 58.11 58.31
27.72 27.56 28.39 28.62 28.01 28.82 29.96 30.85 31.90 33.22 33.37 33.76 33.91 35.69 36.58 36.58 36.89 37.64 38.93 39.28 39.95 40.50 40.29 40.35 40.89 40.06 38.94 40.54 49.80 57.15 57.45 57.61
26.65 27.61 27.63 28.29 27.92 27.38 28.11 28.98 30.40 31.34 30.97 31.51 33.27 33.88 33.76 34.09 34.59 35.18 35.78 35.89 36.72 37.23 37.62 37.82 36.73 37.40 36.26 37.00 39.68 50.38 57.23 56.59
25.92 26.48 26.84 27.94 28.78 28.12 27.21 27.97 29.83 29.61 29.70 29.85 30.87 32.26 32.57 32.94 33.02 33.56 32.92 33.87 34.07 34.09 34.31 35.27 34.73 34.82 35.64 36.23 38.07 38.86 42.93 48.52
25.15 26.11 26.27 27.63 30.05 29.66 28.23 27.99 27.95 27.97 27.37 27.66 28.54 30.12 31.47 32.07 32.02 31.96 31.95 32.29 32.55 31.57 31.63 32.56 32.78 33.26 34.55 35.20 35.06 35.31 34.32 34.24

GFSFLT1_sfc_wetblb_120.txt.gz
Wetbulb
49.29 50.31 51.12 51.50 52.90 56.02 57.47 59.96 69.46 69.15 69.50 69.07 68.36 68.47 68.99 69.64 70.07 70.04 68.37 68.79 68.59 68.48 68.24 68.34 68.20 67.80 66.67 66.29 65.94 67.76 67.08 66.54
48.81 49.87 51.24 51.58 53.78 56.87 57.78 58.92 66.93 69.30 67.81 66.86 66.65 66.37 67.40 68.31 69.36 70.04 69.96 68.13 68.43 68.40 67.51 67.43 67.37 66.59 65.77 65.69 65.59 65.55 65.75 66.65
48.37 49.13 50.67 54.27 54.96 55.89 58.55 60.91 63.44 68.83 68.89 68.23 67.41 67.40 67.27 68.02 68.69 69.32 69.95 67.51 67.96 67.77 67.37 66.85 66.22 66.20 65.82 65.43 64.07 64.06 64.76 65.55
47.51 49.91 51.29 52.40 53.00 54.54 56.36 62.62 64.12 68.16 68.16 68.62 68.00 68.04 67.70 66.38 67.26 67.96 68.46 68.79 67.38 67.48 67.70 66.45 66.04 65.66 65.38 64.94 64.28 64.02 62.74 63.77
42.58 43.83 44.83 46.68 48.10 50.23 55.09 60.05 63.77 67.15 67.24 67.40 65.74 66.55 65.14 66.78 67.18 67.54 66.98 67.72 68.55 67.01 67.21 66.88 66.11 65.53 65.21 65.05 64.97 64.24 64.79 61.20
39.33 40.02 41.27 42.52 43.31 44.93 50.30 53.29 53.41 56.13 66.61 67.06 65.51 67.55 67.92 68.39 67.94 67.35 66.56 66.89 68.18 68.01 67.39 66.58 66.03 66.27 66.03 65.87 64.32 64.19 64.39 63.86
38.37 39.73 40.50 40.36 41.48 42.19 45.92 49.53 49.09 52.11 55.22 61.48 66.06 64.85 66.97 67.43 66.56 66.55 65.77 66.06 66.04 66.52 68.46 67.36 66.83 66.22 65.61 65.72 65.05 64.92 64.59 64.72
35.49 36.68 37.95 39.86 39.70 40.40 43.06 45.47 46.51 49.87 52.58 54.01 56.99 58.45 61.68 66.38 66.56 66.48 65.33 65.19 64.27 65.08 66.83 66.72 66.33 66.62 66.23 65.81 65.21 65.37 65.85 65.50
33.06 33.73 36.36 37.50 38.84 38.93 40.39 41.65 42.73 45.85 48.19 51.56 53.14 54.41 54.98 56.56 59.19 61.70 67.05 65.63 65.43 66.20 66.09 66.53 66.50 66.38 66.27 67.78 66.88 66.77 66.81 66.73
31.74 33.68 35.48 36.68 38.34 37.00 38.90 40.40 40.91 42.62 44.66 47.90 49.08 50.89 51.59 53.10 54.96 56.97 57.95 66.11 65.73 66.16 65.45 64.82 64.89 65.50 65.45 66.14 66.74 64.74 65.71 65.95
30.96 32.47 33.15 35.24 36.67 36.55 37.31 38.65 39.46 40.28 42.30 44.42 45.86 47.23 48.85 50.05 52.80 55.10 56.97 57.44 63.08 64.96 64.41 64.26 64.74 64.51 64.11 63.95 64.28 64.03 63.35 63.72
30.17 30.99 32.49 32.47 34.45 35.73 35.81 36.59 37.45 38.56 40.12 41.17 42.35 43.68 44.90 46.21 46.91 48.68 51.20 54.09 54.85 63.08 63.69 63.74 63.38 63.33 62.46 61.95 62.31 62.72 62.41 62.44
29.97 30.65 30.86 30.46 31.27 32.77 33.92 35.62 36.52 37.07 38.53 39.40 39.62 40.22 41.19 41.97 42.99 44.43 46.74 49.58 50.88 56.39 62.33 63.05 62.99 62.50 62.17 61.20 61.21 61.44 61.40 61.18
29.91 29.77 29.50 29.42 29.70 31.47 33.33 34.45 37.37 38.71 38.27 38.33 38.25 38.49 38.52 39.27 39.91 41.34 42.61 44.34 45.90 47.46 48.23 51.77 59.34 60.90 61.53 61.59 61.01 60.69 60.82 61.03
29.86 30.04 29.96 29.64 29.92 30.57 31.64 34.16 35.86 37.33 37.82 38.46 36.87 37.07 38.06 37.89 38.36 39.00 40.14 41.11 41.89 42.48 42.57 42.47 42.90 42.59 42.11 43.47 49.26 59.12 60.12 60.23
28.06 28.98 29.29 30.73 29.50 29.32 31.88 33.43 34.04 35.46 35.66 36.27 37.36 36.79 36.85 37.23 37.38 37.41 38.13 37.90 38.80 39.18 39.54 38.58 39.01 38.61 37.49 38.38 41.94 47.94 56.67 58.79
27.14 27.80 28.09 28.89 29.77 29.72 29.79 31.11 32.38 34.47 34.38 34.05 35.52 37.08 36.55 35.22 35.99 36.40 36.42 35.82 36.22 36.25 36.38 35.53 35.16 35.96 35.53 36.49 39.16 47.51 45.65 52.08
26.65 27.03 27.96 28.28 30.12 30.77 29.87 30.67 31.84 31.98 32.60 33.05 33.89 34.60 34.85 35.34 34.64 34.37 33.31 33.77 34.04 34.08 34.31 34.77 34.12 33.60 34.72 35.82 36.01 39.07 37.83 37.40
27.00 27.56 27.85 28.80 30.44 31.06 31.70 31.07 30.92 30.34 30.06 30.38 31.50 32.72 33.08 33.92 34.29 34.39 34.54 33.62 33.17 32.02 32.07 33.36 33.09 32.78 33.60 33.96 35.34 37.88 35.48 34.53

GFSFLT1_sfc_wetblb_123.txt.gz
Wetbulb
52.58 52.91 52.87 52.31 52.98 54.12 55.44 57.11 61.00 63.28 70.50 69.95 69.73 69.84 69.59 69.66 70.52 70.96 70.78 70.02 69.92 69.75 69.38 69.28 70.21 69.36 67.34 68.66 68.55 68.40 67.91 66.29
50.57 52.79 53.79 53.26 52.58 53.15 53.72 55.82 60.40 61.83 68.66 68.24 68.47 68.03 68.56 69.26 69.63 71.47 70.53 69.42 69.14 69.34 68.71 68.57 68.97 68.54 67.44 67.44 67.76 67.65 66.69 67.91
46.06 47.98 51.25 53.74 54.76 55.53 56.38 56.79 57.83 60.48 62.26 69.18 68.92 68.67 68.86 69.28 69.63 71.08 71.76 69.55 68.57 69.14 68.42 67.88 67.85 67.14 66.98 67.16 67.02 66.02 66.81 67.70
41.15 42.66 44.35 48.42 49.28 51.30 53.90 55.34 56.78 59.13 62.45 67.80 67.34 69.70 68.77 68.21 68.45 69.45 70.86 70.11 68.10 68.22 68.77 67.65 67.19 67.12 66.34 66.78 66.71 65.90 64.88 66.66
37.83 39.18 40.36 42.15 44.22 46.66 48.49 51.80 55.46 58.64 61.25 63.17 65.84 67.09 66.03 66.76 67.94 68.87 70.15 70.89 68.41 68.19 68.35 67.41 66.88 66.44 65.85 65.91 66.98 66.58 65.85 62.56
35.82 36.13 37.28 40.38 41.92 41.57 43.49 47.15 53.19 54.60 57.12 61.28 67.13 65.42 68.35 68.35 68.91 68.96 69.74 70.32 69.67 68.00 67.71 67.59 66.29 65.93 65.92 66.45 65.77 66.20 66.75 64.31
37.25 36.61 36.68 38.29 40.74 41.13 41.70 45.04 48.55 49.88 54.69 63.33 68.44 65.36 67.62 65.42 67.71 68.43 68.30 68.20 68.58 69.69 68.02 67.87 67.27 66.26 65.40 66.07 66.08 66.14 65.86 65.59
34.61 33.09 33.69 35.22 37.59 39.49 41.49 43.37 45.47 47.50 51.87 54.61 56.04 65.26 65.58 67.86 63.91 66.17 65.98 65.14 65.89 68.14 69.14 68.85 66.79 66.25 66.07 66.26 65.62 65.23 66.03 64.29
32.30 31.99 33.41 33.38 35.97 37.54 40.47 41.87 43.10 45.51 49.02 50.95 52.98 54.29 58.85 59.82 58.00 59.17 64.11 65.26 65.69 67.08 67.48 67.87 67.85 67.10 66.36 65.97 65.36 65.01 65.88 64.71
31.24 31.41 32.42 32.55 33.32 33.61 38.63 40.34 41.44 43.05 44.78 47.92 49.74 51.04 54.57 55.84 56.68 58.00 58.74 59.67 62.09 66.71 67.29 66.45 66.32 65.95 65.90 66.01 64.97 66.54 66.77 66.36
31.07 30.79 31.56 32.21 32.43 34.66 38.71 40.16 39.66 41.30 43.33 45.28 46.95 47.49 49.06 49.82 50.19 51.24 52.65 54.89 56.70 57.39 66.15 66.60 65.46 64.82 65.35 65.35 64.99 65.44 65.55 65.26
30.39 30.32 31.41 31.84 32.84 33.31 35.96 39.49 39.36 39.03 40.13 41.12 42.47 44.46 45.58 45.13 45.54 46.60 49.05 52.26 51.69 53.56 59.65 64.58 64.61 64.16 63.66 63.63 63.42 63.58 63.58 62.73
31.01 30.54 31.10 30.66 30.83 32.67 35.88 35.74 37.95 38.62 39.59 39.65 40.43 40.91 40.83 40.76 41.63 43.17 46.12 46.96 48.12 47.43 49.88 50.23 57.23 62.16 63.42 62.21 61.77 61.95 62.63 62.89
30.88 30.04 29.66 30.26 31.02 31.22 32.64 35.06 35.44 36.59 39.23 39.05 38.69 38.52 38.57 38.36 38.88 39.33 41.10 41.42 42.49 42.89 43.08 43.35 42.46 42.94 43.26 44.64 47.33 57.68 61.31 61.61
29.94 29.96 29.81 30.92 30.78 31.39 32.64 33.83 35.65 36.22 37.22 38.46 37.54 37.03 37.31 38.01 38.47 38.05 38.01 38.26 38.47 38.73 39.68 38.98 39.63 38.76 38.50 39.60 42.24 45.78 50.14 56.76
28.73 29.33 29.61 30.57 32.13 32.00 33.10 33.14 34.74 36.57 36.26 36.69 38.00 39.50 38.81 38.10 37.42 36.71 36.65 36.76 36.77 37.14 37.67 36.80 36.73 36.37 36.51 37.46 40.75 46.03 48.79 49.03
27.88 28.01 28.34 29.20 30.74 31.44 32.49 33.08 33.31 34.80 34.64 34.58 36.95 37.45 37.44 36.94 36.09 36.49 35.98 35.21 35.34 35.37 35.59 35.53 34.46 34.88 34.81 36.28 38.71 40.29 39.66 39.62
27.79 28.05 28.72 29.42 30.53 31.99 31.63 32.45 32.89 32.32 32.14 32.91 34.18 35.89 35.83 36.51 37.06 35.95 34.56 33.90 33.96 33.23 33.58 34.15 33.24 33.20 33.92 34.79 35.96 36.47 35.69 34.70
29.98 30.47 30.07 30.84 31.63 31.98 32.51 32.09 32.42 31.54 30.74 31.13 32.60 33.63 33.61 34.18 34.16 34.80 35.12 34.89 33.87 33.19 32.58 32.71 32.37 31.97 32.74 33.81 33.86 34.84 33.22 32.44

GFSFLT1_sfc_wetblb_126.txt.gz
Wetbulb
46.58 47.00 48.36 49.06 50.96 52.69 54.16 54.83 56.39 58.11 57.83 65.22 67.96 67.61 67.74 68.80 68.89 69.01 69.45 69.97 69.82 69.28 69.13 68.91 69.15 67.64 66.43 66.97 65.95 66.33 65.15 64.25
45.22 45.26 45.55 46.43 47.61 48.81 50.89 51.80 54.43 55.45 53.95 61.88 65.12 65.35 65.82 67.59 68.07 69.12 69.30 69.21 69.57 68.63 68.00 68.29 68.22 67.61 66.71 66.29 66.28 65.14 64.64 65.19
42.27 42.31 42.21 42.73 43.72 45.52 46.89 48.15 49.69 51.53 54.61 57.10 62.28 64.47 65.74 66.85 67.67 67.97 69.32 68.73 68.84 68.45 67.58 67.29 67.22 66.80 66.49 66.08 65.81 64.73 64.57 65.10
38.95 39.64 39.43 40.55 40.49 42.23 44.02 45.25 46.22 48.63 51.01 54.71 55.94 57.55 64.85 64.74 66.14 66.58 69.06 68.94 68.82 68.15 67.50 66.82 66.82 66.24 65.96 65.38 65.13 64.41 63.11 63.98
37.77 37.87 37.31 37.37 38.20 40.48 42.20 43.44 44.12 46.16 49.70 51.08 54.59 54.64 55.54 63.43 65.39 66.33 68.40 68.78 68.34 68.05 67.48 66.72 66.04 66.23 65.29 65.71 65.25 64.98 63.89 62.55
35.55 35.46 35.63 36.67 37.00 38.12 39.62 41.62 42.56 45.14 47.21 51.49 51.25 52.56 55.33 60.64 65.31 65.29 66.98 68.05 67.89 67.62 67.04 66.66 65.89 65.44 65.44 64.99 64.74 64.59 64.10 63.25
34.35 34.50 34.62 34.96 36.33 36.89 36.97 38.95 41.55 44.33 47.35 48.95 52.09 53.58 55.53 57.35 64.29 64.08 65.83 67.58 66.70 66.28 66.66 66.60 66.17 65.24 65.03 64.76 64.77 65.01 64.01 64.00
32.80 31.94 32.64 33.51 34.06 34.39 35.64 36.89 39.57 43.41 44.83 49.16 52.53 54.97 58.23 60.46 63.28 64.28 64.68 66.02 66.27 65.47 65.69 65.75 65.55 65.31 64.99 65.11 64.92 64.46 64.06 63.49
32.34 31.79 32.35 32.48 32.87 33.33 33.76 35.34 38.18 41.78 44.18 48.31 49.32 51.66 55.12 56.36 55.32 59.76 63.13 64.50 65.25 66.66 65.32 65.47 65.48 65.52 64.88 64.95 64.48 64.70 64.35 63.62
31.56 31.76 32.17 31.61 31.58 31.70 32.37 34.40 38.40 41.23 43.00 45.29 46.38 46.90 48.78 50.97 51.76 52.52 56.40 56.24 57.41 58.87 63.68 65.35 65.84 65.21 64.99 64.45 64.36 64.07 64.02 63.85
31.32 31.12 31.17 31.92 31.68 32.00 33.17 35.23 37.49 39.60 41.69 42.27 42.90 43.15 45.36 47.04 48.62 48.54 49.95 50.33 50.99 53.22 54.26 61.26 63.72 64.35 64.04 64.42 64.26 64.17 63.62 63.40
30.85 31.21 31.17 32.39 32.17 32.04 32.27 34.45 36.40 37.93 39.41 39.63 39.23 40.44 41.55 42.18 42.87 44.55 45.82 45.70 46.15 47.17 48.51 49.21 49.95 54.11 59.04 62.89 63.71 63.73 63.88 63.62
30.83 31.25 30.84 31.46 31.59 32.12 32.03 33.52 36.01 35.46 39.43 37.77 38.66 38.89 39.44 39.23 39.11 40.82 41.56 41.78 42.32 42.11 43.34 43.87 43.96 42.78 43.92 46.62 49.27 57.44 61.08 61.54
30.12 30.40 29.53 30.59 31.46 31.70 31.95 32.71 34.97 37.12 38.23 37.82 35.86 35.65 36.72 36.57 37.56 37.97 38.28 39.01 39.36 39.04 39.46 39.31 38.81 39.88 40.33 42.07 44.17 46.60 50.45 53.54
29.50 29.09 29.27 30.55 31.40 31.34 32.03 32.24 33.29 34.80 36.44 36.02 35.57 35.33 35.33 36.37 36.18 36.24 36.54 37.37 37.16 37.52 36.92 37.09 36.98 37.28 38.57 40.05 44.57 46.53 46.78 47.34
28.86 28.52 28.84 29.72 30.89 31.00 31.93 32.16 32.30 33.46 34.19 34.73 35.04 34.98 36.76 35.51 35.10 34.84 35.08 34.66 35.13 35.62 34.96 34.28 34.64 35.70 36.45 38.03 41.08 39.83 39.57 39.59
28.46 28.88 29.55 29.94 30.60 30.72 31.58 31.96 31.44 32.44 32.48 33.16 34.68 34.88 35.32 35.46 35.23 35.16 34.52 34.04 33.63 33.79 33.61 32.72 32.33 33.19 34.81 35.39 36.27 36.39 35.63 34.66
29.05 29.43 30.21 30.81 31.07 31.44 31.03 31.84 32.46 31.20 31.05 31.95 32.93 33.63 33.66 34.21 34.78 34.39 33.69 32.73 33.15 32.48 32.67 32.50 31.45 32.00 33.54 35.08 34.26 33.93 32.82 31.92
31.02 31.39 31.27 32.22 32.46 32.66 32.67 32.70 32.10 31.35 30.32 30.87 31.74 32.47 32.45 32.60 32.90 33.25 32.92 32.91 32.21 31.59 31.29 31.55 31.01 31.54 32.49 33.38 34.38 33.85 32.09 31.26

GFSFLT1_sfc_wetblb_129.txt.gz
Wetbulb
42.05 42.11 41.93 41.90 40.94 41.68 42.18 43.66 44.68 46.47 47.51 49.91 54.69 63.36 66.30 66.48 66.94 67.86 68.87 69.26 69.10 68.23 67.24 66.75 67.38 66.48 65.46 65.04 63.91 63.32 63.17 62.46
40.57 40.59 40.04 40.43 40.10 39.86 40.22 40.71 42.65 43.72 44.44 45.54 48.20 51.64 58.44 64.28 65.70 67.36 67.12 68.85 69.25 68.72 67.06 66.66 67.08 66.03 65.47 65.14 63.81 63.19 62.57 62.97
37.90 37.96 37.82 37.41 37.44 37.65 38.39 39.43 40.37 41.99 42.92 44.29 46.23 49.33 54.22 56.83 63.56 65.82 67.44 67.24 68.77 68.55 67.41 66.79 67.07 65.94 64.75 64.39 63.84 62.16 62.67 62.88
34.64 35.03 34.50 34.80 34.41 35.70 36.96 38.12 38.35 40.31 41.98 43.37 45.28 47.69 52.45 55.20 57.75 63.03 65.78 67.29 67.87 68.22 67.13 66.91 65.99 66.06 65.04 64.88 64.26 63.60 62.00 62.08
33.54 32.97 32.39 32.53 33.33 35.09 35.54 36.05 36.63 38.71 40.95 41.81 43.17 44.85 47.76 51.07 54.24 56.78 61.90 66.39 67.25 67.66 66.98 66.35 66.16 65.54 65.57 64.84 64.32 63.81 63.41 61.09
32.41 32.01 31.70 32.52 33.21 34.04 35.05 35.14 35.59 37.92 40.50 42.09 44.19 45.50 48.08 49.93 51.85 54.78 56.21 63.34 66.96 67.10 66.94 66.13 65.74 65.52 64.60 64.83 64.00 63.67 64.26 63.01
33.11 32.52 32.24 31.86 32.61 33.18 33.92 33.79 35.57 37.29 40.34 42.77 44.12 44.74 46.37 48.39 50.65 53.11 54.65 58.96 64.90 67.21 66.88 65.83 65.80 65.41 64.80 64.54 64.50 63.94 63.73 63.60
30.53 30.09 29.95 31.31 31.92 33.07 34.04 34.53 34.83 37.22 39.93 42.61 44.38 46.39 49.89 50.50 50.79 53.34 55.66 55.07 56.45 66.50 66.61 65.19 65.15 65.23 65.15 64.62 63.93 64.22 63.85 63.03
29.97 29.49 30.08 30.83 32.57 32.62 33.19 33.68 34.52 36.88 39.54 41.56 44.35 47.19 49.56 53.34 53.68 55.92 56.41 53.69 53.52 65.97 65.86 64.86 65.23 64.77 64.51 64.40 63.95 64.02 63.89 63.50
28.43 29.41 29.84 31.19 31.94 32.04 32.47 33.50 34.16 34.92 37.99 40.64 42.42 43.26 46.35 50.55 51.82 51.16 54.13 51.70 52.77 55.50 64.84 64.61 65.01 64.42 64.10 64.00 63.62 63.60 63.50 63.42
28.21 28.97 29.70 31.51 32.01 32.24 32.55 33.22 33.41 33.85 36.48 38.97 40.69 41.23 42.52 44.34 44.81 45.16 48.47 52.05 51.60 48.49 50.22 55.79 60.71 62.33 63.96 63.59 63.22 63.29 63.30 62.97
28.08 28.92 29.96 31.59 32.14 31.84 31.93 32.14 32.16 32.62 34.63 36.53 37.99 39.04 39.48 40.04 40.27 40.86 42.48 44.84 44.98 44.21 45.74 45.48 46.52 47.66 50.11 53.33 57.28 60.74 62.80 62.73
28.26 29.64 30.14 30.38 31.31 31.60 31.82 31.61 31.65 32.40 32.95 32.95 36.77 37.49 37.80 36.83 36.78 38.08 39.38 39.80 41.33 40.49 40.50 40.89 41.35 43.79 45.21 47.27 48.53 51.08 53.15 53.23
27.19 28.88 29.14 29.80 30.83 31.28 31.80 31.65 31.89 32.58 33.49 32.40 35.85 36.11 35.67 35.44 34.34 34.81 35.92 36.38 36.45 37.02 37.23 37.40 37.44 38.76 41.36 44.32 45.27 44.58 45.64 45.80
27.65 28.42 29.18 30.08 30.63 30.82 31.33 31.33 31.92 32.49 33.74 34.38 34.26 34.35 35.30 34.97 34.41 33.64 33.22 34.18 33.29 33.68 34.09 35.00 35.77 35.98 37.49 39.75 39.74 40.12 40.57 40.77
27.66 27.72 28.28 29.70 30.25 30.66 30.98 31.07 31.14 32.41 32.49 32.96 33.16 34.36 34.63 34.36 33.32 33.49 33.56 33.08 32.92 32.86 32.85 33.01 33.74 34.69 34.69 35.77 36.49 35.93 35.91 35.77
28.08 28.96 29.09 29.42 30.25 30.58 31.06 31.05 30.48 31.73 31.30 31.84 33.01 33.43 33.60 33.21 33.06 32.36 32.40 32.36 32.39 32.19 31.62 31.68 31.55 32.94 35.18 34.57 33.95 33.03 32.83 32.73
27.67 27.62 30.27 29.10 29.94 31.32 30.64 30.97 31.22 30.37 30.53 30.73 31.91 32.55 32.45 32.70 32.57 32.67 32.29 31.04 31.27 30.44 30.25 30.16 30.51 31.53 33.33 34.42 34.11 32.97 31.75 31.09
28.22 27.60 28.05 30.17 30.22 31.03 31.47 31.67 31.02 30.50 29.73 30.32 30.57 30.73 30.50 31.67 31.81 31.50 31.70 32.30 30.32 29.55 28.83 28.75 28.66 30.49 32.33 32.63 32.76 32.00 31.27 30.81